[[[{"header":{"parameterUnit":"kt","parameterCategory":2,"dx":1,"dy":1,"la1":29.587661999999998,"la2":31.0,"lo1":-88.76705300000003,"lo2":-86.6583820000003,"nx":115,"ny":88,"refTime":"2022-10-19T06:00:00:Z","depth":0,"parameterNumber":1,"parameterNumberName":"U-component_of_WINDS"},"data":[21.6563,21.5522,21.5522,21.5522,21.5592,21.5592,21.5522,21.5522,21.5245,21.4824,21.4658,21.4508,21.3937,21.2979,21.3482,21.3784,21.4146,21.328,21.3645,21.4273,21.467,21.4789,21.504,21.5919,21.6069,21.6116,21.5727,21.5266,21.4499,21.5266,21.5497,21.4801,21.5266,21.5727,21.5727,21.5956,21.6411,21.7309,21.7752,21.819,21.9054,21.9199,21.9411,22.0042,22.0663,22.1072,22.1748,22.2345,22.2612,22.2612,22.2612,22.2612,22.2612,22.2612,22.2612,22.2612,22.2612,22.2612,22.2753,22.3105,22.3549,22.3818,22.4379,22.5073,22.5293,22.5472,22.5472,22.5472,22.5293,22.493,22.4308,22.4122,22.3629,22.2932,22.2612,22.2612,22.2612,22.2612,22.2612,22.2612,22.2612,22.2612,22.2612,22.2612,22.2612,22.2612,22.2612,22.2612,22.2612,22.2682,22.2753,22.3143,22.3721,22.488,22.6062,22.7991,22.9397,22.9825,22.9825,22.9254,22.8327,22.6899,22.7042,22.8112,22.8683,22.9111,22.9325,22.9896,23.0526,23.0675,22.9585,22.8917,22.904,22.8433,22.7556,21.8713,21.8644,21.8644,21.8644,21.8644,21.8644,21.8574,21.8366,21.7187,21.6147,21.5376,21.6962,21.6315,21.5365,21.51,21.4857,21.4609,21.376,21.2945,21.3303,21.4455,21.464,21.482,21.5422,21.6089,21.6116,21.5956,21.5034,21.4264,21.5034,21.5266,21.4499,21.4966,21.5727,21.5727,21.5956,21.6411,21.7309,21.7531,21.819,21.8555,21.8771,21.9199,21.9763,22.0663,22.1072,22.1678,22.2147,22.2612,22.2612,22.2612,22.2612,22.2612,22.2612,22.2612,22.2612,22.2612,22.2612,22.2682,22.2964,22.3337,22.3959,22.4335,22.489,22.5293,22.5472,22.5472,22.5472,22.5472,22.5112,22.4308,22.3935,22.3438,22.2932,22.2808,22.2612,22.2612,22.2612,22.2612,22.2612,22.2612,22.2612,22.2612,22.2612,22.2612,22.2612,22.2612,22.2612,22.2612,22.2682,22.3105,22.3707,22.4711,22.5588,22.6345,22.809,22.9825,23.0396,23.1181,23.0467,22.9682,22.8897,22.8897,22.9754,23.0253,23.061,23.0895,23.0467,23.0882,23.1504,23.0485,22.9677,22.9661,22.9111,22.8246,21.9268,21.9268,21.9268,21.9268,21.9268,21.9268,21.9268,21.9129,21.8574,21.7536,21.6564,21.676,21.6046,21.4693,21.4656,21.4164,21.3681,21.4298,21.3705,21.3511,21.4386,21.4628,21.4941,21.5384,21.6001,21.6116,21.5727,21.5497,21.4801,21.5034,21.5266,21.4801,21.5266,21.5727,21.5727,21.5727,21.6411,21.7309,21.7017,21.7683,21.8555,21.8985,21.9411,21.9763,22.0663,22.1072,22.1748,22.2147,22.2612,22.2612,22.2612,22.2612,22.2612,22.2612,22.2612,22.2612,22.2612,22.2612,22.2612,22.2682,22.3073,22.3509,22.4077,22.4477,22.489,22.5472,22.5472,22.5472,22.5472,22.5255,22.445,22.3935,22.3438,22.2932,22.2808,22.2612,22.2612,22.2612,22.2612,22.2612,22.2612,22.2612,22.2612,22.2612,22.2612,22.2612,22.2612,22.2612,22.2612,22.2612,22.3457,22.4358,22.6267,22.7479,22.7811,22.9015,23.0426,23.1537,23.2608,23.2037,23.1466,23.0895,23.0538,23.1181,23.168,23.1965,23.1395,23.0752,23.1139,23.1052,23.0604,23.0152,22.9909,22.9573,22.8614,21.9268,21.9268,21.9268,21.9268,21.9268,21.9268,21.9268,21.9268,21.9268,21.8505,21.7675,21.7253,21.6474,21.5616,21.5451,21.4775,21.4154,21.5113,21.4395,21.3857,21.5478,21.5781,21.4924,21.5295,21.5478,21.5683,21.5523,21.5293,21.4257,21.4529,21.4801,21.4801,21.5497,21.5727,21.5727,21.5727,21.6184,21.7017,21.7017,21.724,21.8339,21.8771,21.9411,22.025,22.0663,22.1275,22.1948,22.2415,22.2612,22.2612,22.2612,22.2612,22.2612,22.2612,22.2612,22.2612,22.2612,22.2612,22.2612,22.2612,22.3002,22.3318,22.3818,22.4219,22.4663,22.5255,22.5472,22.5472,22.5364,22.5144,22.4592,22.4264,22.3747,22.3247,22.3002,22.2808,22.2612,22.2612,22.2612,22.2612,22.2612,22.2612,22.2612,22.2612,22.2612,22.2612,22.2612,22.2612,22.2612,22.2682,22.3457,22.4076,22.6408,22.8472,22.9301,23.0366,23.1995,23.3107,23.3607,23.3464,23.3178,23.2822,23.2608,23.2893,23.2608,23.2108,23.1537,23.0895,23.0141,22.9956,22.9584,22.9254,22.9088,22.923,22.8543,21.9268,21.9268,21.9268,21.9268,21.9268,21.9268,21.9268,21.9268,21.9268,21.9129,21.9203,21.9346,21.8713,21.7575,21.6736,21.5994,21.6014,21.6066,21.5417,21.2747,21.5765,21.5987,21.513,21.5159,21.4522,21.4885,21.4727,21.4109,21.3538,21.382,21.4567,21.4801,21.5497,21.5727,21.5727,21.5727,21.5956,21.6569,21.6794,21.724,21.8121,21.8555,21.9129,22.0457,22.0868,22.1275,22.2147,22.2612,22.2612,22.2612,22.2612,22.2612,22.2612,22.2612,22.2612,22.2612,22.2612,22.2612,22.2612,22.2612,22.2932,22.3318,22.3818,22.4148,22.4592,22.5073,22.5364,22.5472,22.5472,22.5255,22.489,22.4379,22.3935,22.3438,22.3125,22.2808,22.2612,22.2612,22.2612,22.2612,22.2612,22.2612,22.2612,22.2612,22.2612,22.2612,22.2612,22.2612,22.2612,22.2612,22.2893,22.2964,22.5701,22.7976,22.942,23.122,23.3135,23.4177,23.4605,23.4534,23.4177,23.4249,23.4534,23.4106,23.3607,23.275,23.1395,23.0396,22.9611,22.9285,22.8817,22.8304,22.8233,22.8561,22.8318,21.9268,21.9268,21.9268,21.9268,21.9268,21.9268,21.9268,21.9268,21.9268,21.948,21.9694,21.9137,21.8713,21.8755,21.7438,21.6768,21.698,21.7298,21.6864,21.545,21.6342,21.5466,21.4307,21.3586,21.3087,21.2814,21.2656,21.2883,21.2501,21.2979,21.4264,21.4665,21.5034,21.5266,21.5727,21.5727,21.5956,21.6116,21.6794,21.724,21.7902,21.8555,21.9199,22.025,22.0663,22.1275,22.1948,22.2345,22.2612,22.2612,22.2612,22.2612,22.2612,22.2612,22.2612,22.2612,22.2612,22.2612,22.2612,22.2612,22.2948,22.3214,22.377,22.3959,22.445,22.5144,22.5364,22.5472,22.5472,22.5293,22.5112,22.4748,22.4193,22.3747,22.3247,22.2932,22.2808,22.2612,22.2612,22.2612,22.2612,22.2612,22.2612,22.2612,22.2612,22.2612,22.2612,22.2612,22.2612,22.2823,22.316,22.3371,22.5701,22.8237,22.9775,23.1647,23.3492,23.4677,23.5034,23.5034,23.5034,23.4891,23.482,23.4605,23.432,23.2608,23.0824,22.9825,22.904,22.8541,22.8073,22.8247,22.846,22.8644,22.9111,21.899,21.8644,21.906,21.899,21.8713,21.906,21.9268,21.9268,21.9268,21.9411,21.9763,21.8858,21.9132,21.9655,21.7649,21.7895,21.8368,21.8476,21.8323,21.7667,21.684,21.5627,21.4118,21.2628,21.1379,21.095,21.0998,21.1293,21.1251,21.1626,21.2908,21.3888,21.3918,21.4858,21.5293,21.5727,21.5727,21.5956,21.6569,21.724,21.7752,21.8339,21.9199,22.0042,22.0594,22.1072,22.1748,22.2345,22.2612,22.2612,22.2612,22.2612,22.2612,22.2612,22.2612,22.2612,22.2612,22.2612,22.2612,22.2612,22.2682,22.3019,22.358,22.3818,22.4289,22.4848,22.5472,22.5472,22.5472,22.5472,22.5293,22.493,22.4308,22.3935,22.3438,22.3125,22.2612,22.2612,22.2612,22.2612,22.2612,22.2612,22.2612,22.2612,22.2612,22.2612,22.2612,22.2612,22.2753,22.3512,22.399,22.4607,22.6672,22.9633,23.1362,23.2404,23.392,23.5034,23.5034,23.5034,23.5034,23.5034,23.5034,23.4891,23.4605,23.2964,23.0752,22.954,22.8755,22.8184,22.8041,22.8469,22.8897,22.9468,22.9825,21.8366,21.7326,21.8574,21.8366,21.7464,21.8713,21.9268,21.9268,21.9268,21.9199,21.948,21.9694,22.0108,22.0443,21.9912,22.0059,22.0655,22.0059,21.9491,21.8632,21.7189,21.5782,21.4284,21.2457,21.0508,21.0013,20.9839,20.9864,20.9693,21.0167,21.1213,21.2191,21.2734,21.3946,21.5156,21.5727,21.5727,21.5956,21.6343,21.7017,21.7531,21.8121,21.8985,21.9833,22.0388,22.1072,22.1477,22.2147,22.2415,22.2612,22.2612,22.2612,22.2612,22.2612,22.2612,22.2612,22.2612,22.2612,22.2612,22.2612,22.2682,22.2878,22.3438,22.4145,22.4549,22.5061,22.5435,22.5472,22.5472,22.5472,22.5472,22.5112,22.4677,22.4122,22.3629,22.3318,22.2737,22.2612,22.2612,22.2612,22.2612,22.2541,22.2471,22.2612,22.2612,22.2612,22.2345,22.2612,22.2753,22.3583,22.4749,22.5366,22.743,23.0604,23.2333,23.3233,23.4419,23.5034,23.5034,23.5034,23.5034,23.5034,23.5034,23.4962,23.4891,23.3678,23.1466,22.9896,22.8755,22.8469,22.8327,22.8969,23.061,23.0895,23.1466,21.7464,21.7048,21.7534,21.7395,21.7256,21.8574,21.9268,21.9268,21.9268,21.948,21.9833,22.0042,22.0457,22.0855,22.0544,22.0375,22.2329,22.0975,22.0039,22.0684,21.7667,21.559,21.3489,21.0837,20.9497,20.8031,20.7998,20.898,20.9393,20.8677,20.9325,21.0646,21.1626,21.2938,21.4422,21.5429,21.5727,21.5956,21.6116,21.6794,21.7462,21.7902,21.8771,21.9411,22.0042,22.0594,22.1072,22.1748,22.2147,22.2415,22.2612,22.2612,22.2808,22.2808,22.3002,22.2737,22.2737,22.3002,22.2612,22.2612,22.2612,22.2612,22.3438,22.3912,22.4384,22.5103,22.5364,22.5472,22.5472,22.5472,22.5472,22.5472,22.5112,22.4493,22.4006,22.3629,22.3125,22.2612,22.2612,22.2612,22.2612,22.233,22.226,22.2401,22.2415,22.2345,22.2345,22.2415,22.2682,22.399,22.5296,22.5842,22.755,23.0178,23.2049,23.3634,23.4605,23.4962,23.5034,23.5034,23.5034,23.5034,23.5034,23.5034,23.5005,23.4404,23.2149,23.0324,22.9111,22.8541,22.8969,23.0396,23.2037,23.2964,23.3749,21.6355,21.5522,21.6493,21.6632,21.6493,21.8366,21.9268,21.9268,21.9268,21.948,21.9833,22.018,22.0868,22.1267,22.0965,22.1556,22.2964,22.1784,22.1398,22.1978,21.8685,21.6146,21.4129,21.1888,20.9659,20.8441,20.8646,20.9546,20.9934,20.8175,20.8286,20.8785,20.9971,21.1423,21.2704,21.4994,21.5727,21.5956,21.6116,21.6794,21.7462,21.7902,21.8339,21.9199,21.9833,22.0388,22.0799,22.1477,22.2147,22.2612,22.2612,22.2612,22.2612,22.3125,22.3125,22.3055,22.3125,22.3196,22.2948,22.2612,22.2612,22.2737,22.3247,22.3889,22.4101,22.489,22.5293,22.5472,22.5472,22.5472,22.5472,22.5472,22.5293,22.4859,22.4308,22.3818,22.3438,22.2932,22.2612,22.2612,22.2612,22.2401,22.233,22.2541,22.2147,22.1948,22.2147,22.2345,22.2682,22.406,22.556,22.6297,22.7882,23.0153,23.2094,23.3777,23.4891,23.5533,23.5676,23.5248,23.5034,23.5034,23.482,23.4177,23.469,23.5055,23.3014,23.1117,22.965,22.9578,23.061,23.1965,23.3178,23.4249,23.4962,21.5106,21.2886,21.5592,21.6008,21.5175,21.795,21.9268,21.9268,21.9268,21.9268,21.948,22.0388,22.0799,22.1003,22.2006,22.265,22.3368,22.3297,22.3106,22.2367,22.0039,21.7946,21.5938,21.4049,21.174,21.1465,21.0696,21.0452,21.0949,20.8108,20.7207,20.7441,20.818,20.8858,20.896,21.3238,21.5659,21.5727,21.5727,21.6637,21.7309,21.7531,21.8408,21.8985,21.9622,22.025,22.0938,22.1486,22.244,22.2907,22.3034,22.3034,22.3089,22.3337,22.3438,22.3368,22.3438,22.3337,22.3301,22.2753,22.2612,22.2808,22.3438,22.3818,22.4219,22.4706,22.5472,22.5472,22.5651,22.5651,22.5472,22.5472,22.5293,22.5041,22.4493,22.3935,22.3438,22.2932,22.2808,22.2612,22.2612,22.2612,22.2612,22.2345,22.1878,22.1948,22.2147,22.2485,22.2823,22.4113,22.573,22.7102,22.9254,23.1381,23.285,23.432,23.539,23.6247,23.6318,23.5462,23.5034,23.5034,23.432,23.325,23.3975,23.5199,23.3695,23.2049,23.2443,23.2658,23.3228,23.3149,23.4177,23.5034,23.5034,21.2748,21.2678,21.4551,21.5037,21.5106,21.795,21.9268,21.9268,21.9268,21.9268,21.9199,22.0388,22.0799,22.1205,22.1948,22.2932,22.3247,22.3438,22.3247,22.256,22.1063,21.9035,21.6911,21.5171,21.3343,21.1771,21.0918,21.0472,21.0467,20.7255,20.6128,20.6366,20.7068,20.7948,20.923,21.3102,21.5727,21.5727,21.5956,21.6411,21.7309,21.7531,21.819,21.9054,21.9411,22.0042,22.0803,22.1982,22.2941,22.3752,22.402,22.409,22.406,22.3883,22.3699,22.3558,22.3629,22.365,22.3355,22.2893,22.2612,22.2612,22.3438,22.3818,22.4193,22.493,22.5472,22.5472,22.5828,22.6076,22.6076,22.618,22.6005,22.5544,22.493,22.4122,22.3629,22.2932,22.2808,22.2612,22.2612,22.2612,22.2345,22.1948,22.1748,22.2147,22.2345,22.2415,22.3019,22.4095,22.5447,22.729,22.9842,23.1852,23.3535,23.482,23.5961,23.6603,23.6247,23.539,23.5034,23.5034,23.4534,23.3934,23.4301,23.5308,23.4915,23.4122,23.4656,23.5518,23.4699,23.3872,23.4833,23.5176,23.5176,21.164,21.1707,21.3788,21.462,21.4828,21.795,21.9268,21.9268,21.9268,21.9268,21.9199,22.0042,22.0594,22.1003,22.1948,22.2541,22.3318,22.3438,22.3509,22.2894,22.2085,22.0275,21.8434,21.6283,21.411,21.2883,21.1123,21.0472,21.0044,20.7526,20.5858,20.5089,20.5823,20.6867,20.8858,21.1725,21.4449,21.5225,21.5956,21.6411,21.7309,21.7531,21.819,21.9054,21.9268,21.9833,22.0873,22.2336,22.358,22.4596,22.4794,22.4851,22.4695,22.4195,22.3818,22.3747,22.3747,22.377,22.3478,22.3143,22.2808,22.2932,22.3247,22.3818,22.3935,22.4564,22.5183,22.5472,22.5651,22.6005,22.6252,22.6354,22.6599,22.6148,22.5435,22.4564,22.3818,22.3125,22.2612,22.2612,22.2612,22.2612,22.2217,22.1748,22.1948,22.2415,22.2415,22.2415,22.2948,22.3953,22.4526,22.5754,22.8988,23.121,23.2822,23.4605,23.6461,23.6318,23.6033,23.5462,23.5034,23.5034,23.482,23.4761,23.473,23.5201,23.5342,23.558,23.6256,23.7091,23.6419,23.5093,23.5088,23.5505,23.5248,21.074,21.032,21.3372,21.462,21.4898,21.795,21.9268,21.9268,21.9268,21.9268,21.9268,21.9833,22.018,22.0799,22.1477,22.2345,22.3318,22.3747,22.3629,22.3438,22.3035,22.1571,21.9471,21.7398,21.565,21.4215,21.1977,21.0764,20.9796,20.7483,20.5251,20.3578,20.4951,20.6091,20.7978,21.0782,21.3209,21.5293,21.5727,21.6411,21.7086,21.7531,21.7971,21.884,21.9268,21.9761,22.0873,22.2686,22.4146,22.5591,22.544,22.5485,22.54,22.4549,22.4431,22.436,22.436,22.4289,22.4195,22.3741,22.3266,22.3002,22.2932,22.3438,22.3935,22.445,22.4819,22.5472,22.5651,22.5933,22.6108,22.6354,22.6497,22.6219,22.5722,22.4859,22.3935,22.3055,22.2737,22.2612,22.2612,22.2612,22.2217,22.2217,22.2217,22.2415,22.2415,22.2415,22.2948,22.3953,22.4243,22.5328,22.8561,23.1252,23.2608,23.4106,23.6247,23.6675,23.589,23.539,23.5034,23.482,23.4677,23.4761,23.5055,23.4843,23.5015,23.604,23.7176,23.8374,23.8386,23.6955,23.6348,23.5875,23.5476,20.9424,20.9841,21.3164,21.462,21.4898,21.795,21.9268,21.9268,21.9268,21.9268,21.9268,21.9411,22.0042,22.0799,22.1477,22.2147,22.2808,22.3558,22.3629,22.3204,22.2448,22.138,21.9574,21.7114,21.5453,21.4475,21.174,21.0181,20.9039,20.7032,20.4712,20.3007,20.4415,20.589,20.7777,21.0208,21.3006,21.5293,21.5727,21.6184,21.6794,21.724,21.7902,21.8624,21.9193,22.0178,22.1993,22.3876,22.583,22.6869,22.6987,22.6484,22.6331,22.5135,22.4573,22.5612,22.5089,22.5089,22.5541,22.4478,22.3478,22.3019,22.3019,22.3125,22.3747,22.445,22.489,22.5472,22.5828,22.5933,22.6283,22.687,22.6771,22.6354,22.5828,22.5041,22.4122,22.3438,22.3125,22.2737,22.2612,22.2612,22.2612,22.2415,22.2415,22.2612,22.2541,22.2345,22.3496,22.4782,22.5234,22.5707,22.9228,23.2822,23.4106,23.5176,23.6247,23.6889,23.5818,23.5176,23.5105,23.4891,23.4677,23.5119,23.5666,23.5667,23.5734,23.6861,23.7876,23.8284,23.8302,23.7594,23.7314,23.6205,23.566,21.0036,21.1287,21.3509,21.4967,21.5869,21.8227,21.9268,21.9268,21.9268,21.9268,21.9268,21.9268,21.9622,22.025,22.1072,22.1748,22.2541,22.3247,22.3438,22.3155,22.2731,22.1693,21.9601,21.6954,21.4615,21.3025,21.0725,20.9178,20.8183,20.6395,20.4173,20.3309,20.3946,20.5287,20.7538,20.9668,21.223,21.449,21.5727,21.5888,21.65,21.7017,21.7806,21.9306,21.9593,22.1141,22.3315,22.5412,22.7159,22.7925,22.7629,22.747,22.7176,22.5649,22.476,22.6838,22.6283,22.6639,22.745,22.5069,22.3863,22.3266,22.2878,22.2932,22.3247,22.3818,22.4564,22.5472,22.5757,22.6076,22.6395,22.6843,22.6799,22.6556,22.6037,22.5079,22.4308,22.3747,22.3247,22.2932,22.2612,22.2612,22.2612,22.2415,22.2415,22.2612,22.2612,22.2612,22.323,22.4448,22.4994,22.6084,22.994,23.3678,23.4677,23.5533,23.6247,23.6247,23.5176,23.5176,23.5034,23.5034,23.5077,23.5445,23.5809,23.6347,23.67,23.7437,23.8165,23.8068,23.7995,23.895,23.9681,23.8286,23.6922,21.1888,21.2782,21.4129,21.5592,21.6771,21.8505,21.9268,21.9268,21.9268,21.9268,21.9268,21.9268,21.9268,21.9622,22.0388,22.1477,22.2345,22.3125,22.3318,22.3106,22.259,22.1269,21.9585,21.6665,21.3977,21.2394,20.9559,20.8303,20.7944,20.6463,20.4673,20.3242,20.3409,20.4549,20.703,20.8825,21.1115,21.4257,21.5497,21.5888,21.6343,21.65,21.8065,21.9557,22.0619,22.1896,22.4633,22.6318,22.8068,22.8626,22.798,22.7761,22.7691,22.572,22.5914,22.6537,22.7399,22.8112,22.8247,22.5985,22.4006,22.3721,22.2932,22.2808,22.2932,22.3629,22.4379,22.5293,22.5472,22.5794,22.6114,22.6497,22.6556,22.6341,22.6169,22.5508,22.4308,22.3818,22.3318,22.3002,22.2612,22.2612,22.2612,22.2612,22.2612,22.2612,22.2612,22.2612,22.2753,22.3089,22.3566,22.6035,22.9349,23.2379,23.3777,23.482,23.5319,23.539,23.5034,23.5034,23.5034,23.5034,23.5148,23.5517,23.599,23.6347,23.6875,23.7681,23.8284,23.8454,23.8093,23.9267,24.1112,24.0289,23.8354,21.3058,21.1406,21.4463,21.5586,21.5661,21.8019,21.9268,21.9268,21.9268,21.9268,21.9268,21.9268,21.9268,21.9411,22.0042,22.0868,22.1948,22.2932,22.3318,22.2894,22.1647,22.0205,21.8302,21.5522,21.3293,21.2434,21.0048,20.8378,20.8372,20.7674,20.574,20.4046,20.3074,20.4311,20.6588,20.869,21.1454,21.385,21.5497,21.5727,21.5888,21.6411,21.7704,21.9818,22.0399,22.2371,22.5382,22.7294,22.8487,22.9118,22.9251,22.923,22.9843,22.8529,22.7669,22.745,22.6576,22.679,22.7218,22.5672,22.4521,22.4314,22.353,22.3388,22.3318,22.3438,22.3818,22.4748,22.5293,22.5544,22.5865,22.6354,22.6341,22.6054,22.6269,22.618,22.493,22.4122,22.3558,22.3318,22.2808,22.2612,22.2612,22.2612,22.2612,22.2612,22.2612,22.2612,22.2612,22.2612,22.3301,22.5842,22.8166,23.1052,23.3064,23.4106,23.4891,23.5034,23.5034,23.5034,23.5034,23.5034,23.5548,23.5914,23.6241,23.6021,23.7077,23.7876,23.737,23.7154,23.7587,23.8309,23.915,23.8834,23.895,21.4927,21.4524,21.5927,21.6698,21.7187,21.8644,21.9411,21.9622,21.948,21.948,21.9411,21.9411,21.9268,21.9411,21.9833,22.0663,22.1748,22.2541,22.2932,22.3106,22.2072,22.1126,22.0064,21.7805,21.5541,21.3517,21.2186,21.0876,20.9355,20.888,20.6761,20.4577,20.4048,20.4981,20.6963,20.8925,21.1457,21.3888,21.5266,21.5727,21.5266,21.5956,21.7391,21.9371,22.1005,22.312,22.6077,22.7922,22.9188,22.9118,22.8823,22.8596,22.8631,22.8563,22.8988,22.8745,22.7574,22.7185,22.7289,22.5856,22.4706,22.4619,22.403,22.3629,22.3509,22.3509,22.3841,22.436,22.4919,22.5544,22.5758,22.6497,22.6484,22.6368,22.6583,22.6283,22.5401,22.4392,22.4095,22.3935,22.3388,22.2948,22.2878,22.2808,22.2612,22.2612,22.2612,22.2612,22.2612,22.2612,22.2878,22.4994,22.6558,22.9584,23.228,23.3821,23.5034,23.5034,23.5034,23.5034,23.5034,23.5034,23.5476,23.6239,23.5667,23.5334,23.6068,23.6648,23.5926,23.5348,23.5926,23.6576,23.7226,23.814,23.9294,21.6592,21.7855,21.7317,21.7881,21.8782,21.9129,21.9411,21.9833,21.9411,21.9622,21.9833,21.9622,21.9411,21.948,21.9833,22.0457,22.1345,22.1748,22.2345,22.3055,22.2731,22.2213,22.1268,21.9455,21.8106,21.6277,21.5644,21.3926,21.164,20.9806,20.8184,20.5807,20.5257,20.5584,20.7365,20.9562,21.1626,21.3588,21.5034,21.5497,21.5266,21.5565,21.7096,21.9733,22.0628,22.3175,22.6294,22.855,22.9398,22.8486,22.8042,22.7247,22.6584,22.7503,22.8247,22.8287,22.7613,22.6899,22.7042,22.5753,22.5002,22.4677,22.4308,22.3747,22.3629,22.3629,22.36,22.4075,22.469,22.5435,22.6043,22.6814,22.687,22.6799,22.687,22.6527,22.5685,22.4794,22.4219,22.4422,22.3841,22.3478,22.3266,22.3125,22.2932,22.2932,22.2808,22.2612,22.2612,22.2612,22.2948,22.3831,22.5044,22.833,23.1381,23.3278,23.4891,23.482,23.5034,23.5034,23.5533,23.5319,23.5476,23.6348,23.6309,23.5723,23.5275,23.5348,23.5348,23.6071,23.5493,23.4987,23.6359,23.7804,23.8934,21.7371,21.6542,21.7579,21.7801,21.7603,21.8713,21.948,21.9411,21.9833,21.9833,21.9411,21.9833,21.9622,21.948,21.948,21.9622,22.0457,22.1275,22.2147,22.2596,22.2448,22.2189,22.1622,22.0469,21.9384,22.0111,21.9784,21.7597,21.4343,21.2301,20.9858,20.7119,20.5997,20.6292,20.7016,20.9082,21.1417,21.3111,21.4733,21.5266,21.5034,21.5497,21.7096,21.9234,22.0352,22.247,22.5868,22.7499,22.8068,22.8068,22.9027,22.7698,22.5469,22.469,22.5132,22.6257,22.6329,22.6115,22.6043,22.5686,22.5293,22.5293,22.4493,22.3935,22.3747,22.3509,22.3549,22.376,22.4195,22.4819,22.6222,22.6986,22.7112,22.704,22.687,22.6699,22.6108,22.5222,22.4722,22.4605,22.4335,22.3841,22.3699,22.3438,22.3247,22.3125,22.2737,22.2612,22.2612,22.2682,22.2823,22.3637,22.4902,22.7432,23.0295,23.2144,23.4249,23.4605,23.5034,23.5604,23.6389,23.6005,23.566,23.6348,23.6844,23.676,23.648,23.5421,23.5565,23.7009,23.672,23.5637,23.6143,23.7298,23.8526,21.814,21.7871,21.8494,21.8569,21.8366,21.9275,21.9622,21.9833,22.025,22.025,22.025,22.0042,21.9833,21.9622,21.948,21.9411,22.025,22.0868,22.1748,22.233,22.2611,22.2684,22.2401,22.1976,22.1339,22.148,22.1626,21.9585,21.6626,21.4262,21.1824,20.8209,20.8083,20.7739,20.7459,20.9711,21.1782,21.3006,21.4567,21.5034,21.5034,21.5497,21.6732,21.7665,21.999,22.2608,22.6007,22.7364,22.7369,22.7154,22.7058,22.616,22.4307,22.4243,22.4777,22.5364,22.5472,22.5472,22.5472,22.5472,22.5472,22.5472,22.5041,22.4493,22.3935,22.3629,22.3478,22.3902,22.4195,22.4748,22.6466,22.7353,22.7615,22.7377,22.7209,22.687,22.6527,22.5965,22.5365,22.5041,22.4748,22.4379,22.4122,22.3935,22.3629,22.3318,22.2932,22.2808,22.2808,22.2612,22.2823,22.3653,22.4782,22.6487,22.9159,23.1575,23.3563,23.4463,23.4962,23.5747,23.6247,23.6119,23.5731,23.6097,23.6412,23.6716,23.6769,23.5421,23.4771,23.5709,23.6143,23.5998,23.5998,23.6432,23.737,21.8771,21.9268,21.9268,21.9268,21.9268,21.9833,22.0042,22.0042,22.0594,22.0799,22.0594,22.025,22.0042,22.0042,21.948,21.9411,22.0042,22.0594,22.1477,22.2345,22.2932,22.3629,22.3864,22.3722,22.3342,22.2916,22.2226,22.0544,21.8204,21.6285,21.3734,21.0472,21.0205,20.9764,20.8438,21.0449,21.2102,21.2832,21.4095,21.4801,21.4801,21.5266,21.5796,21.6298,21.9558,22.3037,22.5738,22.6945,22.66,22.5683,22.5018,22.4499,22.406,22.4336,22.499,22.5507,22.5686,22.5794,22.5828,22.5828,22.5828,22.5651,22.5472,22.5041,22.4122,22.3935,22.3792,22.4024,22.4053,22.4859,22.6527,22.7377,22.7781,22.7873,22.7543,22.704,22.687,22.6628,22.6037,22.5651,22.5183,22.489,22.493,22.4493,22.4006,22.3629,22.3318,22.3125,22.2808,22.2612,22.3316,22.4302,22.5437,22.6912,22.9491,23.1504,23.3349,23.4391,23.482,23.5462,23.5577,23.5405,23.6024,23.6275,23.6299,23.6428,23.6865,23.5565,23.5421,23.4771,23.4698,23.5709,23.6287,23.5637,23.6071,21.9268,21.9268,21.9268,21.9268,21.9199,21.9833,22.0042,22.025,22.0594,22.0799,22.0799,22.018,22.025,22.0042,21.9831,21.9692,22.0042,22.0803,22.1345,22.2147,22.2737,22.3438,22.3935,22.3935,22.4095,22.4137,22.3345,22.2173,22.0426,21.8023,21.5351,21.2882,21.1784,21.0713,20.9619,21.1162,21.179,21.2346,21.3858,21.4567,21.4264,21.5034,21.5727,21.623,21.894,22.1641,22.342,22.4563,22.4573,22.3524,22.3597,22.3637,22.399,22.4384,22.5103,22.5792,22.6151,22.6291,22.6599,22.6527,22.6527,22.618,22.5828,22.5222,22.4677,22.4006,22.3841,22.4526,22.4219,22.5041,22.6456,22.7543,22.7946,22.8037,22.7781,22.7615,22.7449,22.6799,22.6283,22.6252,22.5722,22.5472,22.5293,22.493,22.4564,22.4006,22.3629,22.3318,22.3125,22.2808,22.3386,22.4781,22.6073,22.7408,22.9562,23.1693,23.3135,23.4748,23.5248,23.5434,23.5548,23.6168,23.6528,23.674,23.6832,23.7057,23.7009,23.7154,23.7154,23.6648,23.5926,23.6576,23.7009,23.5854,23.4987,21.8771,21.8771,21.8771,21.8771,21.8771,21.9622,22.0042,22.025,22.0594,22.1003,22.1275,22.0868,22.0457,22.0527,22.0947,22.0878,22.0667,22.1571,22.2046,22.2358,22.2808,22.3318,22.3747,22.3935,22.4308,22.4859,22.3676,22.272,22.1597,21.9623,21.6335,21.3399,21.352,21.2064,20.9562,21.1485,21.259,21.2414,21.3858,21.4567,21.4028,21.5034,21.5659,21.6617,21.8528,22.0454,22.1886,22.3102,22.3455,22.2536,22.2569,22.2878,22.3863,22.4172,22.4805,22.6115,22.6186,22.6497,22.6699,22.6897,22.6727,22.6456,22.6108,22.5757,22.5112,22.4635,22.4289,22.469,22.4477,22.5183,22.6527,22.7184,22.7687,22.8109,22.8109,22.7946,22.7873,22.7137,22.6527,22.6252,22.59,22.5472,22.5472,22.5293,22.493,22.4564,22.4006,22.3629,22.3247,22.3002,22.3105,22.4819,22.6318,22.8684,23.0982,23.2049,23.3464,23.5533,23.6362,23.5976,23.6344,23.7137,23.7203,23.7019,23.7392,23.7587,23.7515,23.7515,23.7731,23.7731,23.7731,23.737,23.6432,23.5421,23.4698,21.8555,21.8555,21.8555,21.8555,21.8771,21.9763,22.025,22.0388,22.0868,22.1477,22.1748,22.1275,22.0799,22.1142,22.1643,22.1853,22.1982,22.2402,22.2801,22.3048,22.3175,22.3355,22.3509,22.3747,22.4493,22.5293,22.4308,22.3106,22.2526,22.0729,21.7599,21.302,21.4748,21.3538,21.0141,21.2336,21.3246,21.2899,21.4095,21.4567,21.4264,21.5266,21.5888,21.6706,21.8753,21.9956,22.0619,22.2128,22.2476,22.1889,22.2147,22.2932,22.3792,22.4289,22.5032,22.6186,22.6426,22.6727,22.7137,22.7233,22.7161,22.704,22.6799,22.6283,22.5828,22.5183,22.4961,22.4919,22.4734,22.5255,22.6426,22.6915,22.7256,22.7946,22.836,22.836,22.8199,22.7543,22.687,22.6426,22.6005,22.5651,22.5472,22.5472,22.5293,22.4677,22.4308,22.4122,22.3747,22.3509,22.4307,22.561,22.7147,22.9748,23.1764,23.2663,23.422,23.6434,23.6905,23.663,23.6958,23.7563,23.7306,23.712,23.7562,23.7659,23.7731,23.7731,23.7731,23.7731,23.7515,23.7154,23.6143,23.506,23.4337,21.9268,21.9268,21.9268,21.9054,21.9199,22.018,22.0594,22.0799,22.1275,22.1948,22.2147,22.1477,22.1275,22.1477,22.1492,22.2122,22.323,22.2871,22.3212,22.4385,22.4302,22.3864,22.3002,22.3558,22.4493,22.5293,22.4859,22.4051,22.2823,22.1457,21.9274,21.5065,21.5422,21.4635,21.2094,21.2911,21.3791,21.3552,21.4332,21.4801,21.4801,21.5497,21.6116,21.6794,21.8615,22.004,22.063,22.185,22.213,22.1959,22.2861,22.353,22.4095,22.499,22.5865,22.6814,22.6825,22.7161,22.7873,22.8109,22.7873,22.7615,22.7449,22.7281,22.6283,22.5828,22.5472,22.5435,22.5073,22.5435,22.6426,22.6915,22.7256,22.8109,22.852,22.8837,22.868,22.8037,22.7449,22.687,22.6354,22.6076,22.5651,22.5472,22.5293,22.4859,22.4677,22.4493,22.4122,22.4289,22.5494,22.677,22.8284,23.0675,23.3021,23.3991,23.5047,23.6876,23.7567,23.7173,23.7419,23.7419,23.7306,23.7192,23.7392,23.7731,23.7731,23.7731,23.7731,23.7443,23.7154,23.6793,23.5998,23.5009,23.3997,21.8555,21.8555,21.8555,21.8555,21.8771,21.9411,22.025,22.0799,22.0663,22.1345,22.2147,22.1748,22.1477,22.1959,22.2529,22.2669,22.266,22.4063,22.531,22.6062,22.4513,22.3371,22.3196,22.3558,22.4677,22.5651,22.5041,22.3811,22.2072,22.0586,21.78,21.434,21.4996,21.4152,21.1861,21.3674,21.4499,21.4028,21.4801,21.5266,21.4966,21.5659,21.6725,21.7752,21.8891,21.9817,22.0667,22.1501,22.1906,22.2089,22.2471,22.3266,22.3953,22.5586,22.6971,22.7818,22.7615,22.7665,22.9264,22.8632,22.8109,22.7946,22.7687,22.7353,22.7112,22.6312,22.5933,22.5865,22.5507,22.5651,22.6527,22.6771,22.7449,22.852,22.8994,22.9223,22.915,22.852,22.7873,22.7281,22.6771,22.6252,22.59,22.5651,22.5472,22.5293,22.4859,22.4677,22.4748,22.4308,22.5444,22.6722,22.8731,23.0935,23.3686,23.5176,23.6272,23.6778,23.753,23.745,23.748,23.748,23.7552,23.7681,23.7562,23.7659,23.7659,23.7731,23.761,23.7249,23.6888,23.6331,23.5554,23.4614,23.3383,21.8555,21.8555,21.8555,21.8555,21.8771,21.9199,22.0042,22.0868,22.0663,22.1275,22.2485,22.2709,22.265,22.2931,22.3704,22.4195,22.4195,22.5108,22.5731,22.5498,22.409,22.3301,22.3196,22.3558,22.4493,22.5222,22.4614,22.3183,22.1355,21.9878,21.6864,21.3919,21.4538,21.4009,21.1721,21.4089,21.5497,21.4499,21.5266,21.5497,21.5266,21.6116,21.7171,21.827,21.8985,22.0042,22.1275,22.1748,22.2229,22.292,22.3316,22.369,22.4314,22.5701,22.6543,22.6814,22.6009,22.649,22.8542,22.8055,22.7621,22.7965,22.8018,22.7687,22.7543,22.7017,22.6556,22.6472,22.6222,22.6114,22.6915,22.7184,22.7543,22.8607,22.9223,22.9604,22.9377,22.915,22.852,22.7946,22.704,22.6354,22.6252,22.5828,22.5472,22.5472,22.5293,22.5112,22.5293,22.4859,22.5317,22.6995,22.8703,23.0811,23.3178,23.5016,23.5201,23.5159,23.6328,23.6815,23.7418,23.7707,23.7995,23.8093,23.7804,23.7659,23.7659,23.7683,23.7488,23.7364,23.6929,23.6079,23.4937,23.3864,23.2631,21.9268,21.9268,21.9268,21.9268,21.9199,21.9622,22.025,22.0799,22.1275,22.1948,22.2753,22.409,22.4513,22.4654,22.4724,22.6414,22.754,22.5639,22.409,22.3457,22.409,22.4005,22.2808,22.3629,22.4051,22.4024,22.3545,22.2476,22.073,21.9185,21.698,21.4648,21.5245,21.4445,21.2251,21.4611,21.5727,21.5727,21.5727,21.5727,21.5727,21.6343,21.724,21.827,21.8985,22.025,22.2415,22.2612,22.3245,22.4513,22.5118,22.5256,22.4947,22.5183,22.4542,22.3328,22.2563,22.3614,22.571,22.6033,22.6626,22.7405,22.8055,22.7766,22.7387,22.7315,22.7183,22.6999,22.6757,22.6934,22.7373,22.7593,22.7946,22.868,22.915,22.9531,22.9684,22.9835,22.9684,22.852,22.7543,22.6699,22.6252,22.6005,22.5651,22.5651,22.5472,22.5472,22.5472,22.5472,22.6186,22.7613,22.8715,23.0253,23.2585,23.4628,23.4009,23.3637,23.5253,23.6237,23.6599,23.7659,23.7876,23.761,23.7249,23.7827,23.7827,23.7581,23.7383,23.7272,23.7054,23.6634,23.4977,23.3162,23.2009,21.9268,21.9268,21.9268,21.9268,21.9268,21.948,22.0042,22.0799,22.1072,22.1748,22.2696,22.4231,22.4302,22.3597,22.4442,22.5569,22.5921,22.3175,22.2612,22.402,22.3919,22.3741,22.3629,22.4122,22.4179,22.3545,22.3859,22.2458,21.9754,21.8418,21.6606,21.4539,21.5098,21.5101,21.449,21.5541,21.6116,21.5727,21.5727,21.5727,21.5956,21.6569,21.7683,21.8701,21.9763,22.1072,22.2415,22.2612,22.3442,22.4977,22.4569,22.4872,22.5985,22.5044,22.4104,22.3758,22.3017,22.3583,22.535,22.5122,22.4772,22.5022,22.5628,22.6134,22.6698,22.6593,22.7002,22.7327,22.7086,22.687,22.7471,22.7801,22.8433,22.9223,22.9531,22.9684,23.0283,23.0283,22.9985,22.9386,22.8448,22.7781,22.7184,22.6771,22.6354,22.6354,22.618,22.6076,22.5828,22.5722,22.6043,22.7542,22.8327,22.9507,23.119,23.2542,23.227,23.2825,23.4286,23.474,23.5318,23.6888,23.7538,23.6982,23.7054,23.7705,23.7798,23.7473,23.7214,23.695,23.667,23.5943,23.427,23.2677,23.2095,21.9268,21.9199,21.8644,21.8089,21.7673,21.8439,21.9206,22.01,22.0793,22.1398,22.1852,22.3386,22.3175,22.1837,22.3143,22.3566,22.3355,22.1398,22.1821,22.406,22.3619,22.3438,22.3676,22.374,22.372,22.351,22.3131,22.1319,21.8785,21.7725,21.6318,21.4868,21.5336,21.5452,21.5153,21.614,21.6794,21.6411,21.6184,21.6184,21.6116,21.7086,21.8121,21.9342,22.0388,22.1477,22.2737,22.3371,22.4396,22.5772,22.5084,22.5681,22.7379,22.5294,22.3947,22.3735,22.3295,22.3907,22.5599,22.5089,22.4593,22.4782,22.4791,22.5241,22.5682,22.5615,22.6118,22.7132,22.6751,22.6154,22.6431,22.6305,22.6785,22.7636,22.809,22.8462,22.9042,22.9623,22.9701,22.9481,22.9248,22.868,22.7997,22.7256,22.687,22.687,22.6699,22.6354,22.6252,22.6005,22.5937,22.6757,22.765,22.8579,22.9825,23.0301,23.088,23.181,23.2787,23.3094,23.3617,23.4975,23.5989,23.5427,23.5572,23.6079,23.6169,23.5836,23.534,23.5288,23.5522,23.48,23.3343,23.276,23.2177,21.9129,21.9133,21.7603,21.6425,21.4828,21.698,21.8225,21.8911,22.0776,22.1233,22.0641,22.1908,22.1556,22.02,22.0893,22.1081,22.0845,22.0774,22.1622,22.3106,22.3438,22.3509,22.3368,22.2888,22.3254,22.4186,22.1985,21.9784,21.831,21.6947,21.578,21.4932,21.5963,21.5923,21.5383,21.6741,21.7531,21.7309,21.6794,21.65,21.6725,21.724,21.8408,21.9972,22.0663,22.1608,22.3266,22.4731,22.563,22.6132,22.6438,22.7237,22.8276,22.5437,22.3041,22.2249,22.2651,22.382,22.5061,22.4747,22.4744,22.5763,22.4892,22.4817,22.4517,22.4809,22.5548,22.6337,22.6249,22.5728,22.5022,22.4602,22.4492,22.5397,22.5766,22.6263,22.6606,22.8344,22.872,22.8522,22.9261,22.9326,22.8306,22.7425,22.704,22.704,22.687,22.6699,22.6599,22.6426,22.6076,22.6257,22.7149,22.8319,22.788,22.8335,22.8614,22.9388,23.0706,23.1227,23.1893,23.2631,23.3429,23.3936,23.4444,23.4675,23.4469,23.4261,23.4052,23.3775,23.4075,23.3421,23.1962,23.2327,23.2181,21.8371,21.8508,21.8364,21.7044,21.538,21.7457,21.8359,21.8772,21.9725,22.0052,22.0289,22.1098,22.0138,21.825,21.8151,21.8264,21.8222,21.9285,22.0444,22.1812,22.351,22.4122,22.3935,22.425,22.4474,22.3899,22.2298,22.0789,21.9606,21.8111,21.7038,21.6889,21.7524,21.7539,21.6911,21.8158,21.8408,21.7531,21.6794,21.6794,21.724,21.7683,21.9255,22.1504,22.1632,22.2006,22.3318,22.4053,22.4573,22.5203,22.5274,22.4361,22.208,22.0977,21.9094,21.631,21.6739,21.784,21.8929,21.8978,21.9095,21.9325,22.1716,22.2875,22.2895,22.4558,22.5811,22.5839,22.4884,22.5017,22.6046,22.5469,22.5472,22.6932,22.6414,22.6387,22.6585,22.7086,22.7513,22.7379,22.8479,22.882,22.8052,22.7748,22.7709,22.7709,22.7543,22.7281,22.7281,22.687,22.6699,22.6599,22.6814,22.7373,22.7593,22.7781,22.8199,22.8824,22.9055,22.9948,23.0483,23.1564,23.2425,23.2653,23.3743,23.4033,23.3907,23.4278,23.4357,23.3273,23.2617,23.1811,23.1011,23.1582,23.1655,21.7178,21.7583,21.6884,21.5566,21.4248,21.6046,21.7144,21.7354,21.8872,21.9672,21.9617,21.9029,21.7839,21.6137,21.7315,21.76,21.7491,21.8982,22.0362,22.1737,22.2959,22.3924,22.4095,22.383,22.3651,22.3675,22.1462,22.0215,22.0199,21.899,21.7987,21.7582,21.7737,21.7543,21.7312,21.8093,21.8644,21.819,21.7683,21.7683,21.8555,21.8555,21.9828,22.2057,22.273,22.3301,22.3959,22.476,22.5132,22.5222,22.3439,22.1691,22.0337,21.7949,21.601,21.4903,21.4937,21.5348,21.6245,21.6786,21.7044,21.6878,21.9059,22.0252,22.0168,22.2085,22.3298,22.2761,22.1726,22.1536,22.2776,22.2776,22.3422,22.5088,22.5132,22.5166,22.6088,22.6419,22.6473,22.6326,22.7482,22.8291,22.8023,22.7883,22.8055,22.8199,22.8109,22.7781,22.7615,22.7449,22.704,22.704,22.7209,22.7543,22.7781,22.8199,22.868,22.8994,22.915,22.9458,23.0131,23.0931,23.1368,23.1591,23.2173,23.261,23.3197,23.3127,23.3348,23.2617,23.1588,23.1429,23.1216,23.1494,23.1494,21.6046,21.5766,21.4846,21.3307,21.2258,21.4258,21.5224,21.5505,21.8546,21.9405,21.7923,21.6284,21.5254,21.5006,21.7134,21.7878,21.7457,21.92,22.0765,22.2045,22.233,22.3183,22.4036,22.2013,22.1826,22.2816,21.9812,21.9084,22.0503,21.9616,21.8667,21.7628,21.7205,21.7216,21.7244,21.7591,21.8302,21.9199,21.8771,21.9054,22.0251,21.9761,22.025,22.2612,22.3668,22.4448,22.4564,22.5672,22.6077,22.5218,22.117,21.9334,21.9978,21.5648,21.3532,21.5006,21.4275,21.4213,21.5147,21.6054,21.6175,21.6737,21.6811,21.7205,21.7524,21.8477,21.8788,21.8329,21.7965,21.7997,21.7268,21.8425,22.0007,22.1691,22.2123,22.2795,22.4097,22.5128,22.5413,22.4806,22.6534,22.7877,22.7651,22.77,22.7927,22.8448,22.881,22.8794,22.8253,22.7946,22.7543,22.7377,22.7709,22.8037,22.8199,22.8448,22.8994,22.9531,22.9835,23.0135,23.0283,23.0503,23.0576,23.0867,23.0867,23.1232,23.123,23.1222,23.1509,23.1722,23.1713,23.1694,23.1694,23.1828,23.1902,21.5294,21.5681,21.533,21.4276,21.3151,21.6014,21.7017,21.6823,21.8227,21.7145,21.4256,21.4935,21.5068,21.4654,21.5911,21.6154,21.5823,21.8979,22.0624,22.0694,22.2263,22.2975,22.2866,22.1866,22.1671,22.218,22.0738,22.0287,22.1216,21.9923,21.9127,21.8811,21.857,21.8524,21.863,21.8844,21.9261,21.9694,21.9833,22.0599,22.2339,22.0669,22.1222,22.3752,22.265,22.2709,22.4463,22.2262,22.0754,22.0597,21.771,21.4593,21.1906,20.9707,20.791,20.6388,20.5718,20.5609,20.5909,20.6734,20.7841,20.9378,21.1752,21.3709,21.4907,21.5395,21.5553,21.5558,21.684,21.8356,21.8994,21.865,21.8672,22.0214,22.0023,21.9938,22.0233,22.1615,22.2473,22.2765,22.5028,22.6475,22.6176,22.729,22.8579,22.9313,23.0393,23.0455,22.9284,22.868,22.852,22.8288,22.8199,22.836,22.868,22.8765,22.9005,22.9835,23.0062,22.9991,23.0284,23.0575,23.0648,23.0429,23.0718,23.0856,23.1076,23.1282,23.1411,23.1338,23.1327,23.1682,23.1948,23.2153,23.256,21.2216,21.2776,21.2776,21.2396,21.1943,21.3455,21.3975,21.3741,21.6085,21.5608,21.3155,21.2788,21.2393,21.1598,21.3654,21.3797,21.2764,21.6446,21.8424,21.8867,22.0438,22.1866,22.2904,22.2786,22.2414,22.2132,22.1045,22.0604,22.051,21.9139,21.849,21.871,21.8223,21.8307,21.8973,21.8721,21.9164,22.0318,22.0388,22.1082,22.2536,22.1562,22.1547,22.2878,22.1834,22.1454,22.1547,21.9122,21.7565,21.7114,21.3069,20.9953,20.8048,20.4871,20.2737,20.1781,20.1045,20.087,20.1061,20.1647,20.2941,20.4873,20.7912,20.9744,20.9581,21.02,21.0858,21.145,21.3364,21.4782,21.5144,21.5102,21.5692,21.7151,21.762,21.8108,21.8847,22.0032,22.0952,22.1611,22.3317,22.4579,22.4986,22.619,22.7441,22.8972,23.0131,23.0919,23.0693,23.0548,23.0257,22.9684,22.9078,22.8704,22.8135,22.8144,22.8158,22.817,22.8388,22.8673,22.8882,22.8948,22.8948,22.9021,22.9159,22.9296,22.9223,22.9567,22.97,22.9833,22.9833,23.0536,23.118,23.1657,23.1688,20.8968,20.9509,20.9509,20.9616,20.997,20.997,21.0077,21.0287,21.245,21.3002,21.1916,20.9984,20.8678,20.7845,21.0501,21.1147,21.0286,21.3301,21.5455,21.6656,21.7902,22.0024,22.2673,22.2558,22.2011,22.1292,22.0037,21.9161,21.8554,21.7694,21.7474,21.7758,21.7405,21.7693,21.8738,21.8277,21.8774,22.0785,22.0653,22.1135,22.2229,22.2029,22.1923,22.141,22.1622,22.0362,21.7849,21.6381,21.5134,21.3947,20.8432,20.5442,20.5592,20.0206,19.7386,19.7784,19.6646,19.6498,19.7484,19.7829,19.902,20.1462,20.4375,20.5011,20.2386,20.4241,20.6288,20.7463,20.915,20.9522,20.8976,21.0381,21.1712,21.2825,21.4374,21.6071,21.7329,21.8391,21.9416,22.0381,22.1479,22.3083,22.4538,22.5019,22.5907,22.7724,22.9117,23.0353,23.1586,23.2246,23.1669,23.0211,22.9407,22.8526,22.7363,22.7148,22.715,22.6122,22.6542,22.7098,22.7293,22.7425,22.7425,22.7132,22.7483,22.741,22.7205,22.7319,22.787,22.7944,22.8395,22.8813,22.9993,22.9748,22.94,20.9509,20.9794,20.9794,20.9794,20.997,20.997,21.1459,21.3302,0.0,0.0,0.0,20.5882,20.6492,20.6582,20.6779,20.7641,20.91,21.1722,21.3301,21.3427,21.5006,21.6727,21.8306,21.6119,21.5792,21.6727,21.5687,21.5431,21.588,21.5947,21.6361,21.7049,21.8083,21.834,21.7737,21.8377,21.962,22.0886,22.05,22.1571,22.4174,22.3774,22.3597,22.3393,22.2305,22.0545,21.8377,21.5086,21.2064,20.9281,20.5302,20.1542,19.8102,19.3857,19.0649,18.8592,18.6326,18.6453,18.9456,18.9961,19.2052,19.6449,19.8964,19.8308,19.3841,20.0139,20.4848,20.6214,20.767,20.828,20.8063,20.8161,20.8254,20.8237,20.8875,20.9993,21.1651,21.4568,21.664,21.7273,22.0254,22.2873,22.2978,22.414,22.5819,22.7233,22.8216,22.9482,23.1962,23.196,23.0564,22.8078,22.7144,22.6421,22.6199,22.6195,22.6403,22.5957,22.65,22.7189,22.7319,22.7502,22.7629,22.704,22.7879,22.7658,22.7755,22.7756,22.8559,22.832,22.8559,22.9016,22.9016,22.7435,22.621,20.5291,20.5971,20.5971,20.6068,0.0,20.6493,20.6992,20.7349,20.3419,20.0864,19.9732,20.0821,20.0254,19.8519,20.0108,20.213,20.4801,20.6824,20.9491,21.2441,21.2926,21.4425,21.6496,21.5936,21.5734,21.5734,21.5562,21.5081,21.4202,21.3608,21.3482,21.3651,21.4809,21.4882,21.4061,21.6838,21.888,22.0161,22.1925,22.3089,22.3738,22.4442,22.4413,22.3629,22.1737,0.0,0.0,0.0,0.0,0.0,0.0,0.0,0.0,0.0,0.0,18.1531,17.6738,17.4443,17.5388,17.5802,17.8212,18.3276,18.5304,18.3949,17.8583,18.6574,19.3075,19.6126,19.9299,20.194,20.3989,20.4119,20.3982,20.381,20.4799,20.5848,20.6889,20.992,21.2503,21.3651,21.6961,21.9992,22.1061,22.2712,22.4413,22.6178,22.7866,22.9232,22.9753,23.0248,23.0018,22.8197,22.6972,22.6094,22.5363,22.4766,22.4021,22.3332,22.2985,22.2845,22.3017,22.3257,22.3493,22.3651,22.3766,22.3953,22.3879,22.4102,22.4287,22.4102,22.4287,22.4396,22.4747,22.3764,22.3072,20.0708,20.1301,20.1301,20.1701,20.2101,20.1113,20.0037,19.9172,19.9172,19.8236,19.6718,19.6708,19.4295,19.0427,19.3006,19.6041,19.9238,20.1055,20.4988,21.0296,21.0371,21.1734,21.4244,21.5098,21.5098,21.4316,21.4563,21.3776,21.1934,21.0662,21.007,21.0173,21.0987,21.1241,21.1258,0.0,0.0,0.0,22.3271,22.4923,22.3301,22.5384,22.556,22.3085,22.2036,0.0,21.9153,21.3869,20.9855,20.746,20.2917,0.0,0.0,0.0,0.0,0.0,0.0,0.0,0.0,0.0,0.0,0.0,16.7675,16.5621,16.2742,17.0347,17.7873,18.3799,18.9559,19.4084,19.6979,19.7798,19.828,19.8714,20.0124,20.1657,20.3086,20.5794,20.8429,20.9995,21.3109,21.6163,21.8831,22.0615,22.2321,22.4437,22.7239,22.7963,22.6088,22.7669,22.8771,22.8348,22.6878,22.585,22.4416,22.271,22.142,22.0588,21.9333,21.8989,21.9291,21.955,21.9725,22.001,21.9713,21.9965,22.0068,22.0021,22.0392,22.0095,22.0095,21.9849,21.9303,21.9395,21.9784,19.9458,19.8857,19.8857,19.9008,19.8732,19.3472,19.2058,19.315,19.315,19.4533,19.6771,19.5387,19.2109,18.7738,18.8149,19.0117,19.3325,19.6314,19.9594,20.3166,20.5269,20.7105,20.8773,20.7474,20.7404,20.8417,20.7468,20.7077,20.738,20.616,20.6635,20.8757,20.9131,21.0377,21.2504,21.0893,21.1796,21.5364,22.2056,22.5488,22.5366,22.8582,22.7763,22.2375,22.5144,22.2652,21.3703,21.4626,21.1806,20.393,20.2205,19.9071,19.3559,18.3325,17.4284,0.0,15.7012,0.0,0.0,0.0,0.0,0.0,0.0,0.0,0.0,15.5601,16.3228,17.3767,18.3051,18.7397,18.4781,18.7023,18.9625,19.2064,19.2906,19.5529,20.1052,20.353,20.5564,20.7292,21.0064,21.3203,21.6302,21.759,21.9255,22.1993,22.4379,22.4637,22.2815,22.4511,22.5986,22.4556,22.4305,22.4261,22.3311,22.1192,21.9728,22.0262,21.9699,21.9862,21.9491,21.9898,22.0438,22.0438,22.014,22.0289,22.0393,22.0342,22.0438,21.9872,21.9917,21.8483,21.4762,21.4481,21.6063,19.478,19.3981,19.3254,19.012,18.5568,18.3016,18.3398,18.5665,18.4674,18.6021,18.8796,18.4487,17.9997,17.59,17.6738,17.9886,18.4865,18.8924,19.3855,19.924,20.1398,20.3036,20.4362,20.3575,20.3514,20.4169,20.3838,20.3423,20.3046,20.2869,20.3122,20.3632,20.4835,20.417,20.1965,20.4406,20.8899,21.5288,21.9678,22.3724,22.7288,22.923,22.8426,22.4734,22.4366,22.1713,21.6635,21.3956,20.9936,20.4495,20.2128,19.7399,18.9401,17.7338,16.6642,0.0,0.0,0.0,0.0,0.0,0.0,0.0,0.0,0.0,0.0,0.0,14.7368,15.6048,16.9775,17.7807,17.6942,17.8862,18.0229,18.0528,17.993,18.1718,18.7396,19.2177,19.5687,19.7477,20.3548,20.8569,21.0798,21.3621,21.6553,21.912,21.9693,21.944,21.9292,22.2435,22.4317,22.2691,22.2583,22.2583,22.2354,21.9069,21.6741,21.7036,21.5796,21.4572,21.4769,21.5056,21.5335,21.5516,21.5604,21.5767,21.5779,21.5949,21.6033,21.564,21.4604,21.2605,21.0067,21.0142,21.119,18.8614,18.7018,18.2501,17.7403,17.2065,17.1824,17.3439,17.645,17.5908,17.6979,17.8781,17.321,16.8422,16.4632,16.4411,16.811,17.4884,17.9545,18.669,19.5462,19.7106,19.8922,20.0752,20.0701,20.0576,20.0701,20.0948,20.0726,19.9947,19.9221,19.8433,19.7491,19.7952,19.5558,19.073,19.6748,20.469,21.4225,21.695,22.1555,22.8588,22.9842,22.8917,22.6212,22.3541,22.0888,21.7934,21.2606,20.8261,20.4884,19.9826,19.3154,18.4927,17.0209,0.0,0.0,0.0,0.0,0.0,0.0,0.0,0.0,0.0,12.1296,11.7192,0.0,13.36,0.0,15.6992,16.7467,16.81,16.9358,0.0,0.0,16.6904,16.7716,17.2643,17.8902,18.3977,18.688,19.4766,20.1445,20.4749,20.8635,21.2119,21.461,21.5163,21.5339,21.5529,22.0137,22.2917,22.0512,22.0325,22.0399,21.9289,21.6515,21.4401,21.3647,21.1527,20.9827,20.9639,20.9833,21.0093,21.0335,21.0499,21.0734,21.0965,21.0967,21.0891,20.999,20.8036,20.6381,20.6381,20.6381,20.6906,18.0614,17.6945,16.3652,15.9617,16.1879,16.048,16.1665,16.4839,16.765,16.897,16.8871,16.5399,16.2167,15.8698,15.308,0.0,16.2793,16.7611,17.7384,19.0829,19.1587,19.422,19.8405,19.8088,19.7851,19.7851,19.8015,19.8479,19.8669,19.4471,19.1819,19.1145,18.7521,18.4629,18.2829,18.8088,19.7295,20.9757,21.347,21.9678,22.8995,23.1188,22.9468,22.3689,22.399,22.0541,21.29,21.1305,20.8196,20.2997,19.3155,18.5472,18.0384,0.0,0.0,0.0,0.0,0.0,0.0,0.0,0.0,0.0,0.0,0.0,0.0,0.0,0.0,0.0,14.7831,0.0,15.5215,15.6328,0.0,0.0,0.0,15.6313,16.1331,16.6286,17.1841,17.832,0.0,0.0,19.9476,20.1903,20.3994,20.7441,21.2567,21.4813,21.1155,21.7441,22.093,21.6167,21.6894,21.6847,21.4323,21.3898,21.323,21.076,20.9714,20.8365,20.7122,20.7064,20.7369,20.7669,20.7743,20.7743,20.7743,20.7665,20.6981,20.4435,20.3668,20.3443,20.332,20.3257,20.3783,16.497,15.3261,14.7082,14.5276,14.6591,14.6189,14.8945,15.3867,15.5058,15.44,15.2328,15.0024,14.5632,13.9525,13.5183,0.0,0.0,0.0,16.2879,17.8838,18.1978,18.8239,19.6357,19.6453,19.6249,19.6041,19.6146,19.6351,19.6553,19.4827,18.5135,16.8082,0.0,0.0,17.0089,17.9761,19.1548,20.5042,21.0954,21.907,22.9799,23.0215,22.8002,22.2773,21.9238,21.4209,20.7765,20.6059,20.092,19.1686,18.5606,17.6959,0.0,0.0,0.0,0.0,0.0,0.0,0.0,0.0,0.0,0.0,0.0,10.798,10.533,0.0,0.0,0.0,13.0129,13.7265,14.146,14.4917,0.0,0.0,0.0,0.0,0.0,0.0,0.0,16.5563,17.6873,18.6767,19.3545,19.6567,19.9608,20.3694,20.5938,20.7298,20.7428,0.0,21.6032,21.4076,21.3676,21.3101,21.1646,20.9491,20.7651,20.622,20.5285,20.4139,20.2952,20.3475,20.4219,20.4429,20.4573,20.4706,20.4836,20.3245,20.1621,20.0588,20.0287,20.0287,20.0231,20.0231,20.0758,14.6473,0.0,0.0,0.0,0.0,13.0911,13.3804,13.8541,13.9439,13.8136,13.5284,13.4089,0.0,0.0,0.0,0.0,0.0,0.0,15.2118,16.5328,17.6497,18.4967,19.15,19.1845,19.1681,19.098,18.9035,18.7568,18.6085,18.4205,17.1584,14.9497,0.0,0.0,0.0,0.0,18.5269,19.9547,20.8095,21.7326,22.7621,22.8119,22.6394,22.2922,21.5886,20.9982,20.5292,19.9904,19.2509,18.2973,17.5611,0.0,0.0,0.0,0.0,0.0,0.0,0.0,0.0,0.0,0.0,0.0,0.0,0.0,0.0,0.0,0.0,0.0,0.0,0.0,12.9989,13.4979,13.5659,0.0,0.0,0.0,0.0,0.0,0.0,0.0,0.0,0.0,18.2082,18.8588,19.4744,0.0,0.0,20.3978,20.4527,20.9118,21.1558,20.925,20.8448,0.0,20.6124,20.3384,20.1609,20.2043,20.1499,20.0107,19.7016,19.6324,19.5929,19.4927,19.7064,19.7256,19.3787,19.0473,18.8561,18.8759,18.9013,18.9466,19.0069,19.085,19.1629,0.0,0.0,0.0,0.0,0.0,0.0,0.0,0.0,12.0531,12.0827,0.0,11.8944,0.0,0.0,0.0,0.0,12.0005,13.6962,0.0,0.0,17.6193,18.6273,18.1861,18.2719,18.2624,18.0916,17.4672,16.9261,16.4366,15.7346,0.0,0.0,0.0,0.0,0.0,0.0,17.7741,19.352,20.469,21.3847,22.1194,22.4212,22.5331,22.4214,21.5705,20.9354,20.5936,19.2886,18.3839,17.9741,16.2331,0.0,0.0,0.0,0.0,0.0,0.0,0.0,0.0,0.0,0.0,0.0,0.0,0.0,0.0,0.0,0.0,0.0,0.0,0.0,0.0,12.6982,0.0,0.0,0.0,0.0,0.0,0.0,0.0,0.0,0.0,0.0,16.328,17.6634,18.8442,19.3112,0.0,0.0,0.0,0.0,20.818,20.0577,20.0577,19.9981,19.5276,19.5732,19.7157,19.8738,0.0,0.0,18.9532,18.4578,18.0624,17.7614,18.3691,18.4468,17.0552,16.7036,16.6012,16.6012,16.7378,16.8211,16.9948,17.3267,17.5038,0.0,0.0,0.0,0.0,0.0,0.0,0.0,0.0,0.0,10.806,0.0,10.547,0.0,0.0,0.0,0.0,0.0,0.0,0.0,0.0,14.9918,15.9066,16.4499,16.7138,16.679,0.0,16.1663,15.0962,0.0,0.0,0.0,0.0,0.0,0.0,0.0,0.0,17.367,19.0637,20.3823,21.4663,22.3214,22.5289,22.5311,22.3347,21.7549,20.7619,19.2985,18.2997,17.3637,0.0,0.0,0.0,0.0,0.0,0.0,0.0,0.0,0.0,0.0,0.0,0.0,0.0,0.0,0.0,0.0,0.0,0.0,0.0,0.0,0.0,0.0,0.0,11.892,0.0,0.0,0.0,0.0,0.0,0.0,0.0,0.0,0.0,15.0663,16.4083,17.7463,18.7371,19.3511,19.8659,20.2877,0.0,0.0,0.0,0.0,0.0,0.0,0.0,19.1207,18.8442,18.3794,17.9254,17.5634,17.2997,17.1049,16.9963,0.0,0.0,15.3614,15.2751,15.4973,15.6065,15.6723,15.7898,16.0546,16.2013,16.3399,0.0,0.0,0.0,0.0,0.0,0.0,0.0,0.0,0.0,9.6066,9.3183,0.0,0.0,0.0,0.0,0.0,0.0,0.0,0.0,0.0,0.0,0.0,14.7367,15.0119,0.0,0.0,0.0,0.0,0.0,0.0,0.0,0.0,0.0,0.0,0.0,0.0,17.015,18.6498,20.1533,21.3385,22.1901,22.4012,22.412,22.2408,21.8017,20.7112,18.9195,0.0,0.0,0.0,0.0,0.0,0.0,0.0,0.0,0.0,0.0,0.0,0.0,0.0,0.0,0.0,0.0,0.0,0.0,0.0,0.0,0.0,0.0,0.0,0.0,0.0,10.9722,0.0,0.0,0.0,0.0,0.0,0.0,0.0,0.0,0.0,0.0,0.0,16.4036,17.6446,18.4796,19.2508,20.0452,20.2795,20.3999,0.0,0.0,0.0,0.0,0.0,0.0,0.0,0.0,0.0,0.0,0.0,0.0,0.0,0.0,14.8561,13.5928,13.5944,13.8258,13.9359,0.0,0.0,0.0,0.0,0.0,0.0,0.0,0.0,0.0,0.0,0.0,0.0,0.0,0.0,0.0,8.4799,0.0,0.0,8.2481,0.0,0.0,0.0,0.0,0.0,0.0,0.0,0.0,0.0,0.0,0.0,0.0,0.0,0.0,0.0,0.0,0.0,0.0,0.0,0.0,0.0,0.0,16.7063,18.0787,19.781,20.9819,21.6451,22.0379,22.2266,22.1596,21.6733,20.8127,19.5635,0.0,0.0,0.0,0.0,0.0,0.0,0.0,0.0,0.0,0.0,0.0,0.0,0.0,0.0,0.0,0.0,0.0,0.0,0.0,0.0,0.0,0.0,0.0,0.0,0.0,0.0,10.7158,11.3223,11.5715,0.0,0.0,0.0,0.0,0.0,0.0,0.0,0.0,0.0,16.0429,17.6932,18.9869,19.4998,19.6743,19.8284,19.9984,19.6099,19.3473,19.5103,19.6474,19.4091,0.0,0.0,0.0,0.0,0.0,0.0,0.0,0.0,0.0,0.0,0.0,0.0,0.0,0.0,0.0,0.0,0.0,0.0,0.0,0.0,0.0,0.0,0.0,0.0,0.0,0.0,0.0,0.0,0.0,0.0,0.0,0.0,0.0,0.0,0.0,0.0,0.0,0.0,0.0,0.0,0.0,0.0,0.0,0.0,0.0,0.0,0.0,0.0,0.0,0.0,0.0,0.0,0.0,0.0,16.4652,17.9558,19.8882,21.1385,21.6842,22.2035,22.3364,22.0081,21.4429,20.456,0.0,0.0,0.0,0.0,0.0,0.0,0.0,0.0,0.0,0.0,0.0,0.0,0.0,0.0,0.0,0.0,0.0,0.0,0.0,0.0,0.0,0.0,0.0,0.0,0.0,0.0,0.0,0.0,10.951,11.1654,11.0653,0.0,0.0,0.0,0.0,0.0,0.0,0.0,0.0,0.0,0.0,18.3039,19.5776,19.6918,19.6972,19.8371,19.6537,19.464,19.3786,19.6116,19.2147,17.5219,0.0,0.0,0.0,0.0,0.0,0.0,0.0,0.0,0.0,0.0,0.0,0.0,0.0,0.0,0.0,0.0,0.0,0.0,0.0,0.0,0.0,0.0,0.0,0.0,0.0,0.0,0.0,0.0,0.0,0.0,0.0,0.0,0.0,0.0,0.0,0.0,0.0,0.0,0.0,0.0,0.0,0.0,0.0,0.0,0.0,0.0,0.0,0.0,0.0,0.0,0.0,0.0,0.0,16.3003,17.7388,19.7611,21.0488,21.576,22.0739,22.1968,21.9148,21.2385,20.145,0.0,0.0,0.0,0.0,0.0,0.0,0.0,0.0,0.0,0.0,0.0,0.0,0.0,0.0,0.0,0.0,0.0,0.0,0.0,0.0,0.0,0.0,0.0,0.0,0.0,0.0,0.0,0.0,10.188,10.5564,10.6864,0.0,0.0,0.0,0.0,0.0,0.0,0.0,0.0,0.0,0.0,17.6595,19.0934,19.1427,0.0,0.0,19.286,19.0951,19.3034,19.8253,19.4452,17.2017,16.3239,0.0,0.0,0.0,0.0,0.0,0.0,0.0,0.0,0.0,0.0,0.0,0.0,0.0,0.0,0.0,0.0,0.0,0.0,0.0,0.0,0.0,0.0,0.0,0.0,0.0,0.0,0.0,0.0,0.0,0.0,0.0,0.0,0.0,0.0,0.0,0.0,0.0,0.0,0.0,0.0,0.0,0.0,0.0,0.0,0.0,0.0,0.0,0.0,0.0,0.0,0.0,0.0,0.0,17.4448,19.4586,20.7864,21.36,21.713,21.8718,21.8385,21.0284,19.851,0.0,0.0,0.0,0.0,0.0,0.0,0.0,0.0,0.0,0.0,0.0,0.0,0.0,0.0,0.0,0.0,0.0,0.0,0.0,0.0,0.0,0.0,0.0,0.0,0.0,0.0,0.0,0.0,0.0,0.0,0.0,0.0,0.0,0.0,0.0,0.0,0.0,0.0,0.0,0.0,0.0,17.0967,18.2643,18.2218,18.3598,0.0,18.6036,18.3276,19.0308,19.9994,19.7812,17.12,0.0,0.0,0.0,0.0,0.0,0.0,0.0,0.0,0.0,0.0,0.0,0.0,0.0,0.0,0.0,0.0,0.0,0.0,0.0,0.0,0.0,0.0,0.0,0.0,0.0,0.0,0.0,0.0,0.0,0.0,0.0,0.0,0.0,0.0,0.0,0.0,0.0,0.0,0.0,0.0,0.0,0.0,0.0,0.0,0.0,0.0,0.0,0.0,0.0,0.0,0.0,0.0,0.0,0.0,17.1472,19.2921,20.674,21.2048,21.5133,21.6711,21.6963,20.6097,0.0,0.0,0.0,0.0,0.0,0.0,0.0,0.0,0.0,0.0,0.0,0.0,0.0,0.0,0.0,0.0,0.0,0.0,0.0,0.0,0.0,0.0,0.0,0.0,0.0,0.0,0.0,7.8452,0.0,0.0,0.0,0.0,0.0,0.0,0.0,0.0,0.0,0.0,0.0,0.0,0.0,0.0,17.0314,18.4229,18.0372,17.7614,0.0,0.0,17.4246,16.8774,18.0371,18.0591,0.0,0.0,0.0,0.0,0.0,0.0,0.0,0.0,0.0,0.0,0.0,0.0,0.0,0.0,0.0,0.0,0.0,0.0,0.0,0.0,0.0,0.0,0.0,0.0,0.0,0.0,0.0,0.0,0.0,0.0,0.0,0.0,0.0,0.0,0.0,0.0,0.0,0.0,0.0,0.0,0.0,0.0,0.0,0.0,0.0,0.0,0.0,0.0,0.0,0.0,0.0,0.0,0.0,0.0,15.4492,16.9267,18.8515,20.2192,20.9557,21.3268,21.4721,21.4091,20.3956,19.1648,0.0,0.0,0.0,0.0,0.0,0.0,0.0,0.0,0.0,0.0,0.0,0.0,0.0,0.0,0.0,0.0,0.0,0.0,0.0,0.0,0.0,0.0,0.0,0.0,0.0,0.0,0.0,0.0,0.0,0.0,0.0,0.0,0.0,0.0,0.0,0.0,0.0,0.0,0.0,0.0,0.0,0.0,17.8435,16.957,0.0,0.0,0.0,16.7854,16.4291,0.0,0.0,0.0,0.0,0.0,0.0,0.0,0.0,0.0,0.0,0.0,0.0,0.0,0.0,0.0,0.0,0.0,0.0,0.0,0.0,0.0,0.0,0.0,0.0,0.0,0.0,0.0,0.0,0.0,0.0,0.0,0.0,0.0,0.0,0.0,0.0,0.0,0.0,0.0,0.0,0.0,0.0,0.0,0.0,0.0,0.0,0.0,0.0,0.0,0.0,0.0,0.0,0.0,0.0,0.0,0.0,0.0,16.6774,18.312,19.6486,20.6481,21.0889,21.2123,20.9997,20.2644,19.0952,0.0,0.0,0.0,0.0,0.0,0.0,0.0,0.0,0.0,0.0,0.0,0.0,0.0,0.0,0.0,0.0,0.0,0.0,0.0,0.0,0.0,0.0,0.0,0.0,0.0,0.0,0.0,0.0,0.0,0.0,0.0,0.0,0.0,0.0,0.0,0.0,0.0,0.0,0.0,0.0,0.0,15.4262,17.0058,15.5766,14.4057,0.0,0.0,16.0317,16.5455,17.154,0.0,0.0,0.0,0.0,0.0,0.0,0.0,0.0,0.0,0.0,0.0,0.0,0.0,0.0,0.0,0.0,0.0,0.0,0.0,0.0,0.0,0.0,0.0,0.0,0.0,0.0,0.0,0.0,0.0,0.0,0.0,0.0,0.0,0.0,0.0,0.0,0.0,0.0,0.0,0.0,0.0,0.0,0.0,0.0,0.0,0.0,0.0,0.0,0.0,0.0,0.0,0.0,0.0,0.0,0.0,0.0,16.2365,18.0615,19.4642,20.3816,20.5715,20.6726,20.7289,19.9401,18.815,0.0,0.0,0.0,0.0,0.0,0.0,0.0,0.0,0.0,0.0,0.0,0.0,0.0,0.0,0.0,0.0,0.0,0.0,0.0,0.0,0.0,0.0,0.0,0.0,0.0,0.0,0.0,0.0,0.0,0.0,0.0,0.0,0.0,0.0,0.0,0.0,0.0,0.0,0.0,0.0,0.0,14.919,16.9269,15.2009,0.0,0.0,0.0,0.0,14.4993,14.1536,0.0,0.0,0.0,0.0,0.0,0.0,0.0,0.0,0.0,0.0,0.0,0.0,0.0,0.0,0.0,0.0,0.0,0.0,0.0,0.0,0.0,0.0,0.0,0.0,0.0,0.0,0.0,0.0,0.0,0.0,0.0,0.0,0.0,0.0,0.0,0.0,0.0,0.0,0.0,0.0,0.0,0.0,0.0,0.0,0.0,0.0,0.0,0.0,0.0,0.0,0.0,0.0,0.0,0.0,0.0,0.0,16.1562,17.4877,18.8661,20.2962,20.3748,20.4429,20.5322,19.8448,18.6992,0.0,0.0,0.0,0.0,0.0,0.0,0.0,0.0,0.0,0.0,0.0,0.0,0.0,0.0,0.0,0.0,0.0,0.0,0.0,0.0,0.0,0.0,0.0,0.0,0.0,0.0,0.0,0.0,0.0,0.0,0.0,0.0,0.0,0.0,0.0,0.0,0.0,0.0,0.0,0.0,12.9881,13.5074,15.2001,0.0,0.0,0.0,0.0,0.0,0.0,13.3965,12.7496,0.0,0.0,0.0,0.0,0.0,0.0,0.0,0.0,0.0,0.0,0.0,0.0,0.0,0.0,0.0,0.0,0.0,0.0,0.0,0.0,0.0,0.0,0.0,0.0,0.0,0.0,0.0,0.0,0.0,0.0,0.0,0.0,0.0,0.0,0.0,0.0,0.0,0.0,0.0,0.0,0.0,0.0,0.0,0.0,0.0,0.0,0.0,0.0,0.0,0.0,0.0,0.0,0.0,0.0,0.0,15.988,16.7972,18.1458,20.0661,20.1881,20.2688,20.3292,19.7316,18.5477,16.7549,0.0,0.0,0.0,0.0,0.0,0.0,0.0,0.0,0.0,0.0,0.0,0.0,0.0,0.0,0.0,0.0,0.0,0.0,0.0,0.0,0.0,0.0,0.0,0.0,0.0,0.0,0.0,0.0,0.0,0.0,0.0,0.0,0.0,0.0,0.0,0.0,0.0,0.0,0.0,11.5434,11.933,0.0,0.0,0.0,0.0,0.0,0.0,0.0,0.0,12.2397,0.0,0.0,0.0,0.0,0.0,0.0,0.0,0.0,0.0,0.0,0.0,0.0,0.0,0.0,0.0,0.0,0.0,0.0,0.0,0.0,0.0,0.0,0.0,0.0,0.0,0.0,0.0,0.0,0.0,0.0,0.0,0.0,0.0,0.0,0.0,0.0,0.0,0.0,0.0,0.0,0.0,0.0,0.0,0.0,0.0,0.0,0.0,0.0,0.0,0.0,0.0,0.0,0.0,0.0,0.0,0.0,16.1238,17.6227,19.1205,19.6552,19.9009,19.8956,19.2445,18.0089,16.1594,0.0,0.0,0.0,0.0,0.0,0.0,0.0,0.0,0.0,0.0,0.0,0.0,0.0,0.0,0.0,0.0,0.0,0.0,0.0,0.0,0.0,0.0,0.0,0.0,0.0,0.0,0.0,0.0,0.0,0.0,0.0,0.0,0.0,0.0,0.0,0.0,0.0,0.0,9.117,9.9512,0.0,0.0,0.0,0.0,0.0,0.0,0.0,0.0,10.8583,0.0,0.0,0.0,0.0,0.0,0.0,0.0,0.0,0.0,0.0,0.0,0.0,0.0,0.0,0.0,0.0,0.0,0.0,0.0,0.0,0.0,0.0,0.0,0.0,0.0,0.0,0.0,0.0,0.0,0.0,0.0,0.0,0.0,0.0,0.0,0.0,0.0,0.0,0.0,0.0,0.0,0.0,0.0,0.0,0.0,0.0,0.0,0.0,0.0,0.0,0.0,0.0,0.0,0.0,0.0,0.0,0.0,0.0,17.2123,18.7967,19.442,19.7819,19.7848,18.5199,17.1584,0.0,0.0,0.0,0.0,0.0,0.0,0.0,0.0,0.0,0.0,0.0,0.0,0.0,0.0,0.0,0.0,0.0,0.0,0.0,0.0,0.0,0.0,0.0,0.0,0.0,0.0,0.0,0.0,0.0,0.0,0.0,0.0,0.0,0.0,0.0,0.0,0.0,0.0,0.0,0.0,0.0,0.0,0.0,0.0,0.0,0.0,0.0,0.0,0.0,0.0,0.0,0.0,0.0,0.0,0.0,0.0,0.0,0.0,0.0,0.0,0.0,0.0,0.0,0.0,0.0,0.0,0.0,0.0,0.0,0.0,0.0,0.0,0.0,0.0,0.0,0.0,0.0,0.0,0.0,0.0,0.0,0.0,0.0,0.0,0.0,0.0,0.0,0.0,0.0,0.0,0.0,0.0,0.0,0.0,0.0,0.0,0.0,0.0,0.0,0.0,0.0,0.0,0.0,0.0,0.0,0.0,0.0,0.0,16.7679,18.3516,19.2396,19.7334,19.8209,17.8733,16.2641,0.0,0.0,0.0,0.0,0.0,0.0,0.0,0.0,0.0,0.0,0.0,0.0,0.0,0.0,0.0,0.0,0.0,0.0,0.0,0.0,0.0,0.0,0.0,0.0,0.0,0.0,0.0,0.0,0.0,0.0,0.0,0.0,0.0,0.0,0.0,0.0,0.0,0.0,0.0,0.0,0.0,0.0,0.0,0.0,0.0,0.0,0.0,0.0,10.7578,0.0,0.0,0.0,0.0,0.0,0.0,0.0,0.0,0.0,0.0,0.0,0.0,0.0,0.0,0.0,0.0,0.0,0.0,0.0,0.0,0.0,0.0,0.0,0.0,0.0,0.0,0.0,0.0,0.0,0.0,0.0,0.0,0.0,0.0,0.0,0.0,0.0,0.0,0.0,0.0,0.0,0.0,0.0,0.0,0.0,0.0,0.0,0.0,0.0,0.0,0.0,0.0,0.0,0.0,0.0,0.0,0.0,0.0,0.0,16.1856,17.2329,18.8625,19.7039,19.644,17.5271,15.4723,0.0,0.0,0.0,0.0,0.0,0.0,0.0,0.0,0.0,0.0,0.0,0.0,0.0,0.0,0.0,0.0,0.0,0.0,0.0,0.0,0.0,0.0,0.0,0.0,0.0,0.0,0.0,0.0,0.0,0.0,0.0,0.0,0.0,0.0,0.0,0.0,0.0,0.0,0.0,0.0,0.0,0.0,0.0,0.0,0.0,0.0,0.0,0.0,0.0,0.0,0.0,0.0,0.0,0.0,0.0,0.0,0.0,0.0,0.0,0.0,0.0,0.0,0.0,0.0,0.0,0.0,0.0,0.0,0.0,0.0,0.0,0.0,0.0,0.0,0.0,0.0,0.0,0.0,0.0,0.0,0.0,0.0,0.0,0.0,0.0,0.0,0.0,0.0,0.0,0.0,0.0,0.0,0.0,0.0,0.0,0.0,0.0,0.0,0.0,0.0,0.0,0.0,0.0,0.0,0.0,0.0,0.0,0.0,15.1901,16.6275,18.1075,18.4266,17.4877,15.6871,14.1183,0.0,0.0,0.0,0.0,0.0,0.0,0.0,0.0,0.0,0.0,0.0,0.0,0.0,0.0,0.0,0.0,0.0,0.0,0.0,0.0,0.0,0.0,0.0,0.0,0.0,0.0,0.0,0.0,0.0,0.0,0.0,0.0,0.0,0.0,0.0,0.0,0.0,0.0,0.0,0.0,0.0,0.0,0.0,0.0,0.0,0.0,0.0,0.0,0.0,0.0,0.0,0.0,0.0,0.0,0.0,0.0,0.0,0.0,0.0,0.0,0.0,0.0,0.0,0.0,0.0,0.0,0.0,0.0,0.0,0.0,0.0,0.0,0.0,0.0,0.0,0.0,0.0,0.0,0.0,0.0,0.0,0.0,0.0,0.0,0.0,0.0,0.0,0.0,0.0,0.0,0.0,0.0,0.0,0.0,0.0,0.0,0.0,0.0,0.0,0.0,0.0,0.0,0.0,0.0,0.0,0.0,0.0,0.0,0.0,15.6115,16.62,16.5173,15.237,13.9607,12.7641,0.0,0.0,0.0,0.0,0.0,0.0,0.0,0.0,0.0,0.0,0.0,0.0,0.0,0.0,0.0,0.0,0.0,0.0,0.0,0.0,0.0,0.0,0.0,0.0,0.0,0.0,0.0,0.0,0.0,0.0,0.0,0.0,0.0,0.0,0.0,0.0,0.0,0.0,0.0,0.0,0.0,0.0,0.0,0.0,0.0,0.0,0.0,0.0,0.0,0.0,0.0,0.0,0.0,0.0,0.0,0.0,0.0,0.0,0.0,0.0,0.0,0.0,0.0,0.0,0.0,0.0,0.0,0.0,0.0,0.0,0.0,0.0,0.0,0.0,0.0,0.0,0.0,0.0,0.0,0.0,0.0,0.0,0.0,0.0,0.0,0.0,0.0,0.0,0.0,0.0,0.0,0.0,0.0,0.0,0.0,0.0,0.0,0.0,0.0,0.0,0.0,0.0,0.0,0.0,0.0,0.0,0.0,0.0,0.0,13.8095,14.0275,13.952,13.5443,12.8221,11.555,0.0,0.0,0.0,0.0,0.0,0.0,0.0,0.0,0.0,0.0,0.0,0.0,0.0,0.0,0.0,0.0,0.0,0.0,0.0,0.0,0.0,0.0,0.0,0.0,0.0,0.0,0.0,0.0,0.0,0.0,0.0,0.0,0.0,0.0,0.0,0.0,0.0,0.0,0.0,0.0,0.0,0.0,0.0,0.0,0.0,0.0,0.0,0.0,0.0,0.0,0.0,0.0,0.0,0.0,0.0,0.0,0.0,0.0,0.0,0.0,0.0,0.0,0.0,0.0,0.0,0.0,0.0,0.0,0.0,0.0,0.0,0.0,0.0,0.0,0.0,0.0,0.0,0.0,0.0,0.0,0.0,0.0,0.0,0.0,0.0,0.0,0.0,0.0,0.0,0.0,0.0,0.0,0.0,0.0,0.0,0.0,0.0,0.0,0.0,0.0,0.0,0.0,0.0,0.0,0.0,0.0,0.0,0.0,0.0,11.0773,11.5074,11.6911,11.5657,10.9109,10.1568,9.3335,0.0,0.0,0.0,0.0,0.0,0.0,0.0,0.0,0.0,0.0,0.0,0.0,0.0,0.0,0.0,0.0,0.0,0.0,0.0,0.0,0.0,0.0,0.0,0.0,0.0,0.0,0.0,0.0,0.0,0.0,0.0,0.0,0.0,0.0,0.0,0.0,0.0,0.0,0.0,0.0,0.0,0.0,0.0,0.0,0.0,0.0,0.0,0.0,0.0,0.0,0.0,0.0,0.0,0.0,0.0,0.0,0.0,0.0,0.0,0.0,0.0,0.0,0.0,0.0,0.0,0.0,0.0,0.0,0.0,0.0,0.0,0.0,0.0,0.0,0.0,0.0,0.0,0.0,0.0,0.0,0.0,0.0,0.0,0.0,0.0,0.0,0.0,0.0,0.0,0.0,0.0,0.0,0.0,0.0,0.0,0.0,0.0,0.0,0.0,0.0,0.0,0.0,0.0,0.0,0.0,0.0,0.0,0.0,9.5696,10.0586,10.2481,10.0697,9.5847,9.1011,0.0,0.0,0.0,0.0,0.0,0.0,0.0,0.0,0.0,0.0,0.0,0.0,0.0,0.0,0.0,0.0,0.0,0.0,0.0,0.0,0.0,0.0,0.0,0.0,0.0,0.0,0.0,0.0,0.0,0.0,0.0,0.0,0.0,0.0,0.0,0.0,0.0,0.0,0.0,0.0,0.0,0.0,0.0,0.0,0.0,0.0,0.0,0.0,0.0,0.0,0.0,0.0,0.0,0.0,0.0,0.0,0.0,0.0,0.0,0.0,0.0,0.0,0.0,0.0,0.0,0.0,0.0,0.0,0.0,0.0,0.0,0.0,0.0,0.0,0.0,0.0,0.0,0.0,0.0,0.0,0.0,0.0,0.0,0.0,0.0,0.0,0.0,0.0,0.0,0.0,0.0,0.0,0.0,0.0,0.0,0.0,0.0,0.0,0.0,0.0,0.0,0.0,0.0,0.0,0.0,0.0,0.0,0.0,8.7473,9.667,9.8719,9.7345,9.2708,9.0879,8.4666,0.0,0.0,0.0,0.0,0.0,0.0,0.0,0.0,0.0,0.0,0.0,0.0,0.0,0.0,0.0,0.0,0.0,0.0,0.0,0.0,0.0,0.0,0.0,0.0,0.0,0.0,0.0,0.0,0.0,0.0,0.0,0.0,0.0,0.0,0.0,0.0,0.0,0.0,0.0,0.0,0.0,0.0,0.0,0.0,0.0,0.0,0.0,0.0,0.0,0.0,0.0,0.0,0.0,0.0,0.0,0.0,0.0,0.0,0.0,0.0,0.0,0.0,0.0,0.0,0.0,0.0,0.0,0.0,0.0,0.0,0.0,0.0,0.0,0.0,0.0,0.0,0.0,0.0,0.0,0.0,0.0,0.0,0.0,0.0,0.0,0.0,0.0,0.0,0.0,0.0,0.0,0.0,0.0,0.0,0.0,0.0,0.0,0.0,0.0,0.0,0.0,0.0,0.0,0.0,0.0,0.0,0.0,0.0,0.0,8.5415,0.0,8.9006,0.0,8.5819,8.1892,0.0,0.0,0.0,0.0,0.0,0.0,0.0,0.0,0.0,0.0,0.0,0.0,0.0,0.0,0.0,0.0,0.0,0.0,0.0,0.0,0.0,0.0,0.0,0.0,0.0,0.0,0.0,0.0,0.0,0.0,0.0,0.0,0.0,0.0,0.0,0.0,0.0,0.0,0.0,0.0,0.0,0.0,0.0,0.0,0.0,0.0,0.0,0.0,0.0,0.0,0.0,0.0,0.0,0.0,0.0,0.0,0.0,0.0,0.0,0.0,0.0,0.0,0.0,0.0,0.0,0.0,0.0,0.0,0.0,0.0,0.0,0.0,0.0,0.0,0.0,0.0,0.0,0.0,0.0,0.0,0.0,0.0,0.0,0.0,0.0,0.0,0.0,0.0,0.0,0.0,0.0,0.0,0.0,0.0,0.0,0.0,0.0,0.0,0.0,0.0,0.0,0.0,0.0,0.0,0.0,0.0,0.0,0.0,0.0,8.1474,8.1538,8.3344,0.0,8.1982,7.926,0.0,0.0,0.0,0.0,0.0,0.0,0.0,0.0,0.0,0.0,0.0,0.0,0.0,0.0,0.0,0.0,0.0,0.0,0.0,0.0,0.0,0.0,0.0,0.0,0.0,0.0,0.0,0.0,0.0,0.0,0.0,0.0,0.0,0.0,0.0,0.0,0.0,0.0,0.0,0.0,0.0,0.0,0.0,0.0,0.0,0.0,0.0,0.0,0.0,0.0,0.0,0.0,0.0,0.0,0.0,0.0,0.0,0.0,0.0,0.0,0.0,0.0,0.0,0.0,0.0,0.0,0.0,0.0,0.0,0.0,0.0,0.0,0.0,0.0,0.0,0.0,0.0,0.0,0.0,0.0,0.0,0.0,0.0,0.0,0.0,0.0,0.0,0.0,0.0,0.0,0.0,0.0,0.0,0.0,0.0,0.0,0.0,0.0,0.0,0.0,0.0,0.0,0.0,0.0,0.0,0.0,0.0,0.0,0.0,0.0,8.1398,8.056,8.2151,7.912,7.6691,0.0,0.0,0.0,0.0,0.0,0.0,0.0,0.0,0.0,0.0,0.0,0.0,0.0,0.0,0.0,0.0,0.0,0.0,0.0,0.0,0.0,0.0,0.0,0.0,0.0,0.0,0.0,0.0,0.0,0.0,0.0,0.0,0.0,0.0,0.0,0.0,0.0,0.0,0.0,0.0,0.0,0.0,0.0,0.0,0.0,0.0,0.0,0.0,0.0,0.0,0.0,0.0,0.0,0.0,0.0,0.0,0.0,0.0,0.0,0.0,0.0,0.0,0.0,0.0,0.0,0.0,0.0,0.0,0.0,0.0,0.0,0.0,0.0,0.0,0.0,0.0,0.0,0.0,0.0,0.0,0.0,0.0,0.0,0.0,0.0,0.0,0.0,0.0,0.0,0.0,0.0,0.0,0.0,0.0,0.0,0.0,0.0,0.0,0.0,0.0,0.0,0.0,0.0,0.0,0.0,0.0,0.0,0.0,0.0,0.0,7.8106,0.0,7.8741,7.6842,7.4944,7.3274,0.0,0.0,0.0,0.0,0.0,0.0,0.0,0.0,0.0,0.0,0.0,0.0,0.0,0.0,0.0,0.0,0.0,0.0,0.0,0.0,0.0,0.0,0.0,0.0,0.0,0.0,0.0,0.0,0.0,0.0,0.0,0.0,0.0,0.0,0.0,0.0,0.0,0.0,0.0,0.0,0.0,0.0,0.0,0.0,0.0,0.0,0.0,0.0,0.0,0.0,0.0,0.0,0.0,0.0,0.0,0.0,0.0,0.0,0.0,0.0,0.0,0.0,0.0,0.0,0.0,0.0,0.0,0.0,0.0,0.0,0.0,0.0,0.0,0.0,0.0,0.0,0.0,0.0,0.0,0.0,0.0,0.0,0.0,0.0,0.0,0.0,0.0,0.0,0.0,0.0,0.0,0.0,0.0,0.0,0.0,0.0,0.0,0.0,0.0,0.0,0.0,0.0,0.0,0.0,0.0,0.0,0.0,0.0,0.0,0.0,0.0,7.4411,7.3501,7.2513,0.0,0.0,0.0,0.0,0.0,0.0,0.0,0.0,0.0,0.0,0.0,0.0,0.0,0.0,0.0,0.0,0.0,0.0,0.0,0.0,0.0,0.0,0.0,0.0,0.0,0.0,0.0,0.0,0.0,0.0,0.0,0.0,0.0,0.0,0.0,0.0,0.0,0.0,0.0,0.0,0.0,0.0,0.0,0.0,0.0,0.0,0.0,0.0,0.0,0.0,0.0,0.0,0.0,0.0,0.0,0.0,0.0,0.0,0.0,0.0,0.0,0.0,0.0,0.0,0.0,0.0,0.0,0.0,0.0,0.0,0.0,0.0,0.0,0.0,0.0,0.0,0.0,0.0,0.0,0.0,0.0,0.0,0.0,0.0,0.0,0.0,0.0,0.0,0.0,0.0,0.0,0.0,0.0,0.0,0.0,0.0,0.0,0.0,0.0,0.0,0.0,0.0,0.0,0.0,0.0,0.0,0.0,0.0,0.0,0.0,0.0,6.6394,6.9391,6.9542,0.0,6.9317,0.0,0.0,0.0,0.0,0.0,0.0,0.0,0.0,0.0,0.0,0.0,0.0,0.0,0.0,0.0,0.0,0.0,0.0,0.0,0.0,0.0,0.0,0.0,0.0,0.0,0.0,0.0,0.0,0.0,0.0,0.0,0.0,0.0,0.0,0.0,0.0,0.0,0.0,0.0,0.0,0.0,0.0,0.0,0.0,0.0,0.0,0.0,0.0,0.0,0.0,0.0,0.0,0.0,0.0,0.0,0.0,0.0,0.0,0.0,0.0,0.0,0.0,0.0,0.0,0.0,0.0,0.0,0.0,0.0,0.0,0.0,0.0,0.0,0.0,0.0,0.0,0.0,0.0,0.0,0.0,0.0,0.0,0.0,0.0,0.0,0.0,0.0,0.0,0.0,0.0,0.0,0.0,0.0,0.0,0.0,0.0,0.0,0.0,0.0,0.0,0.0,0.0,0.0,0.0,0.0,0.0,0.0,0.0,0.0,0.0,0.0,0.0,6.6085,6.6091,6.6034,0.0,0.0,0.0,0.0,0.0,0.0,0.0,0.0,0.0,0.0,0.0,0.0,0.0,0.0,0.0,0.0,0.0,0.0,0.0,0.0,0.0,0.0,0.0,0.0,0.0,0.0,0.0,0.0,0.0,0.0,0.0,0.0,0.0,0.0,0.0,0.0,0.0,0.0,0.0,0.0,0.0,0.0,0.0,0.0,0.0,0.0,0.0,0.0,0.0,0.0,0.0,0.0,0.0,0.0,0.0,0.0,0.0,0.0,0.0,0.0,0.0,0.0,0.0,0.0,0.0,0.0,0.0,0.0,0.0,0.0,0.0,0.0,0.0,0.0,0.0,0.0,0.0,0.0,0.0,0.0,0.0,0.0,0.0,0.0,0.0,0.0,0.0,0.0,0.0,0.0,0.0,0.0,0.0,0.0,0.0,0.0,0.0,0.0,0.0,0.0,0.0,0.0,0.0,0.0,0.0,0.0,0.0,0.0,0.0,0.0,6.261,6.264,6.2578,6.228,6.1538,0.0,0.0,0.0,0.0,0.0,0.0,0.0,0.0,0.0,0.0,0.0,0.0,0.0,0.0,0.0,0.0,0.0,0.0,0.0,0.0,0.0,0.0,0.0,0.0,0.0,0.0,0.0,0.0,0.0,0.0,0.0,0.0,0.0,0.0,0.0,0.0,0.0,0.0,0.0,0.0,0.0,0.0,0.0,0.0,0.0,0.0,0.0,0.0,0.0,0.0,0.0,0.0,0.0,0.0,0.0,0.0,0.0,0.0,0.0,0.0,0.0,0.0,0.0,0.0,0.0,0.0,0.0,0.0,0.0,0.0,0.0,0.0,0.0,0.0,0.0,0.0,0.0,0.0,0.0,0.0,0.0,0.0,0.0,0.0,0.0,0.0,0.0,0.0,0.0,0.0,0.0,0.0,0.0,0.0,0.0,0.0,0.0,0.0,0.0,0.0,0.0,0.0,0.0,0.0,0.0,0.0,0.0,0.0,0.0,0.0,0.0,0.0,0.0,0.0,5.7122,0.0,0.0,0.0,0.0,0.0,0.0,0.0,0.0,0.0,0.0,0.0,0.0,0.0,0.0,0.0,0.0,0.0,0.0,0.0,0.0,0.0,0.0,0.0,0.0,0.0,0.0,0.0,0.0,0.0,0.0,0.0,0.0,0.0,0.0,0.0,0.0,0.0,0.0,0.0,0.0,0.0,0.0,0.0,0.0,0.0,0.0,0.0,0.0,0.0,0.0,0.0,0.0,0.0,0.0,0.0,0.0,0.0,0.0,0.0,0.0,0.0,0.0,0.0,0.0,0.0,0.0,0.0,0.0,0.0,0.0,0.0,0.0,0.0,0.0,0.0,0.0,0.0,0.0,0.0,0.0,0.0,0.0,0.0,0.0,0.0,0.0,0.0,0.0,0.0,0.0,0.0,0.0,0.0,0.0,0.0,0.0,0.0,0.0,0.0,0.0,0.0,0.0,0.0,0.0,0.0,0.0,0.0,0.0,0.0,0.0,0.0,0.0,0.0,0.0,0.0,0.0,0.0,0.0,0.0,0.0,0.0,0.0,0.0,0.0,0.0,0.0,0.0,0.0,0.0,0.0,0.0,0.0,0.0,0.0,0.0,0.0,0.0,0.0,0.0,0.0,0.0,0.0,0.0,0.0,0.0,0.0,0.0,0.0,0.0,0.0,0.0,0.0,0.0,0.0,0.0,0.0,0.0,0.0,0.0,0.0,0.0,0.0,0.0,0.0,0.0,0.0,0.0,0.0,0.0,0.0,0.0,0.0,0.0,0.0,0.0,0.0,0.0,0.0,0.0,0.0,0.0,0.0,0.0,0.0,0.0,0.0,0.0,0.0,0.0,0.0,0.0,0.0,0.0,0.0,0.0,0.0,0.0,0.0,0.0,0.0,0.0,0.0,0.0,0.0,0.0,0.0,0.0,0.0,0.0,0.0,0.0,0.0,0.0,0.0,0.0,0.0,0.0,0.0,0.0,0.0,0.0,0.0,0.0,0.0,0.0,0.0,0.0,0.0,0.0,0.0,0.0,0.0,0.0,0.0,0.0,0.0,0.0,0.0,0.0,0.0,0.0,0.0,0.0,0.0,0.0,0.0,0.0,0.0,0.0,0.0,0.0,0.0,0.0,0.0,0.0,0.0,0.0,0.0,0.0,0.0,0.0,0.0,0.0,0.0,0.0,0.0,0.0,0.0,0.0,0.0,0.0,0.0,0.0,0.0,0.0,0.0,0.0,0.0,0.0,0.0,0.0,0.0,0.0,0.0,0.0,0.0,0.0,0.0,0.0,0.0,0.0,0.0,0.0,0.0,0.0,0.0,0.0,0.0,0.0,0.0,0.0,0.0,0.0,0.0,0.0,0.0,0.0,0.0,0.0,0.0,0.0,0.0,0.0,0.0,0.0,0.0,0.0,0.0,0.0,0.0,0.0,0.0,0.0,0.0,0.0,0.0,0.0,0.0,0.0,0.0,0.0,0.0,0.0,0.0,0.0,0.0,0.0,0.0,0.0,0.0,0.0,0.0,0.0,0.0,0.0,0.0,0.0,0.0,0.0,0.0,0.0,0.0,0.0,0.0,0.0,0.0,0.0,0.0,0.0,0.0,0.0,0.0,0.0,0.0,0.0,0.0,0.0,0.0,0.0,0.0,0.0,0.0,0.0,0.0,0.0,0.0,0.0,0.0,0.0,0.0,0.0,0.0,0.0,0.0,0.0,0.0,0.0,0.0,0.0,0.0,0.0,0.0,0.0,0.0,0.0,0.0,0.0,0.0,0.0,0.0,0.0,0.0,0.0,0.0,0.0,0.0,0.0,0.0,0.0,0.0,0.0,0.0,0.0,0.0,0.0,0.0,0.0,0.0,0.0,0.0,0.0,0.0,0.0,0.0,0.0,0.0,0.0,0.0,0.0,0.0,0.0,0.0,0.0,0.0,0.0,0.0,0.0,0.0,0.0,0.0,0.0,0.0,0.0,0.0,0.0,0.0,0.0,0.0,0.0,0.0,0.0,0.0,0.0,0.0,0.0,0.0,0.0,0.0,0.0,0.0,0.0,0.0,0.0,0.0,0.0,0.0,0.0,0.0,0.0,0.0,0.0,0.0,0.0,0.0,0.0,0.0,0.0,0.0,0.0,0.0,0.0,0.0,0.0,0.0,0.0,0.0,0.0,0.0,0.0,0.0,0.0,0.0,0.0,0.0,0.0,0.0,0.0,0.0,0.0,0.0,0.0,0.0,0.0,0.0,0.0,0.0,0.0,0.0,0.0,0.0,0.0,0.0,0.0,0.0,0.0,0.0,0.0,0.0,0.0,0.0,0.0,0.0,0.0,0.0,0.0,0.0,0.0,0.0,0.0,0.0,0.0,0.0,0.0,0.0,0.0,0.0,0.0,0.0,0.0,0.0,0.0,0.0,0.0,0.0,0.0,0.0,0.0,0.0,0.0,0.0,0.0,0.0,0.0,0.0,0.0,0.0,0.0,0.0,0.0,0.0,0.0,0.0,0.0,0.0,0.0,0.0,0.0,0.0,0.0,0.0,0.0,0.0,0.0,0.0,0.0,0.0,0.0,0.0,0.0,0.0,0.0,0.0,0.0,0.0,0.0,0.0,0.0,0.0,0.0,0.0,0.0,0.0,0.0,0.0,0.0,0.0,0.0,0.0,0.0,0.0,0.0,0.0,0.0,0.0,0.0,0.0,0.0,0.0,0.0,0.0,0.0,0.0,0.0,0.0,0.0,0.0,0.0,0.0,0.0,0.0,0.0,0.0,0.0,0.0,0.0,0.0,0.0,0.0,0.0,0.0,0.0,0.0,0.0,0.0,0.0,0.0,0.0,0.0,0.0,0.0,0.0,0.0,0.0,0.0,0.0,0.0,0.0,0.0,0.0,0.0,0.0,0.0,0.0,0.0,0.0,0.0,0.0,0.0,0.0,0.0,0.0,0.0,0.0,0.0,0.0,0.0,0.0,0.0,0.0,0.0,0.0,0.0,0.0,0.0,0.0,0.0,0.0,0.0,0.0,0.0,0.0,0.0,0.0,0.0,0.0,0.0,0.0,0.0,0.0,0.0,0.0,0.0,0.0,0.0,0.0,0.0,0.0,0.0,0.0,0.0,0.0,0.0,0.0,0.0,0.0,0.0,0.0,0.0,0.0,0.0,0.0,0.0,0.0,0.0,0.0,0.0,0.0,0.0,0.0,0.0,0.0,0.0,0.0,0.0,0.0,0.0,0.0,0.0,0.0,0.0,0.0,0.0,0.0,0.0,0.0,0.0,0.0,0.0,0.0,0.0,0.0,0.0,0.0,0.0,0.0,0.0,0.0,0.0,0.0,0.0,0.0,0.0,0.0,0.0,0.0,0.0,0.0,0.0,0.0,0.0,0.0,0.0,0.0,0.0,0.0,0.0,0.0,0.0,0.0,0.0,0.0,0.0,0.0,0.0,0.0,0.0,0.0,0.0,0.0,0.0,0.0,0.0,0.0,0.0,0.0,0.0,0.0,0.0,0.0,0.0,0.0,0.0,0.0,0.0,0.0,0.0,0.0,0.0,0.0,0.0,0.0,0.0,0.0,0.0,0.0,0.0,0.0,0.0,0.0,0.0,0.0,0.0,0.0,0.0,0.0,0.0,0.0,0.0,0.0,0.0,0.0,0.0,0.0,0.0,0.0,0.0,0.0,0.0,0.0,0.0,0.0,0.0,0.0,0.0,0.0,0.0,0.0,0.0,0.0,0.0,0.0,0.0,0.0,0.0,0.0,0.0,0.0,0.0,0.0,0.0,0.0,0.0,0.0,0.0,0.0,0.0,0.0,0.0,0.0,0.0,0.0,0.0,0.0,0.0,0.0,0.0,0.0,0.0,0.0,0.0,0.0,0.0,0.0,0.0,0.0,0.0,0.0,0.0,0.0,0.0,0.0,0.0,0.0,0.0,0.0,0.0,0.0,0.0,0.0,0.0,0.0,0.0,0.0,0.0,0.0,0.0,0.0,0.0,0.0,0.0,0.0,0.0,0.0,0.0,0.0,0.0,0.0,0.0,0.0,0.0,0.0,0.0,0.0,0.0,0.0,0.0,0.0,0.0,0.0,0.0,0.0,0.0,0.0,0.0,0.0,0.0,0.0,0.0,0.0,0.0,0.0,0.0,0.0,0.0,0.0,0.0,0.0,0.0,0.0,0.0,0.0,0.0,0.0,0.0,0.0,0.0,0.0,0.0,0.0,0.0,0.0,0.0,0.0,0.0,0.0,0.0,0.0,0.0,0.0,0.0,0.0,0.0,0.0,0.0,0.0,0.0,0.0,0.0,0.0,0.0,0.0,0.0,0.0,0.0,0.0,0.0,0.0,0.0,0.0,0.0,0.0,0.0,0.0,0.0,0.0,0.0,0.0,0.0]}],[{"header":{"parameterUnit":"kt","parameterCategory":2,"dx":1,"dy":1,"la1":29.587661999999998,"la2":31.0,"lo1":-88.76705300000003,"lo2":-86.6583820000003,"nx":115,"ny":88,"refTime":"2022-10-19T06:00:00:Z","depth":0,"parameterNumber":2,"parameterNumberName":"V-component_of_WINDS"},"data":[9.642,9.5957,9.5957,9.5957,9.5988,9.5988,9.5957,9.5957,9.5833,9.3966,9.167,9.1053,9.026,8.8219,8.6795,8.7461,9.0349,9.2184,9.4006,9.5961,9.8397,9.9588,10.0847,10.1834,10.3639,10.4242,10.5217,10.6158,10.753,10.6158,10.5688,10.7096,10.6158,10.5217,10.5217,10.4746,10.3803,10.1911,10.0961,10.001,9.8103,9.7594,9.7115,9.5677,9.4235,9.3271,9.1851,9.0398,8.9941,8.9941,8.9941,8.9941,8.9941,8.9941,8.9941,8.9941,8.9941,8.9941,8.9998,9.014,8.8622,8.6476,8.501,8.3592,8.2557,8.2065,8.2065,8.2065,8.2557,8.3539,8.4983,8.5472,8.6964,8.8941,8.9941,8.9941,8.9941,8.9941,8.9941,8.9941,8.9941,8.9941,8.9941,8.9941,8.9941,8.9941,8.9941,8.9941,8.9941,8.9969,8.9998,8.9025,8.7563,8.6887,8.6777,8.4676,8.3494,8.3649,8.3649,8.3442,8.3104,8.2585,8.2637,8.3026,8.3234,8.339,8.3468,8.3675,8.5046,8.682,8.7555,8.8447,9.0221,9.1135,8.9637,9.7377,9.7346,9.7346,9.7346,9.7346,9.7346,9.7316,9.7223,9.6698,9.5107,9.3648,9.2654,9.1264,8.9207,8.7452,8.8448,8.9443,9.1838,9.3144,9.5527,9.8865,10.0089,10.1316,10.2175,10.3069,10.4242,10.4746,10.6627,10.7998,10.6627,10.6158,10.753,10.6593,10.5217,10.5217,10.4746,10.3803,10.1911,10.1436,10.001,9.9026,9.8549,9.7594,9.6126,9.4235,9.3271,9.1822,9.0883,8.9941,8.9941,8.9941,8.9941,8.9941,8.9941,8.9941,8.9941,8.9941,8.9941,8.9969,9.0083,8.8538,8.6531,8.5553,8.4083,8.2557,8.2065,8.2065,8.2065,8.2065,8.3048,8.4983,8.5961,8.7452,8.8941,8.9455,8.9941,8.9941,8.9941,8.9941,8.9941,8.9941,8.9941,8.9941,8.9941,8.9941,8.9941,8.9941,8.9941,8.9941,8.9969,9.014,8.925,8.795,8.716,8.6886,8.528,8.3649,8.3857,8.4143,8.3883,8.3597,8.3312,8.3312,8.3623,8.3805,8.3935,8.4039,8.3883,8.5177,8.6556,8.7323,8.8165,8.9887,9.0249,8.9334,9.7624,9.7624,9.7624,9.7624,9.7624,9.7624,9.7624,9.7563,9.7316,9.6285,9.5291,9.3127,9.1706,9.0028,8.6727,8.6528,8.851,9.0964,9.2922,9.562,9.8833,10.0653,10.1947,10.3311,10.3606,10.4242,10.5217,10.5688,10.7096,10.6627,10.6158,10.7096,10.6158,10.5217,10.5217,10.5217,10.3803,10.1911,10.2352,10.093,9.9026,9.8071,9.7115,9.6126,9.4235,9.3271,9.1851,9.0883,8.9941,8.9941,8.9941,8.9941,8.9941,8.9941,8.9941,8.9941,8.9941,8.9941,8.9941,8.9969,8.8997,8.748,8.6015,8.5607,8.4083,8.2065,8.2065,8.2065,8.2065,8.3101,8.5036,8.5961,8.7452,8.8941,8.9455,8.9941,8.9941,8.9941,8.9941,8.9941,8.9941,8.9941,8.9941,8.9941,8.9941,8.9941,8.9941,8.9941,8.9941,8.9941,9.0282,9.0078,8.8559,8.7321,8.6879,8.5625,8.4438,8.4273,8.4662,8.4454,8.4247,8.4039,8.3909,8.4143,8.4325,8.4429,8.4221,8.3987,8.4699,8.5813,8.6793,8.7772,8.883,8.9276,8.7757,9.7624,9.7624,9.7624,9.7624,9.7624,9.7624,9.7624,9.7624,9.7624,9.7285,9.6347,9.3901,9.2445,9.0969,8.7595,8.623,8.8159,9.0205,9.2666,9.5775,9.9907,10.1769,10.2513,10.3846,10.4514,10.4614,10.5117,10.5587,10.6825,10.696,10.7096,10.7096,10.5688,10.5217,10.5217,10.5217,10.4275,10.2352,10.2352,10.1878,9.9503,9.8549,9.7115,9.5197,9.4235,9.2788,9.1367,9.0426,8.9941,8.9941,8.9941,8.9941,8.9941,8.9941,8.9941,8.9941,8.9941,8.9941,8.9941,8.9941,8.8969,8.7967,8.6476,8.6069,8.5117,8.3101,8.2065,8.2065,8.2583,8.3619,8.509,8.5526,8.6449,8.7939,8.8969,8.9455,8.9941,8.9941,8.9941,8.9941,8.9941,8.9941,8.9941,8.9941,8.9941,8.9941,8.9941,8.9941,8.9941,8.9969,9.0282,8.9964,8.8614,8.7702,8.7447,8.613,8.5013,8.4844,8.5026,8.4974,8.487,8.474,8.4662,8.4766,8.4662,8.448,8.4273,8.4039,8.4334,8.4835,8.5838,8.6285,8.7366,8.742,8.6018,9.7624,9.7624,9.7624,9.7624,9.7624,9.7624,9.7624,9.7624,9.7624,9.7563,9.7023,9.5944,9.3967,9.1795,8.8669,8.7267,8.7824,8.9498,9.1439,9.4721,9.9469,10.1866,10.2612,10.378,10.405,10.3648,10.415,10.5587,10.5885,10.719,10.7564,10.7096,10.5688,10.5217,10.5217,10.5217,10.4746,10.3298,10.2825,10.1878,9.9979,9.9026,9.7563,9.4716,9.3753,9.2788,9.0883,8.9941,8.9941,8.9941,8.9941,8.9941,8.9941,8.9941,8.9941,8.9941,8.9941,8.9941,8.9941,8.9941,8.8941,8.7967,8.6476,8.6042,8.509,8.3592,8.2583,8.2065,8.2065,8.3101,8.4083,8.501,8.5961,8.7452,8.8454,8.9455,8.9941,8.9941,8.9941,8.9941,8.9941,8.9941,8.9941,8.9941,8.9941,8.9941,8.9941,8.9941,8.9941,8.9941,9.0055,9.0083,8.8338,8.7512,8.692,8.645,8.5431,8.5234,8.5389,8.5363,8.5234,8.526,8.5363,8.5208,8.5026,8.4714,8.4221,8.3857,8.3572,8.402,8.4415,8.5359,8.5333,8.4887,8.4231,9.7624,9.7624,9.7624,9.7624,9.7624,9.7624,9.7624,9.7624,9.7624,9.7146,9.6096,9.5283,9.3967,9.1731,8.8956,8.758,8.7665,8.8899,9.0939,9.424,9.8023,10.0474,10.2219,10.3021,10.3355,10.3222,10.3719,10.4982,10.7109,10.8518,10.7998,10.7028,10.6627,10.6158,10.5217,10.5217,10.4746,10.4242,10.2825,10.1878,10.0454,9.9026,9.7594,9.5197,9.4235,9.2788,9.1367,9.0398,8.9941,8.9941,8.9941,8.9941,8.9941,8.9941,8.9941,8.9941,8.9941,8.9941,8.9941,8.9941,8.9512,8.9053,8.7019,8.6531,8.5036,8.3619,8.2583,8.2065,8.2065,8.2557,8.3048,8.403,8.5499,8.6449,8.7939,8.8941,8.9455,8.9941,8.9941,8.9941,8.9941,8.9941,8.9941,8.9941,8.9941,8.9941,8.9941,8.9941,8.9941,9.0026,8.9597,8.9681,8.8338,8.7041,8.7054,8.6609,8.5561,8.5415,8.5545,8.5545,8.5545,8.5493,8.5467,8.5389,8.5286,8.4662,8.4013,8.3649,8.3364,8.3182,8.3576,8.4205,8.4283,8.3785,8.339,9.7501,9.7346,9.7532,9.7501,9.7377,9.7532,9.7624,9.7624,9.7624,9.7115,9.6126,9.5162,9.4146,9.1546,8.9043,8.8035,8.7673,8.8825,9.0991,9.3517,9.6543,9.9405,10.1556,10.256,10.2526,10.2887,10.3481,10.4772,10.7058,10.7829,10.7314,10.7224,10.6655,10.5956,10.5587,10.5217,10.5217,10.4746,10.3298,10.1878,10.0961,9.9503,9.7594,9.5677,9.4205,9.3271,9.1851,9.0398,8.9941,8.9941,8.9941,8.9941,8.9941,8.9941,8.9941,8.9941,8.9941,8.9941,8.9941,8.9941,8.9969,8.954,8.7507,8.6476,8.6097,8.4627,8.2065,8.2065,8.2065,8.2065,8.2557,8.3539,8.4983,8.5961,8.7452,8.8454,8.9941,8.9941,8.9941,8.9941,8.9941,8.9941,8.9941,8.9941,8.9941,8.9941,8.9941,8.9941,8.9998,8.9738,8.9363,8.9042,8.8148,8.7,8.6503,8.6315,8.5718,8.5545,8.5545,8.5545,8.5545,8.5545,8.5545,8.5493,8.5389,8.4792,8.3987,8.3546,8.326,8.3052,8.3,8.3156,8.3312,8.352,8.3649,9.7223,9.676,9.7316,9.7223,9.6821,9.7377,9.7624,9.7624,9.7624,9.7594,9.7146,9.6096,9.4566,9.3005,9.0529,8.8352,8.7475,8.8352,9.0356,9.2804,9.5,9.8338,10.0492,10.1337,10.1537,10.1863,10.2913,10.4063,10.6268,10.6509,10.646,10.6373,10.6645,10.6087,10.552,10.5217,10.5217,10.4746,10.377,10.2352,10.1436,9.9979,9.8071,9.6157,9.4686,9.3271,9.2306,9.0883,9.0426,8.9941,8.9941,8.9941,8.9941,8.9941,8.9941,8.9941,8.9941,8.9941,8.9941,8.9941,8.9969,8.9483,8.7452,8.7729,8.7322,8.4707,8.2609,8.2065,8.2065,8.2065,8.2065,8.3048,8.4003,8.5472,8.6964,8.7967,8.9427,8.9941,8.9941,8.9941,8.9941,8.9913,8.9884,8.9941,8.9941,8.9941,9.0398,8.9941,8.9998,8.9766,8.9098,8.8774,8.7872,8.6793,8.6289,8.6044,8.5901,8.5545,8.5545,8.5545,8.5545,8.5545,8.5545,8.5519,8.5493,8.5052,8.4247,8.3675,8.326,8.3156,8.3104,8.3338,8.3935,8.4039,8.4247,9.6821,9.6636,9.6852,9.6791,9.6729,9.7316,9.7624,9.7624,9.7624,9.7146,9.6157,9.5677,9.4716,9.2612,9.0789,8.9597,8.7578,8.872,9.002,9.0847,9.3517,9.6551,9.842,9.9437,10.0486,10.0902,10.201,10.3625,10.6691,10.5753,10.6657,10.7909,10.7829,10.6747,10.6323,10.5654,10.5217,10.4746,10.4242,10.2825,10.1404,10.0454,9.8549,9.7115,9.5677,9.4205,9.3271,9.1851,9.0883,9.0426,8.9941,8.9941,8.9455,8.9455,8.8969,8.9427,8.9427,8.8969,8.9941,8.9941,8.9941,8.9941,8.7452,8.7074,8.6695,8.4163,8.2583,8.2065,8.2065,8.2065,8.2065,8.2065,8.3048,8.4493,8.5988,8.6964,8.8454,8.9941,8.9941,8.9941,8.9941,8.9827,8.9799,8.9856,9.0426,9.0398,9.0398,9.0426,8.9969,8.9363,8.8746,8.8393,8.7348,8.6633,8.6183,8.5614,8.5389,8.5519,8.5545,8.5545,8.5545,8.5545,8.5545,8.5545,8.4955,8.416,8.3922,8.3831,8.339,8.3182,8.3338,8.3857,8.4454,8.4792,8.5078,9.6327,9.5957,9.6389,9.6451,9.6389,9.7223,9.7624,9.7624,9.7624,9.7146,9.6157,9.5167,9.3753,9.2218,9.0963,8.9514,8.7828,8.7922,8.8889,8.9685,9.1702,9.4544,9.702,9.8805,9.9441,10.1101,10.1201,10.3337,10.6967,10.6071,10.785,10.9847,10.8723,10.7725,10.7212,10.6023,10.5217,10.4746,10.4242,10.2825,10.1404,10.0454,9.9503,9.7594,9.6157,9.4686,9.3723,9.2306,9.0883,8.9941,8.9941,8.9941,8.9941,8.8454,8.8454,8.8426,8.8454,8.8482,8.9512,8.9941,8.9941,8.9427,8.7939,8.6504,8.6586,8.4083,8.2557,8.2065,8.2065,8.2065,8.2065,8.2065,8.2557,8.3513,8.4983,8.6476,8.7452,8.8941,8.9941,8.9941,8.9941,8.9856,8.9827,8.9913,9.0883,9.1367,9.0883,9.0398,8.9969,8.9391,8.8282,8.7434,8.6906,8.6051,8.5624,8.5666,8.5493,8.5727,8.5779,8.5623,8.5545,8.5545,8.5467,8.5234,8.4262,8.3237,8.3087,8.2979,8.3019,8.2993,8.3935,8.4429,8.487,8.526,8.5519,9.5771,9.4783,9.5988,9.6173,9.5802,9.7038,9.7624,9.7624,9.7624,9.7624,9.7146,9.4686,9.3723,9.3242,9.0825,8.8828,8.7424,8.7397,8.7884,8.8716,9.002,9.3637,9.6142,9.8112,9.9299,10.1999,10.2195,10.3213,10.7484,10.6036,10.7291,10.914,10.9529,10.8725,10.8199,10.6317,10.5184,10.5217,10.5217,10.3331,10.1911,10.1436,9.9534,9.8071,9.6636,9.5197,9.3783,9.2877,9.157,9.0627,9.0112,9.0112,8.9568,8.8538,8.7452,8.7424,8.7452,8.8538,8.9653,8.9998,8.9941,8.9455,8.7452,8.6476,8.6069,8.4573,8.2065,8.2065,8.1573,8.1573,8.2065,8.2065,8.2557,8.3022,8.4493,8.5961,8.7452,8.8941,8.9455,8.9941,8.9941,8.9941,8.9941,9.0398,9.1338,9.1367,9.0883,9.0455,9.0026,8.8846,8.7215,8.6608,8.6285,8.5361,8.5326,8.5286,8.5675,8.5987,8.6013,8.5701,8.5545,8.5545,8.5286,8.4896,8.4006,8.3288,8.2756,8.2173,8.1742,8.1818,8.3164,8.4284,8.5234,8.5545,8.5545,9.5836,9.469,9.5524,9.574,9.5771,9.7038,9.7624,9.7624,9.7624,9.7624,9.7594,9.4686,9.3723,9.2759,9.1367,8.8941,8.7939,8.7452,8.7939,8.823,8.9315,9.1849,9.4879,9.6927,9.8917,10.101,10.1735,10.2654,10.6084,10.5033,10.6732,10.8574,10.9521,10.8828,10.8339,10.6249,10.5217,10.5217,10.4746,10.3803,10.1911,10.1436,10.001,9.8103,9.7115,9.5677,9.4294,9.3655,9.2345,9.097,9.051,9.0538,8.9391,8.819,8.6992,8.6937,8.6964,8.7535,8.911,9.0055,8.9941,8.9941,8.7452,8.6476,8.5499,8.3539,8.2065,8.2065,8.1081,8.0613,8.0613,8.0095,8.0588,8.2091,8.3539,8.5472,8.6964,8.8941,8.9455,8.9941,8.9941,8.9941,9.0398,9.1367,9.1851,9.0883,9.0398,9.0426,8.954,8.8273,8.7106,8.6113,8.5363,8.4961,8.5,8.5467,8.5883,8.6117,8.5987,8.5675,8.5545,8.5545,8.5363,8.4568,8.3546,8.275,8.2036,8.0615,8.0226,8.0521,8.1961,8.3393,8.4314,8.5597,8.5597,9.5337,9.4258,9.5185,9.5555,9.5648,9.7038,9.7624,9.7624,9.7624,9.7624,9.7594,9.5677,9.4205,9.3242,9.1367,8.9913,8.7967,8.7452,8.748,8.78,8.8603,9.1241,9.3847,9.6861,9.8706,10.0971,10.1834,10.2654,10.4724,10.517,10.6593,10.7903,10.9438,10.9415,10.8725,10.7298,10.5755,10.5554,10.4746,10.3803,10.1911,10.1436,10.001,9.8103,9.7624,9.6157,9.4324,9.4376,9.3182,9.1313,9.0823,9.0276,8.9644,8.7185,8.6476,8.6449,8.6449,8.7019,8.8594,8.9025,8.9455,8.8941,8.7939,8.6476,8.5961,8.452,8.3075,8.2065,8.1573,8.0588,8.012,7.9601,7.9132,8.0639,8.2609,8.452,8.6476,8.8454,8.9941,8.9941,8.9941,8.9941,9.0911,9.1851,9.1367,9.0426,9.0426,9.0426,8.9512,8.8218,8.675,8.6094,8.5046,8.4725,8.474,8.5389,8.6065,8.6013,8.5909,8.5701,8.5545,8.5545,8.5467,8.4288,8.3699,8.2136,8.1035,7.9396,7.905,7.9905,8.1406,8.2674,8.3827,8.5136,8.5623,9.5485,9.364,9.4999,9.5555,9.5679,9.7038,9.7624,9.7624,9.7624,9.7624,9.7624,9.6157,9.5167,9.3723,9.2306,9.0398,8.7967,8.6449,8.6964,8.7452,8.7856,9.0083,9.316,9.5658,9.771,10.046,10.1108,10.2228,10.403,10.458,10.6279,10.7675,10.8975,10.9581,10.9423,10.7978,10.6884,10.5587,10.5217,10.3803,10.2384,10.1436,10.0486,9.858,9.7624,9.6697,9.4324,9.4524,9.3992,9.2292,9.1656,9.053,8.9925,8.7322,8.6151,8.6124,8.6124,8.6097,8.7185,8.8134,8.851,8.8969,8.8941,8.7452,8.5961,8.5036,8.4056,8.2065,8.1573,8.0562,8.0069,7.9601,7.9651,8.0664,8.1599,8.3513,8.5961,8.8426,8.9427,8.9941,8.9941,8.9941,9.0911,9.0911,9.0911,9.0426,9.0426,9.0426,8.9512,8.8218,8.664,8.5932,8.4887,8.4169,8.4662,8.5208,8.5987,8.6143,8.5857,8.5675,8.5545,8.5467,8.5415,8.4288,8.3237,8.2011,8.0349,7.8978,7.8209,7.9181,8.0342,8.1012,8.2537,8.4107,8.4545,9.5992,9.5078,9.5465,9.5555,9.5679,9.7038,9.7624,9.7624,9.7624,9.7624,9.7624,9.7115,9.5677,9.3723,9.2306,9.0883,8.9455,8.6937,8.6964,8.6799,8.7065,8.8322,9.095,9.3841,9.5363,9.7177,9.9299,10.0815,10.1955,10.3787,10.5999,10.7941,10.8689,10.9474,10.9317,10.8264,10.6782,10.5587,10.5217,10.4275,10.2825,10.1878,10.0454,9.9057,9.8165,9.6881,9.595,9.5607,9.5278,9.3972,9.2285,9.1505,9.087,8.8116,8.6205,8.604,8.5279,8.5279,8.6013,8.7295,8.8594,8.954,8.954,8.8454,8.6449,8.5036,8.4083,8.2065,8.1081,8.0562,7.9576,7.8118,7.8637,7.9601,8.1081,8.3022,8.5472,8.7452,8.8454,8.9427,8.9941,8.9941,8.9941,9.0426,9.0426,8.9941,8.9913,9.0398,8.9166,8.7978,8.7024,8.6641,8.5705,8.474,8.5208,8.5597,8.5987,8.622,8.5831,8.5597,8.5571,8.5493,8.5415,8.4416,8.2876,8.1722,8.0595,7.8678,7.7291,7.7998,7.9157,8.0075,8.1135,8.2486,8.4031,9.7384,9.6846,9.6179,9.571,9.6111,9.7161,9.7624,9.7624,9.7624,9.7624,9.7624,9.7624,9.6636,9.5197,9.3271,9.1851,8.9913,8.7939,8.7452,8.7341,8.7175,8.7327,8.9283,9.2092,9.3875,9.5961,9.7704,9.9213,10.0415,10.2343,10.572,10.7533,10.844,10.9153,10.977,10.7986,10.6973,10.6357,10.5217,10.4713,10.3265,10.2352,10.1565,9.9943,9.9496,9.8458,9.71,9.6263,9.5839,9.4993,9.3125,9.1904,9.1209,8.8885,8.5715,8.5376,8.4041,8.4174,8.504,8.6396,8.7618,8.851,8.9483,8.8941,8.7939,8.6476,8.452,8.2065,8.1055,8.0613,8.0171,7.8662,7.8093,7.8563,8.0044,8.2479,8.4983,8.6449,8.7939,8.8941,8.9941,8.9941,8.9941,9.0426,9.0426,8.9941,8.9941,8.9941,8.9625,8.8412,8.8061,8.7352,8.5971,8.5052,8.5415,8.5727,8.5987,8.5987,8.5597,8.5597,8.5545,8.5545,8.4981,8.3954,8.2926,8.1381,8.0349,7.887,7.7384,7.7927,7.7904,7.9372,8.0778,8.2048,8.2737,9.8805,9.9222,9.702,9.5988,9.6513,9.7285,9.7624,9.7624,9.7624,9.7624,9.7624,9.7624,9.7624,9.6636,9.4686,9.2306,9.0398,8.8454,8.7967,8.7884,8.712,8.716,8.8718,9.1411,9.2485,9.3456,9.6608,9.7687,9.8628,10.2377,10.5413,10.7498,10.8155,10.8761,11.008,10.8129,10.6989,10.6825,10.5688,10.4713,10.377,10.3265,10.2265,10.1217,10.0542,9.9375,9.8256,9.7234,9.6223,9.5285,9.3269,9.26,9.2571,8.8913,8.5028,8.3574,8.2766,8.3026,8.4205,8.5055,8.5988,8.7563,8.8941,8.9455,8.8941,8.6964,8.501,8.2557,8.2065,8.1625,8.1183,7.9651,7.8563,7.8488,7.8982,8.1522,8.4983,8.6476,8.7967,8.8969,8.9941,8.9941,8.9941,8.9941,8.9941,8.9941,8.9941,8.9941,8.9998,8.9568,8.9194,8.79,8.6893,8.5729,8.5666,8.5467,8.5649,8.5675,8.5545,8.5545,8.5545,8.5545,8.5006,8.398,8.2411,8.1381,7.9832,7.8375,7.7998,7.7478,7.7361,7.8898,8.009,8.0399,8.091,9.935,9.858,9.8302,9.7114,9.6018,9.7068,9.7624,9.7624,9.7624,9.7624,9.7624,9.7624,9.7624,9.7115,9.5677,9.3753,9.1367,8.8941,8.7967,8.78,8.6194,8.5081,8.5991,8.7624,8.9441,9.1269,9.462,9.7168,9.7719,10.129,10.483,10.6786,10.7976,10.9207,11.0424,10.8059,10.7161,10.6621,10.5688,10.5217,10.4713,10.3803,10.2676,10.192,10.1023,10.0171,9.9758,9.7653,9.6987,9.6077,9.4373,9.2615,9.1698,8.9445,8.6825,8.504,8.3027,8.3106,8.3262,8.4375,8.5063,8.6668,8.8051,8.7995,8.7967,8.7452,8.6476,8.403,8.2557,8.2091,8.1651,7.9601,7.8488,7.8389,7.8463,8.0095,8.3539,8.5472,8.6937,8.7967,8.9455,8.9941,8.9941,8.9941,8.9941,8.9941,8.9941,8.9941,8.9941,8.9941,8.9653,8.8393,8.7014,8.5813,8.5405,8.5208,8.5493,8.5545,8.5545,8.5545,8.5545,8.5545,8.457,8.3542,8.1921,8.0693,7.875,7.7291,7.7126,7.7056,7.7197,7.7431,7.8282,7.8756,7.9372,9.9652,9.8897,9.7835,9.7047,9.6698,9.7346,9.7115,9.6636,9.7146,9.7146,9.7115,9.7115,9.7624,9.7115,9.6157,9.4235,9.1851,8.9913,8.8941,8.7884,8.6359,8.5436,8.5026,8.7447,8.818,9.0083,9.3364,9.6102,9.5961,10.0191,10.3651,10.5929,10.7924,10.9565,11.0044,10.876,10.8325,10.7224,10.6158,10.5217,10.6158,10.4746,10.369,10.2878,10.1885,10.1094,10.0065,9.7923,9.6695,9.6077,9.3614,9.2359,9.0637,8.831,8.5046,8.4389,8.3393,8.2689,8.3288,8.3883,8.4573,8.5661,8.6558,8.6964,8.748,8.748,8.7047,8.6124,8.4654,8.2091,8.2169,7.9651,7.8538,7.7945,7.8019,7.9576,8.2039,8.3897,8.4902,8.5961,8.7995,8.9512,8.9483,8.9455,8.9941,8.9941,8.9941,8.9941,8.9941,8.9941,8.9483,8.8061,8.6967,8.5838,8.5117,8.5104,8.5545,8.5545,8.5545,8.5545,8.5545,8.5545,8.4545,8.3077,8.1722,7.9885,7.8415,7.6892,7.6657,7.6469,7.6657,7.6868,7.7079,7.7951,7.8329,9.985,9.9282,9.7894,9.7007,9.7408,9.7563,9.7115,9.6157,9.7115,9.6636,9.6157,9.6636,9.7115,9.7146,9.6157,9.4716,9.2818,9.1851,9.0398,8.8426,8.7175,8.6414,8.5491,8.6999,8.8121,8.9585,9.2648,9.4687,9.5337,9.8951,10.2665,10.4864,10.742,10.9887,11.0258,10.9673,10.8994,10.8828,10.6627,10.5688,10.6158,10.5721,10.4131,10.2463,10.288,10.1707,9.9572,9.8193,9.6783,9.5227,9.2714,9.1237,8.9825,8.6193,8.4205,8.3654,8.2844,8.2585,8.2637,8.3285,8.3566,8.4003,8.4983,8.6449,8.6964,8.6964,8.8078,8.7701,8.5688,8.2609,8.2273,7.9207,7.8118,7.8093,7.8118,7.9107,8.1029,8.2374,8.3275,8.4466,8.7047,8.8594,8.851,8.8454,8.8941,8.8941,8.9455,8.9941,8.9941,8.9941,8.9512,8.8734,8.7515,8.5937,8.5361,8.5483,8.5493,8.5467,8.5545,8.5545,8.5727,8.5649,8.4545,8.2537,8.0791,7.9444,7.8152,7.6469,7.6469,7.6704,7.6516,7.6352,7.6798,7.7267,7.8211,9.9062,9.8684,9.9156,9.8112,9.6883,9.7377,9.7146,9.7115,9.6157,9.6157,9.7115,9.6157,9.6636,9.7146,9.7146,9.6636,9.4716,9.2788,9.0883,8.937,8.7065,8.5847,8.5628,8.629,8.6971,8.7815,9.1038,9.3487,9.5432,9.8997,10.2355,10.4964,10.7807,10.9688,11.1234,11.0586,11.0057,10.9759,10.7062,10.6158,10.6627,10.5688,10.4131,10.2813,10.2752,10.1972,9.9973,9.833,9.6809,9.6223,9.3115,8.9693,8.768,8.5688,8.4734,8.2351,8.2377,8.2299,8.2273,8.2143,8.2557,8.2557,8.4493,8.5961,8.6449,8.748,8.8622,8.8706,8.7185,8.4056,8.178,7.8712,7.7647,7.7623,7.8118,7.8612,8.0069,8.1418,8.2348,8.3977,8.5553,8.7047,8.6992,8.7452,8.7939,8.8454,8.9427,8.9941,8.9941,8.9969,9.0026,8.9222,8.746,8.6166,8.6104,8.6795,8.526,8.5389,8.5545,8.5753,8.6039,8.5316,8.4031,8.2537,8.0398,7.9219,7.7408,7.6493,7.654,7.7009,7.6915,7.6563,7.6727,7.7103,7.7502,9.8838,9.8144,9.8424,9.7885,9.7223,9.6483,9.6636,9.6157,9.5197,9.5197,9.5197,9.5677,9.6157,9.6636,9.7146,9.7115,9.5197,9.3753,9.1851,8.9827,8.7689,8.6038,8.5929,8.5765,8.5518,8.5573,8.9543,9.1517,9.363,9.7645,10.1603,10.3809,10.7745,10.9876,11.0889,11.1506,11.0835,11.0294,10.7564,10.6627,10.6627,10.5688,10.4539,10.3821,10.3168,10.2035,10.0035,9.7683,9.6512,9.4672,9.2314,8.9657,8.8357,8.664,8.46,8.2583,8.2065,8.2065,8.2065,8.2065,8.2065,8.2065,8.3022,8.4493,8.5961,8.6964,8.8594,8.8762,8.7185,8.403,8.0196,7.7176,7.6159,7.6631,7.7127,7.8118,7.9107,8.0019,8.147,8.3022,8.403,8.501,8.5472,8.5961,8.6964,8.7967,8.8941,8.9455,8.9455,8.9941,9.0026,8.9795,8.7978,8.694,8.7393,8.6583,8.5588,8.5337,8.5519,8.5805,8.5987,8.4775,8.4056,8.1871,8.0251,7.863,7.7502,7.6493,7.6282,7.6587,7.6727,7.6681,7.6681,7.6821,7.7126,9.8549,9.7624,9.7624,9.7624,9.7624,9.6157,9.5677,9.5677,9.4205,9.3723,9.4205,9.5197,9.5677,9.5677,9.7146,9.7115,9.5677,9.4205,9.2306,9.0398,8.8941,8.6964,8.5933,8.5879,8.5174,8.5012,8.8659,9.0789,9.2061,9.6296,10.0234,10.2654,10.7105,10.9779,11.0828,11.1898,11.2184,11.0793,10.8499,10.7096,10.7096,10.6158,10.5251,10.4912,10.3551,10.1644,9.9327,9.7503,9.6186,9.4058,9.1485,9.0134,8.9391,8.724,8.468,8.2635,8.2143,8.1625,8.1081,8.1081,8.1081,8.1573,8.2065,8.3022,8.5472,8.5961,8.759,8.8245,8.713,8.3513,7.9107,7.6631,7.5662,7.5141,7.6135,7.7623,7.8118,7.8588,8.0044,8.1573,8.3075,8.4083,8.3539,8.4493,8.5988,8.6964,8.7967,8.8454,8.9455,8.9941,9.0225,9.0624,8.8802,8.7103,8.6946,8.6556,8.5509,8.5312,8.5467,8.5701,8.5161,8.4519,8.3002,8.1356,7.9638,7.8535,7.6962,7.654,7.6493,7.6282,7.6258,7.6587,7.6774,7.6563,7.6704,9.7624,9.7624,9.7624,9.7624,9.7594,9.6157,9.5677,9.5197,9.4205,9.3723,9.3723,9.5167,9.5197,9.5677,9.6728,9.6667,9.5677,9.4294,9.2818,9.0883,8.9427,8.7452,8.5961,8.5961,8.4902,8.4359,8.6854,8.9201,9.1867,9.4799,9.9278,10.3255,10.6169,10.9107,11.087,11.1687,11.2611,11.1721,10.8966,10.7564,10.7998,10.6627,10.5217,10.4879,10.3259,10.1592,10.0058,9.8226,9.6484,9.4881,9.0339,8.9222,8.9363,8.6695,8.4163,8.274,8.1754,8.069,7.9132,7.9107,7.9107,8.0095,8.1081,8.2531,8.4003,8.5988,8.7047,8.675,8.6069,8.3022,7.9082,7.6135,7.5165,7.4644,7.5662,7.6159,7.6655,7.8093,7.9576,8.012,8.1599,8.2065,8.2557,8.3539,8.452,8.5988,8.6964,8.7967,8.8454,8.9455,9.0254,9.0247,8.9052,8.7294,8.6973,8.6051,8.5431,8.5441,8.5623,8.511,8.457,8.3052,8.2021,8.0939,7.9243,7.7597,7.7009,7.7056,7.7056,7.6892,7.6657,7.6868,7.7009,7.6634,7.6352,9.8549,9.8549,9.8549,9.8549,9.8549,9.6636,9.5677,9.5197,9.4205,9.3242,9.2788,9.3753,9.4716,9.4746,9.6071,9.604,9.4806,9.4622,9.3111,9.0969,8.9455,8.7967,8.6449,8.5961,8.4983,8.3513,8.6422,8.8856,9.1223,9.4926,9.8589,10.2358,10.4718,10.747,10.9673,11.0092,11.1257,11.1756,10.8966,10.7564,10.8465,10.6627,10.5184,10.3902,10.3065,10.1631,9.9952,9.7587,9.4851,9.3317,9.1055,8.9483,8.7618,8.6613,8.5171,8.2299,8.1209,7.9651,7.8612,7.7573,7.8068,7.9082,8.0069,8.1055,8.3048,8.4547,8.6097,8.5688,8.5607,8.3075,7.9107,7.7672,7.6183,7.4668,7.4668,7.5165,7.5141,7.7103,7.9107,8.012,8.1106,8.2065,8.2065,8.2557,8.3539,8.452,8.5988,8.6964,8.7939,8.8969,9.014,8.9126,8.801,8.7784,8.7511,8.6183,8.4974,8.5727,8.5445,8.4724,8.3694,8.1653,8.052,7.9881,7.828,7.7197,7.7173,7.7173,7.7244,7.7244,7.7244,7.7126,7.6821,7.6493,7.6258,9.9026,9.9026,9.9026,9.9026,9.8549,9.6126,9.5197,9.4686,9.3753,9.2306,9.1851,9.2788,9.3723,9.3301,9.5225,9.5315,9.3655,9.3832,9.2287,9.0684,9.0169,8.911,8.748,8.6449,8.4493,8.2557,8.4983,8.7884,8.9342,9.3694,9.7451,10.1036,10.3582,10.5885,10.8229,10.8775,10.9829,11.0828,10.8499,10.7564,10.7998,10.6158,10.4713,10.3363,10.2588,10.1984,10.0542,9.7161,9.4435,9.1909,9.0883,8.8941,8.759,8.6097,8.4136,8.1209,7.9626,7.8068,7.7103,7.6583,7.6558,7.7623,7.8093,7.9576,8.1081,8.3075,8.4109,8.4654,8.5144,8.3101,7.9626,7.8687,7.7696,7.5165,7.3648,7.3648,7.4146,7.6135,7.8118,7.9626,8.0588,8.1573,8.2065,8.2065,8.2557,8.4003,8.4983,8.5472,8.6449,8.748,8.8357,8.7735,8.7762,8.8192,8.7807,8.5834,8.4671,8.5471,8.5058,8.3795,8.217,8.0642,7.9978,7.9339,7.7762,7.722,7.7244,7.7244,7.7244,7.7244,7.7173,7.7056,7.6727,7.6375,7.6141,9.7624,9.7624,9.7624,9.8103,9.7594,9.5167,9.4205,9.3723,9.2788,9.1367,9.0883,9.2306,9.2788,9.2306,9.3448,9.3714,9.3036,9.2316,9.1887,9.1227,9.0624,8.988,8.8969,8.6937,8.4493,8.2557,8.3513,8.5445,8.7772,9.1165,9.4775,9.9716,10.2175,10.4685,10.6904,10.8484,10.8932,10.9398,10.8032,10.7096,10.7096,10.5688,10.4242,10.2825,10.2523,10.144,9.9966,9.7039,9.4861,9.1938,8.8913,8.8051,8.8273,8.468,8.1651,7.9207,7.7549,7.6558,7.5141,7.4668,7.5141,7.6159,7.6655,7.7151,7.9576,8.1081,8.2065,8.2609,8.3592,8.2609,7.9626,7.8687,7.7696,7.4668,7.315,7.2152,7.2651,7.4644,7.6655,7.8118,7.9601,8.0613,8.1573,8.2065,8.2557,8.3513,8.4003,8.4493,8.5472,8.6097,8.6559,8.7049,8.6489,8.682,8.7703,8.5744,8.4391,8.4464,8.2962,8.2245,8.0593,8.0593,7.9978,7.9363,7.828,7.7244,7.7244,7.7244,7.7244,7.715,7.7056,7.6939,7.6681,7.5793,7.5466,9.9026,9.9026,9.9026,9.9026,9.8549,9.7115,9.5197,9.3723,9.4235,9.2818,9.0883,9.1851,9.2306,9.1938,9.2744,9.2802,9.2229,9.281,9.2177,9.1335,9.0709,8.9681,8.8482,8.6937,8.4003,8.1573,8.3022,8.4794,8.6359,8.9683,9.3012,9.6553,9.9684,10.2719,10.4478,10.5952,10.753,10.8465,10.7096,10.6158,10.6593,10.5184,10.2793,10.0961,9.9755,9.8444,9.6522,9.4593,9.3053,9.1425,8.9884,8.851,8.8218,8.5467,8.2611,7.9557,7.7819,7.6728,7.5046,7.4287,7.4668,7.5165,7.6183,7.7176,7.7647,7.9032,8.0562,8.1651,8.2635,8.1573,7.9107,7.8637,7.6655,7.315,7.1653,7.1176,7.1153,7.315,7.5141,7.7151,7.8637,8.012,8.1106,8.1573,8.2065,8.2557,8.3513,8.4003,8.403,8.4983,8.5413,8.5897,8.5519,8.6343,8.6791,8.5597,8.3668,8.2687,8.1209,8.0026,7.946,7.946,7.9484,7.8375,7.7762,7.722,7.722,7.7244,7.6632,7.6515,7.6399,7.565,7.4835,7.4537,7.4146,9.9026,9.9026,9.9026,9.9026,9.8549,9.7594,9.5677,9.3753,9.4235,9.2788,9.0455,9.1113,9.1656,9.1772,9.209,9.2292,9.2292,9.2668,9.2349,9.1107,9.0538,8.9653,8.8482,8.6937,8.4493,8.2531,8.2864,8.3445,8.4417,8.7167,9.0939,9.357,9.7771,10.0363,10.2692,10.4418,10.5688,10.753,10.6158,10.5688,10.6158,10.4242,10.1846,9.9471,9.8071,9.5677,9.2788,9.1851,9.1483,9.1199,9.0225,8.8678,8.6668,8.4948,8.2455,7.9207,7.7821,7.6883,7.4809,7.4099,7.3959,7.462,7.5189,7.6183,7.6135,7.651,7.8563,8.1312,8.178,8.1183,7.8687,7.7672,7.6135,7.2628,7.1176,7.0197,7.0675,7.1153,7.315,7.5165,7.7623,7.9601,8.012,8.1081,8.2065,8.2065,8.2557,8.3048,8.2557,8.3513,8.4242,8.4306,8.494,8.5151,8.487,8.3801,8.2136,8.0398,7.9074,7.809,7.7715,7.7809,7.7904,7.7361,7.7267,7.722,7.722,7.6655,7.602,7.541,7.5272,7.4435,7.3512,7.2617,7.2234,9.7624,9.7624,9.7624,9.7624,9.7594,9.6636,9.5197,9.3723,9.2788,9.1367,8.9998,9.0538,9.0709,9.0766,9.0794,9.1477,9.1932,9.1164,9.0538,9.0282,9.0538,8.9936,8.9455,8.6964,8.5445,8.4875,8.247,8.0975,8.0885,8.4137,8.7665,9.1113,9.5833,9.9428,10.1239,10.3516,10.5217,10.5217,10.5217,10.5217,10.5217,10.377,10.1878,9.9471,9.8071,9.5197,9.0426,8.9941,9.0197,9.0709,8.9813,8.7597,8.5225,8.3075,8.0619,7.7443,7.6634,7.5907,7.4428,7.3442,7.3089,7.3888,7.4099,7.4006,7.4431,7.4408,7.6014,7.9828,8.1414,8.0919,7.8291,7.6704,7.5165,7.2651,7.1153,7.0175,6.9674,6.9172,6.9674,7.315,7.6135,7.8612,8.012,8.0588,8.1573,8.1573,8.2065,8.2065,8.2065,8.2065,8.2325,8.2844,8.3811,8.3805,8.2934,8.1936,8.0005,7.8741,7.7006,7.6189,7.6305,7.722,7.7291,7.6632,7.6515,7.6702,7.6702,7.5479,7.4846,7.3675,7.3607,7.2911,7.184,7.1285,7.0379,9.7624,9.7624,9.7624,9.7624,9.7624,9.7146,9.5677,9.3723,9.3271,9.1851,9.0541,9.0595,9.0624,9.0339,9.0681,9.1136,9.1278,9.0169,8.9941,9.051,8.9335,8.8134,8.6964,8.5472,8.3817,8.247,7.9823,7.8777,7.89,8.1663,8.5323,8.9414,9.3527,9.6896,10.0589,10.2808,10.4242,10.5217,10.5217,10.5217,10.4746,10.3298,10.093,9.8518,9.6126,9.3271,9.0426,8.9941,8.971,8.9757,9.0162,8.8579,8.5055,8.1909,7.9359,7.7593,7.6247,7.481,7.4309,7.2062,7.141,7.3114,7.2224,7.2386,7.3112,7.1444,7.2664,7.6063,7.8192,7.8118,7.6111,7.5118,7.3672,7.1176,7.0175,6.9674,6.7667,6.7667,6.8671,7.013,7.3127,7.5662,7.7672,7.8637,7.9601,7.9601,8.0095,8.0613,8.1081,8.1599,8.2273,8.2818,8.3104,8.2967,8.1869,8.0071,7.828,7.7338,7.5559,7.5141,7.5326,7.6399,7.6608,7.5858,7.5882,7.609,7.5548,7.4306,7.309,7.1878,7.123,7.1011,7.0507,6.9475,6.9301,9.7624,9.7594,9.7346,9.7099,9.6914,9.6685,9.5314,9.3427,9.3153,9.1706,9.0198,9.0254,9.0169,8.9628,8.9025,8.9194,8.911,8.8889,8.9059,8.9391,8.865,8.7452,8.6422,8.4767,8.309,8.1904,7.8467,7.6747,7.6403,7.8708,8.2496,8.6812,9.0851,9.4801,9.8618,10.1363,10.2825,10.3803,10.4275,10.4275,10.4242,10.2384,9.9979,9.7084,9.4686,9.2306,8.9427,8.9681,8.8958,8.8365,8.8663,8.7762,8.5014,8.1444,7.8206,7.6493,7.4713,7.3834,7.3302,6.9892,6.8665,7.0874,7.0338,6.9401,6.8998,6.8439,6.9131,7.3252,7.587,7.6219,7.4666,7.4077,7.2594,7.0139,6.8647,6.7132,6.5677,6.5302,6.6408,6.7431,6.9541,7.2651,7.5734,7.7696,7.8118,7.8118,7.8612,7.9601,8.012,8.0588,8.1676,8.2533,8.2296,8.1506,8.0258,7.8177,7.6692,7.532,7.4516,7.4054,7.3659,7.4651,7.4973,7.423,7.4276,7.4435,7.3898,7.2665,7.1951,7.0814,6.9765,6.8994,6.8566,6.8395,6.8223,9.7563,9.6992,9.6883,9.5794,9.5648,9.4909,9.3757,9.2922,9.2013,9.0509,8.9145,8.9657,8.9514,8.8408,8.6456,8.5974,8.6993,8.6965,8.7299,8.7884,8.7452,8.748,8.7424,8.4445,8.3471,8.2707,7.8064,7.5142,7.3576,7.6825,7.9605,8.2505,8.8353,9.2768,9.5895,9.9346,10.1436,10.1911,10.2825,10.3265,10.2793,10.1878,9.9534,9.6218,9.4235,9.1793,8.851,8.8524,8.831,8.6804,8.579,8.496,8.4782,8.1496,7.7344,7.3287,7.1807,7.1645,7.1502,6.7107,6.5507,6.7947,6.715,6.5528,6.4379,6.4463,6.681,7.2996,7.3513,7.3888,7.3114,7.2436,7.0782,6.8373,6.634,6.4346,6.2844,6.2254,6.2893,6.445,6.574,6.9019,7.5284,7.72,7.7623,7.7623,7.8118,7.8612,7.9132,7.9626,8.0613,8.1235,8.0996,7.9733,7.6801,7.64,7.4833,7.3428,7.3295,7.2906,7.256,7.2234,7.2481,7.2639,7.2797,7.2307,7.1684,7.1062,7.0442,6.9247,6.8227,6.7484,6.7062,6.6619,6.6577,9.495,9.4444,9.3817,9.3811,9.4209,9.3427,9.3251,9.2863,9.1575,9.0587,8.9002,8.8209,8.6715,8.4873,8.4287,8.3784,8.4314,8.4725,8.5726,8.6816,8.5797,8.5472,8.5961,8.3844,8.1702,8.0388,7.763,7.5486,7.4012,7.5102,7.7925,8.1631,8.5685,9.0108,9.4879,9.713,9.9534,10.1436,10.2825,10.2825,10.1878,10.093,9.8767,9.6313,9.3507,9.0825,8.7967,8.713,8.6205,8.4761,8.4787,8.3328,8.0282,8.0429,7.7585,7.2376,6.8858,6.66,6.589,6.3308,6.1791,6.2373,6.2008,6.1809,6.2863,6.2275,6.3154,6.6361,6.8754,6.987,6.9109,6.8395,6.7859,6.6682,6.4923,6.2783,6.1774,6.1379,6.0962,6.1458,6.1755,6.5073,7.1358,7.455,7.5638,7.5638,7.6135,7.7151,7.7151,7.8118,7.8612,7.9132,7.9207,7.8291,7.6704,7.5662,7.4146,7.2697,7.2221,7.1401,6.9916,7.0796,7.1614,7.1129,7.1462,7.1551,7.0398,6.9953,6.942,6.7993,6.6153,6.5377,6.5696,6.4223,6.4244,9.3307,9.2359,9.2062,9.2058,9.2048,9.1706,9.1056,9.1144,9.066,8.9311,8.7618,8.5176,8.362,8.2967,8.1792,8.1899,8.24,8.2965,8.4038,8.5117,8.4472,8.4279,8.4902,8.2575,8.085,7.9207,7.6796,7.5289,7.3677,7.2742,7.4527,7.8656,8.3037,8.7893,9.2803,9.5396,9.7346,10.001,10.093,10.093,9.9026,9.9026,9.7299,9.4257,9.2258,8.9653,8.6531,8.5715,8.4734,8.2531,8.1878,8.0689,7.7485,7.718,7.4906,7.0345,6.6226,6.3278,6.0987,5.9611,5.8665,5.8112,5.8185,5.9016,6.1058,5.9508,5.8789,6.021,6.2533,6.4572,6.4933,6.4933,6.4065,6.3481,6.1906,6.0333,5.9524,5.8556,5.8043,5.8005,5.7773,6.0104,6.7544,7.2398,7.4099,7.4146,7.4668,7.5662,7.6159,7.6655,7.7623,7.7623,7.7127,7.6135,7.5662,7.4146,7.2651,7.1653,7.1153,7.0152,6.8714,6.8953,6.9084,6.86,6.8773,6.8902,6.8523,6.795,6.6912,6.6153,6.4769,6.3637,6.4122,6.3112,6.3112,9.1706,9.1587,9.0644,8.9995,8.9552,8.9297,8.9149,8.9265,8.8854,8.7534,8.5293,8.1943,8.1016,8.1459,8.0105,7.984,8.0763,8.1956,8.2541,8.3019,8.3126,8.3445,8.3764,8.1355,7.9644,7.8903,7.6224,7.4369,7.3245,7.0828,7.1049,7.4405,8.0131,8.5017,8.9431,9.2923,9.5487,9.7594,9.8549,9.8103,9.5768,9.6697,9.5197,8.9941,9.0368,8.8412,8.452,8.4375,8.2844,8.0307,7.832,7.7132,7.5745,7.2678,6.9896,6.7791,6.449,6.0919,5.6643,5.5875,5.5404,5.5044,5.5063,5.5668,5.6256,5.4979,5.4043,5.4942,5.637,5.8922,6.1276,6.1088,6.0497,6.096,5.848,5.71,5.6913,5.5609,5.4117,5.501,5.3342,5.5235,6.4741,7.0703,7.3509,7.3127,7.3243,7.3788,7.4715,7.5165,7.6135,7.6631,7.5638,7.4644,7.4146,7.3127,7.1653,7.0175,6.9172,6.8169,6.7667,6.7185,6.6661,6.7292,6.7292,6.6305,6.5758,6.4667,6.4203,6.3718,6.3172,6.2082,6.2082,6.1576,6.1596,8.9178,8.8238,8.8094,8.7663,8.7203,8.7824,8.8784,8.9257,8.7616,8.4989,8.2782,8.1432,7.9343,7.7598,7.8585,7.814,7.7488,7.9702,8.1393,8.2514,8.1997,8.226,8.2773,8.0205,7.8498,7.7045,7.493,7.3173,7.0812,6.9869,6.9616,7.1096,7.6328,8.116,8.557,8.9531,9.3071,9.6096,9.6157,9.5919,9.495,9.5949,9.4473,9.097,8.8828,8.6607,8.3923,8.0897,7.9259,7.8118,7.6028,7.389,7.1417,6.8644,6.6553,6.5074,5.9961,5.5574,5.3252,5.1545,4.9898,4.8339,4.9861,4.983,4.7644,4.8245,4.9269,5.0261,5.306,5.5455,5.6636,5.7056,5.7571,5.7977,5.5368,5.3818,5.3891,5.2694,5.1362,4.9386,5.0403,5.4895,6.3256,6.8407,7.0429,7.0108,7.0988,7.1558,7.1743,7.2651,7.315,7.3625,7.4146,7.3648,7.2651,7.2129,7.1108,6.9172,6.8147,6.7581,6.6577,6.6116,6.6137,6.6074,6.5613,6.4565,6.4626,6.3597,6.2548,6.2528,6.1984,6.1537,6.0526,6.0039,5.9063,8.628,8.4889,8.4889,8.4201,8.3487,8.462,8.5367,8.6357,8.4574,8.2225,7.9695,7.8502,7.6257,7.4412,7.5659,7.571,7.43,7.6647,7.7885,7.9121,7.9689,8.0205,8.113,7.944,7.8215,7.6486,7.4497,7.2211,6.9526,6.8569,6.7843,6.7389,7.1432,7.7306,8.4056,8.7814,9.1342,9.4656,9.4686,9.4414,9.3317,9.3478,9.2335,8.9483,8.7383,8.5008,8.2833,7.9754,7.7578,7.6351,7.3886,7.1269,6.8101,6.5087,6.1983,5.8814,5.5283,5.2416,5.1063,4.9343,4.6853,4.4482,4.6569,4.6019,4.1213,4.2766,4.4819,4.6394,4.8279,5.0574,5.2645,5.3133,5.3279,5.4645,5.2748,5.1358,5.1532,5.0798,4.949,4.8623,4.8997,5.2365,5.9234,6.4325,6.7371,6.7281,6.8714,7.0048,7.053,7.0485,7.0397,6.9674,7.113,7.1562,7.0838,7.0295,6.9211,6.7046,6.6029,6.5031,6.4013,6.3493,6.3493,6.3513,6.3013,6.2513,6.2493,6.1512,6.1011,6.051,6.051,5.9621,5.9249,5.8296,5.723,8.337,8.2,8.2,8.1515,8.06,8.06,8.1167,8.2305,8.049,7.858,7.7131,7.4875,7.2873,7.1567,7.2481,7.2704,7.2407,7.3445,7.4187,7.513,7.6628,7.7915,7.8853,7.8266,7.753,7.5657,7.4158,7.1739,6.891,6.7076,6.5452,6.4503,6.6467,7.2311,8.1239,8.5432,8.9503,9.2583,9.3094,9.273,9.1483,9.1967,9.0226,8.7216,8.5628,8.4038,8.145,7.9291,7.6711,7.3668,7.126,6.8242,6.4823,6.1687,5.7066,5.1611,5.0856,4.9904,4.8781,4.7038,4.4577,4.1904,4.3908,4.3109,3.8424,3.9238,4.1033,4.3625,4.4456,4.5971,4.8726,4.9054,4.9364,5.0604,4.9985,4.9388,4.9675,4.8416,4.764,4.7849,4.7077,4.7927,5.2872,6.0294,6.5312,6.4761,6.624,6.8234,6.9149,6.8794,6.7525,6.6556,6.7953,6.8779,6.8428,6.7824,6.6208,6.484,6.3358,6.1914,6.0903,6.0407,6.0407,6.0329,5.9891,5.9872,6.0348,5.9318,5.8401,5.842,5.6945,5.652,5.6811,5.6219,5.5074,8.2,8.1058,8.1058,8.1058,8.06,8.06,8.1171,8.1879,0.0,0.0,0.0,7.1897,7.0597,6.9623,7.0696,7.099,7.0472,7.2902,7.3445,7.401,7.4557,7.5155,7.5702,7.3889,7.2727,7.3042,7.1123,6.896,6.6517,6.4993,6.3063,6.1214,6.202,6.4675,7.0222,8.0023,8.5958,8.8125,8.9088,9.0083,9.1141,9.2119,9.0339,8.6312,8.5335,8.3557,8.0023,7.6166,7.3538,7.2061,6.7699,6.403,6.1039,5.6963,5.2424,4.8335,4.6456,4.5625,4.5484,4.2984,4.126,4.1757,4.048,3.9896,3.8997,3.845,3.8892,4.1018,4.2251,4.3797,4.5175,4.6148,4.7123,4.8554,4.6785,4.5594,4.5471,4.4142,4.3092,4.2234,4.2813,4.4838,4.8413,5.7967,6.3687,6.1418,6.329,6.6345,6.7062,6.5966,6.4483,6.3788,6.5133,6.5996,6.5396,6.486,6.3852,6.3195,6.122,5.9814,5.9318,5.8307,5.781,5.7661,5.6817,5.6762,5.7314,5.5732,5.4345,5.5342,5.4345,5.3399,5.3399,5.1463,4.9632,7.8804,7.701,7.701,7.6534,0.0,7.5157,7.5339,7.5469,7.2034,7.0145,6.8773,6.817,6.6519,6.4503,6.5019,6.5676,6.5557,6.7201,6.8573,7.0053,7.1244,7.2266,7.349,7.2775,7.2184,7.2184,7.004,6.7299,6.4468,6.3274,6.0711,5.7248,5.9067,6.1616,6.4935,7.4134,8.1292,8.5616,8.7978,8.9568,9.0396,9.0681,8.9532,8.6964,8.5117,0.0,0.0,0.0,0.0,0.0,0.0,0.0,0.0,0.0,0.0,4.6525,4.2839,4.0674,4.1298,3.7368,3.5449,3.6456,3.3508,3.2021,3.2696,3.3738,3.4914,3.6793,3.9191,4.1085,4.243,4.2922,4.4289,4.6118,4.4466,4.2816,4.3033,4.2232,4.1306,4.0563,4.0211,4.1767,4.6484,5.3982,5.7515,5.7968,6.0524,6.3033,6.3716,6.2773,6.2171,6.2214,6.2945,6.2701,6.2499,6.1805,6.1075,5.9842,5.8187,5.6596,5.5604,5.4631,5.3656,5.2663,5.2175,5.1704,5.1687,5.0709,5.0237,5.0709,5.0237,4.9747,4.7771,4.6543,4.5384,7.5042,7.277,7.277,7.1426,6.9589,6.778,6.6931,6.6642,6.6642,6.5848,6.4392,6.344,6.1261,5.9129,5.9008,5.9468,6.0438,6.0989,6.2671,6.5299,6.6835,6.8797,7.0647,7.145,7.145,7.0671,6.8682,6.5868,6.2778,6.0904,5.8258,5.4354,5.6041,5.8582,6.1576,0.0,0.0,0.0,8.5147,8.8033,8.9653,8.935,8.8282,8.7314,8.4122,0.0,7.9224,7.5735,7.2259,6.8912,6.4466,0.0,0.0,0.0,0.0,0.0,0.0,0.0,0.0,0.0,0.0,0.0,2.6182,2.4014,2.5776,2.7743,3.0165,3.1995,3.5561,3.8166,3.9182,3.9345,4.0791,4.3145,4.1626,4.057,4.0396,4.0002,3.9571,3.9869,3.8056,3.9089,4.4522,4.8909,5.235,5.4919,5.7184,5.8955,5.9524,5.8879,5.9164,5.9587,5.9203,5.8935,5.9608,5.8635,5.7263,5.6535,5.4686,5.2575,5.1636,5.0183,4.8712,4.7769,4.7704,4.7257,4.6777,4.6265,4.6344,4.6281,4.6281,4.5228,4.2132,4.1653,4.1231,7.1613,6.9444,6.9444,6.901,6.7944,6.0075,5.689,5.7214,5.7214,5.7623,5.782,5.7413,5.645,5.5165,5.484,5.5414,5.6349,5.722,5.8176,5.9218,6.2268,6.4308,6.4826,6.5416,6.5892,6.6214,6.442,6.2323,5.9955,5.8143,5.5851,5.2533,5.1658,5.2941,5.5948,5.8982,6.324,6.8421,7.8089,8.4868,8.8774,8.8891,8.743,8.5362,8.3619,8.0489,7.6201,7.2856,6.882,6.4788,6.0857,5.6144,5.0058,4.6559,4.2647,0.0,3.4449,0.0,0.0,0.0,0.0,0.0,0.0,0.0,0.0,2.3255,2.5123,2.7522,3.1865,3.4309,3.3414,3.4663,3.643,3.8204,3.7061,3.6681,3.7717,3.7263,3.6246,3.5619,3.5624,3.6635,3.9601,4.6747,5.1123,5.0741,5.3869,5.6008,5.4522,5.4937,5.5298,5.443,5.3851,5.4358,5.5678,5.4125,5.2752,5.4407,5.1227,4.7737,4.7656,4.5739,4.3848,4.3848,4.3789,4.3818,4.484,4.4329,4.3848,4.4734,4.3744,4.1974,3.7868,3.6373,3.5188,6.6593,6.3965,6.3258,6.0858,5.762,5.2911,5.1292,5.1926,5.2084,5.2902,5.3691,5.2466,5.0764,4.8781,4.8599,4.9464,5.0833,5.2393,5.4216,5.6661,5.8226,5.9661,6.0535,6.0785,6.1251,6.1448,5.9896,5.833,5.631,5.4359,5.1586,4.8888,4.7761,4.7606,4.8022,5.2388,5.7933,6.4283,7.4036,8.1982,8.7817,8.742,8.6543,8.5144,8.2217,7.9058,7.5652,7.0552,6.6697,6.3497,5.8437,5.3355,4.8542,4.4215,4.0007,0.0,0.0,0.0,0.0,0.0,0.0,0.0,0.0,0.0,0.0,0.0,1.9074,1.8815,2.651,3.0553,2.8817,3.1136,3.3403,3.4683,3.3348,3.286,3.3887,3.3454,3.2747,3.2161,3.315,3.4435,3.7169,4.1524,4.5043,4.7576,4.9208,5.0662,5.0628,5.1864,5.282,5.2437,5.1899,5.1899,5.287,5.1584,5.0537,5.0606,4.7841,4.5609,4.4672,4.3265,4.1857,4.0917,4.0447,3.999,3.9506,3.8564,3.8092,3.8994,3.8323,3.6532,3.4682,3.3753,3.3449,6.083,5.8071,5.4927,5.0451,4.6105,4.5237,4.5663,4.6455,4.6723,4.7421,4.8322,4.6817,4.4735,4.1811,4.1755,4.2304,4.4009,4.6016,4.8716,5.2374,5.3276,5.4699,5.6618,5.7077,5.7514,5.7077,5.62,5.4724,5.2642,5.0596,4.8098,4.5141,4.3432,4.1567,4.0541,4.6328,5.3413,6.1428,6.9446,7.7913,8.5466,8.5363,8.502,8.4015,8.026,7.6597,7.3979,6.8568,6.4169,6.1176,5.5417,5.1304,4.8256,4.2044,0.0,0.0,0.0,0.0,0.0,0.0,0.0,0.0,0.0,1.3284,1.3093,0.0,1.3158,0.0,2.1017,2.6524,2.4373,2.7203,0.0,0.0,2.943,2.9196,2.9666,2.9537,2.9551,2.9181,3.0848,3.2356,3.4723,3.6319,3.8835,4.3175,4.4264,4.5281,4.7289,4.9307,5.0441,5.0403,4.9855,4.9871,4.962,4.9489,4.8514,4.7364,4.4961,4.269,4.17,4.0313,3.8938,3.8035,3.7117,3.6211,3.5303,3.4358,3.3874,3.3259,3.2485,3.1765,3.1765,3.1765,3.1846,5.565,5.2834,4.3468,3.8689,3.7373,3.6681,3.6952,3.8056,3.8705,3.9398,4.0153,3.9327,3.7812,3.6638,3.4638,0.0,3.609,3.7158,3.9731,4.3618,4.7324,5.0229,5.2236,5.4005,5.4869,5.4869,5.3985,5.2255,4.9994,4.8938,4.6052,4.1502,3.73,3.547,3.6367,4.1268,4.8278,5.7678,6.3739,7.1378,7.9409,8.3005,8.352,8.1416,7.877,7.4327,6.815,6.4602,6.0684,5.5343,5.0403,4.7966,4.7912,0.0,0.0,0.0,0.0,0.0,0.0,0.0,0.0,0.0,0.0,0.0,0.0,0.0,0.0,0.0,1.7824,0.0,2.1124,2.3015,0.0,0.0,0.0,2.5107,2.4471,2.5223,2.6065,2.5855,0.0,0.0,3.0702,3.3787,3.597,3.5645,3.8918,4.1755,4.4882,4.6715,4.7464,4.7923,4.7092,4.6587,4.6045,4.6931,4.6784,4.5279,4.1715,3.9089,3.7454,3.6045,3.5167,3.3821,3.3368,3.3368,3.3368,3.2891,3.1857,2.8277,2.7718,2.7687,2.8575,2.9018,2.9093,4.6138,3.9993,3.3619,3.0879,3.0157,2.9079,2.9627,3.0955,3.1195,3.1764,3.2031,3.1547,3.0292,2.8704,2.7196,0.0,0.0,0.0,3.425,3.8421,4.076,4.3026,4.5332,4.6258,4.7115,4.7971,4.7543,4.6687,4.583,4.4532,4.0197,3.3053,0.0,0.0,3.2677,3.6981,4.4222,5.4462,6.0988,6.8023,7.6332,7.9831,8.018,7.8341,7.6025,7.2193,6.6007,6.2017,5.7139,5.0914,4.7138,4.2893,0.0,0.0,0.0,0.0,0.0,0.0,0.0,0.0,0.0,0.0,0.0,0.8024,0.7827,0.0,0.0,0.0,1.1099,1.5336,1.6743,1.9079,0.0,0.0,0.0,0.0,0.0,0.0,0.0,2.1062,2.5251,2.7912,2.7201,2.8063,2.9832,3.2718,3.6312,3.9825,4.2673,0.0,4.4935,4.5015,4.3958,4.3356,4.4023,4.3574,4.2719,4.2894,3.9439,3.6455,3.3962,3.3594,3.2802,3.1465,3.103,3.0137,2.9244,2.8564,2.6992,2.5518,2.548,2.548,2.5917,2.5917,2.5985,3.6181,0.0,0.0,0.0,0.0,2.2789,2.2992,2.4117,2.4273,2.4668,2.5073,2.4852,0.0,0.0,0.0,0.0,0.0,0.0,2.9224,3.2886,3.5508,3.8052,3.9832,4.0778,4.118,4.1902,4.1908,4.1154,4.0828,3.8734,3.413,2.6697,0.0,0.0,0.0,0.0,4.0649,5.2071,5.771,6.4891,7.3959,7.6328,7.7401,7.6758,7.4335,6.975,6.3745,5.874,5.3388,4.732,4.2972,0.0,0.0,0.0,0.0,0.0,0.0,0.0,0.0,0.0,0.0,0.0,0.0,0.0,0.0,0.0,0.0,0.0,0.0,0.0,1.481,1.6573,1.7258,0.0,0.0,0.0,0.0,0.0,0.0,0.0,0.0,0.0,2.2357,2.2321,2.3912,0.0,0.0,3.7345,3.9756,4.1596,4.2561,4.2097,4.1463,0.0,4.1468,4.0456,3.9645,4.0189,3.7801,3.4385,3.1204,3.0217,2.9282,2.8263,2.7257,2.6407,2.4223,2.2544,2.1901,2.1506,2.1953,2.2006,2.2076,2.2589,2.3105,0.0,0.0,0.0,0.0,0.0,0.0,0.0,0.0,1.8013,1.8597,0.0,1.8839,0.0,0.0,0.0,0.0,1.7935,2.108,0.0,0.0,3.2258,3.5365,3.6174,3.8422,3.9235,3.8868,3.7925,3.6364,3.4188,3.0585,0.0,0.0,0.0,0.0,0.0,0.0,3.7375,4.9598,5.3413,6.0815,7.187,7.3392,7.4848,7.7203,7.3222,6.7519,6.0025,5.4854,4.969,4.3982,3.7104,0.0,0.0,0.0,0.0,0.0,0.0,0.0,0.0,0.0,0.0,0.0,0.0,0.0,0.0,0.0,0.0,0.0,0.0,0.0,0.0,1.5029,0.0,0.0,0.0,0.0,0.0,0.0,0.0,0.0,0.0,0.0,1.4644,1.7008,2.0222,2.2856,0.0,0.0,0.0,0.0,4.0466,3.8988,3.8988,3.8872,3.84,3.8046,3.7877,3.7283,0.0,0.0,2.7903,2.553,2.4181,2.2595,2.2961,2.2241,1.755,1.6084,1.562,1.562,1.6485,1.7309,1.7487,1.8593,1.917,0.0,0.0,0.0,0.0,0.0,0.0,0.0,0.0,0.0,1.3987,0.0,1.3885,0.0,0.0,0.0,0.0,0.0,0.0,0.0,0.0,2.3745,2.6619,2.8636,2.9847,3.0913,0.0,3.1058,2.7979,0.0,0.0,0.0,0.0,0.0,0.0,0.0,0.0,3.4151,4.5768,5.1291,5.9027,6.8243,7.1033,7.3208,7.5273,7.2263,6.5462,5.5338,5.075,4.4906,0.0,0.0,0.0,0.0,0.0,0.0,0.0,0.0,0.0,0.0,0.0,0.0,0.0,0.0,0.0,0.0,0.0,0.0,0.0,0.0,0.0,0.0,0.0,0.9359,0.0,0.0,0.0,0.0,0.0,0.0,0.0,0.0,0.0,1.1527,1.3274,1.6307,2.0934,2.6336,3.102,3.4405,0.0,0.0,0.0,0.0,0.0,0.0,0.0,3.4145,3.4076,3.1582,2.8792,2.5857,2.2776,2.0624,2.0116,0.0,0.0,1.4453,1.3028,1.2877,1.434,1.5436,1.5899,1.6874,1.5957,1.5014,0.0,0.0,0.0,0.0,0.0,0.0,0.0,0.0,0.0,0.8405,0.7334,0.0,0.0,0.0,0.0,0.0,0.0,0.0,0.0,0.0,0.0,0.0,2.2353,2.3441,0.0,0.0,0.0,0.0,0.0,0.0,0.0,0.0,0.0,0.0,0.0,0.0,3.1535,4.1773,4.8849,5.6179,6.4678,6.8487,7.1203,7.2802,7.0838,6.5302,5.5593,0.0,0.0,0.0,0.0,0.0,0.0,0.0,0.0,0.0,0.0,0.0,0.0,0.0,0.0,0.0,0.0,0.0,0.0,0.0,0.0,0.0,0.0,0.0,0.0,0.0,0.575,0.0,0.0,0.0,0.0,0.0,0.0,0.0,0.0,0.0,0.0,0.0,1.291,1.7378,2.269,2.7484,3.0853,3.2573,3.368,0.0,0.0,0.0,0.0,0.0,0.0,0.0,0.0,0.0,0.0,0.0,0.0,0.0,0.0,1.2997,1.0996,0.9804,0.9365,1.0968,0.0,0.0,0.0,0.0,0.0,0.0,0.0,0.0,0.0,0.0,0.0,0.0,0.0,0.0,0.0,0.1665,0.0,0.0,0.306,0.0,0.0,0.0,0.0,0.0,0.0,0.0,0.0,0.0,0.0,0.0,0.0,0.0,0.0,0.0,0.0,0.0,0.0,0.0,0.0,0.0,0.0,2.9834,3.8015,4.6123,5.3287,6.0536,6.5279,6.8484,6.9869,6.9377,6.6622,6.0279,0.0,0.0,0.0,0.0,0.0,0.0,0.0,0.0,0.0,0.0,0.0,0.0,0.0,0.0,0.0,0.0,0.0,0.0,0.0,0.0,0.0,0.0,0.0,0.0,0.0,0.0,0.3508,0.5686,0.7331,0.0,0.0,0.0,0.0,0.0,0.0,0.0,0.0,0.0,1.2274,1.8596,2.3734,2.6105,2.8965,3.0962,2.9888,3.0183,2.9778,2.9158,3.024,3.0741,0.0,0.0,0.0,0.0,0.0,0.0,0.0,0.0,0.0,0.0,0.0,0.0,0.0,0.0,0.0,0.0,0.0,0.0,0.0,0.0,0.0,0.0,0.0,0.0,0.0,0.0,0.0,0.0,0.0,0.0,0.0,0.0,0.0,0.0,0.0,0.0,0.0,0.0,0.0,0.0,0.0,0.0,0.0,0.0,0.0,0.0,0.0,0.0,0.0,0.0,0.0,0.0,0.0,0.0,2.6815,3.4902,4.2727,5.0749,5.9118,6.3668,6.6694,6.8864,6.7095,6.3029,0.0,0.0,0.0,0.0,0.0,0.0,0.0,0.0,0.0,0.0,0.0,0.0,0.0,0.0,0.0,0.0,0.0,0.0,0.0,0.0,0.0,0.0,0.0,0.0,0.0,0.0,0.0,0.0,0.3585,0.5119,0.6768,0.0,0.0,0.0,0.0,0.0,0.0,0.0,0.0,0.0,0.0,2.0046,2.3605,2.5488,2.6807,2.8321,2.7184,2.6489,2.7666,2.7999,2.786,2.6578,0.0,0.0,0.0,0.0,0.0,0.0,0.0,0.0,0.0,0.0,0.0,0.0,0.0,0.0,0.0,0.0,0.0,0.0,0.0,0.0,0.0,0.0,0.0,0.0,0.0,0.0,0.0,0.0,0.0,0.0,0.0,0.0,0.0,0.0,0.0,0.0,0.0,0.0,0.0,0.0,0.0,0.0,0.0,0.0,0.0,0.0,0.0,0.0,0.0,0.0,0.0,0.0,0.0,2.5089,3.2477,4.0654,4.8595,5.5799,6.0698,6.4173,6.6478,6.3921,5.9672,0.0,0.0,0.0,0.0,0.0,0.0,0.0,0.0,0.0,0.0,0.0,0.0,0.0,0.0,0.0,0.0,0.0,0.0,0.0,0.0,0.0,0.0,0.0,0.0,0.0,0.0,0.0,0.0,0.2001,0.3456,0.5133,0.0,0.0,0.0,0.0,0.0,0.0,0.0,0.0,0.0,0.0,1.8171,2.0489,2.2233,0.0,0.0,2.368,2.3023,2.4129,2.5221,2.56,2.3793,2.1853,0.0,0.0,0.0,0.0,0.0,0.0,0.0,0.0,0.0,0.0,0.0,0.0,0.0,0.0,0.0,0.0,0.0,0.0,0.0,0.0,0.0,0.0,0.0,0.0,0.0,0.0,0.0,0.0,0.0,0.0,0.0,0.0,0.0,0.0,0.0,0.0,0.0,0.0,0.0,0.0,0.0,0.0,0.0,0.0,0.0,0.0,0.0,0.0,0.0,0.0,0.0,0.0,0.0,3.0368,3.9147,4.6082,5.1281,5.7165,6.117,6.2621,6.0298,5.6453,0.0,0.0,0.0,0.0,0.0,0.0,0.0,0.0,0.0,0.0,0.0,0.0,0.0,0.0,0.0,0.0,0.0,0.0,0.0,0.0,0.0,0.0,0.0,0.0,0.0,0.0,0.0,0.0,0.0,0.0,0.0,0.0,0.0,0.0,0.0,0.0,0.0,0.0,0.0,0.0,0.0,1.7969,1.7184,1.9152,2.0513,0.0,1.9143,1.9263,1.9163,2.1461,2.2538,2.0642,0.0,0.0,0.0,0.0,0.0,0.0,0.0,0.0,0.0,0.0,0.0,0.0,0.0,0.0,0.0,0.0,0.0,0.0,0.0,0.0,0.0,0.0,0.0,0.0,0.0,0.0,0.0,0.0,0.0,0.0,0.0,0.0,0.0,0.0,0.0,0.0,0.0,0.0,0.0,0.0,0.0,0.0,0.0,0.0,0.0,0.0,0.0,0.0,0.0,0.0,0.0,0.0,0.0,0.0,2.7926,3.5756,4.3002,4.9931,5.3639,5.7561,6.0679,5.6672,0.0,0.0,0.0,0.0,0.0,0.0,0.0,0.0,0.0,0.0,0.0,0.0,0.0,0.0,0.0,0.0,0.0,0.0,0.0,0.0,0.0,0.0,0.0,0.0,0.0,0.0,0.0,-0.3082,0.0,0.0,0.0,0.0,0.0,0.0,0.0,0.0,0.0,0.0,0.0,0.0,0.0,0.0,1.5275,1.6523,1.6177,1.632,0.0,0.0,1.5628,1.6251,1.856,1.9379,0.0,0.0,0.0,0.0,0.0,0.0,0.0,0.0,0.0,0.0,0.0,0.0,0.0,0.0,0.0,0.0,0.0,0.0,0.0,0.0,0.0,0.0,0.0,0.0,0.0,0.0,0.0,0.0,0.0,0.0,0.0,0.0,0.0,0.0,0.0,0.0,0.0,0.0,0.0,0.0,0.0,0.0,0.0,0.0,0.0,0.0,0.0,0.0,0.0,0.0,0.0,0.0,0.0,0.0,2.1369,2.6809,3.324,4.0219,4.7899,5.0709,5.4034,5.7366,5.3221,4.9563,0.0,0.0,0.0,0.0,0.0,0.0,0.0,0.0,0.0,0.0,0.0,0.0,0.0,0.0,0.0,0.0,0.0,0.0,0.0,0.0,0.0,0.0,0.0,0.0,0.0,0.0,0.0,0.0,0.0,0.0,0.0,0.0,0.0,0.0,0.0,0.0,0.0,0.0,0.0,0.0,0.0,0.0,1.1695,1.2229,0.0,0.0,0.0,1.1737,1.2569,0.0,0.0,0.0,0.0,0.0,0.0,0.0,0.0,0.0,0.0,0.0,0.0,0.0,0.0,0.0,0.0,0.0,0.0,0.0,0.0,0.0,0.0,0.0,0.0,0.0,0.0,0.0,0.0,0.0,0.0,0.0,0.0,0.0,0.0,0.0,0.0,0.0,0.0,0.0,0.0,0.0,0.0,0.0,0.0,0.0,0.0,0.0,0.0,0.0,0.0,0.0,0.0,0.0,0.0,0.0,0.0,0.0,2.6042,3.1466,3.7748,4.5303,4.8203,5.0926,5.382,5.0056,4.6726,0.0,0.0,0.0,0.0,0.0,0.0,0.0,0.0,0.0,0.0,0.0,0.0,0.0,0.0,0.0,0.0,0.0,0.0,0.0,0.0,0.0,0.0,0.0,0.0,0.0,0.0,0.0,0.0,0.0,0.0,0.0,0.0,0.0,0.0,0.0,0.0,0.0,0.0,0.0,0.0,0.0,0.5724,0.5939,0.7823,0.9126,0.0,0.0,0.8051,0.8671,1.1243,0.0,0.0,0.0,0.0,0.0,0.0,0.0,0.0,0.0,0.0,0.0,0.0,0.0,0.0,0.0,0.0,0.0,0.0,0.0,0.0,0.0,0.0,0.0,0.0,0.0,0.0,0.0,0.0,0.0,0.0,0.0,0.0,0.0,0.0,0.0,0.0,0.0,0.0,0.0,0.0,0.0,0.0,0.0,0.0,0.0,0.0,0.0,0.0,0.0,0.0,0.0,0.0,0.0,0.0,0.0,0.0,2.318,2.9415,3.5636,4.1004,4.5606,4.8678,5.0244,4.9254,4.604,0.0,0.0,0.0,0.0,0.0,0.0,0.0,0.0,0.0,0.0,0.0,0.0,0.0,0.0,0.0,0.0,0.0,0.0,0.0,0.0,0.0,0.0,0.0,0.0,0.0,0.0,0.0,0.0,0.0,0.0,0.0,0.0,0.0,0.0,0.0,0.0,0.0,0.0,0.0,0.0,0.0,0.521,0.4432,0.4976,0.0,0.0,0.0,0.0,0.5697,0.8037,0.0,0.0,0.0,0.0,0.0,0.0,0.0,0.0,0.0,0.0,0.0,0.0,0.0,0.0,0.0,0.0,0.0,0.0,0.0,0.0,0.0,0.0,0.0,0.0,0.0,0.0,0.0,0.0,0.0,0.0,0.0,0.0,0.0,0.0,0.0,0.0,0.0,0.0,0.0,0.0,0.0,0.0,0.0,0.0,0.0,0.0,0.0,0.0,0.0,0.0,0.0,0.0,0.0,0.0,0.0,0.0,2.2347,2.7307,3.2842,3.9452,4.2844,4.5789,4.8347,4.6728,4.4031,0.0,0.0,0.0,0.0,0.0,0.0,0.0,0.0,0.0,0.0,0.0,0.0,0.0,0.0,0.0,0.0,0.0,0.0,0.0,0.0,0.0,0.0,0.0,0.0,0.0,0.0,0.0,0.0,0.0,0.0,0.0,0.0,0.0,0.0,0.0,0.0,0.0,0.0,0.0,0.0,-0.3118,0.1473,0.199,0.0,0.0,0.0,0.0,0.0,0.0,0.38,0.4174,0.0,0.0,0.0,0.0,0.0,0.0,0.0,0.0,0.0,0.0,0.0,0.0,0.0,0.0,0.0,0.0,0.0,0.0,0.0,0.0,0.0,0.0,0.0,0.0,0.0,0.0,0.0,0.0,0.0,0.0,0.0,0.0,0.0,0.0,0.0,0.0,0.0,0.0,0.0,0.0,0.0,0.0,0.0,0.0,0.0,0.0,0.0,0.0,0.0,0.0,0.0,0.0,0.0,0.0,0.0,2.1759,2.4729,3.0366,3.8551,4.0615,4.3083,4.6,4.4196,4.1119,3.6378,0.0,0.0,0.0,0.0,0.0,0.0,0.0,0.0,0.0,0.0,0.0,0.0,0.0,0.0,0.0,0.0,0.0,0.0,0.0,0.0,0.0,0.0,0.0,0.0,0.0,0.0,0.0,0.0,0.0,0.0,0.0,0.0,0.0,0.0,0.0,0.0,0.0,0.0,0.0,-0.5545,-0.2864,0.0,0.0,0.0,0.0,0.0,0.0,0.0,0.0,-0.1068,0.0,0.0,0.0,0.0,0.0,0.0,0.0,0.0,0.0,0.0,0.0,0.0,0.0,0.0,0.0,0.0,0.0,0.0,0.0,0.0,0.0,0.0,0.0,0.0,0.0,0.0,0.0,0.0,0.0,0.0,0.0,0.0,0.0,0.0,0.0,0.0,0.0,0.0,0.0,0.0,0.0,0.0,0.0,0.0,0.0,0.0,0.0,0.0,0.0,0.0,0.0,0.0,0.0,0.0,0.0,0.0,2.3019,2.7518,3.3285,3.8206,4.1394,4.2743,4.2664,3.9101,3.1411,0.0,0.0,0.0,0.0,0.0,0.0,0.0,0.0,0.0,0.0,0.0,0.0,0.0,0.0,0.0,0.0,0.0,0.0,0.0,0.0,0.0,0.0,0.0,0.0,0.0,0.0,0.0,0.0,0.0,0.0,0.0,0.0,0.0,0.0,0.0,0.0,0.0,0.0,-0.8578,-0.6086,0.0,0.0,0.0,0.0,0.0,0.0,0.0,0.0,-0.4029,0.0,0.0,0.0,0.0,0.0,0.0,0.0,0.0,0.0,0.0,0.0,0.0,0.0,0.0,0.0,0.0,0.0,0.0,0.0,0.0,0.0,0.0,0.0,0.0,0.0,0.0,0.0,0.0,0.0,0.0,0.0,0.0,0.0,0.0,0.0,0.0,0.0,0.0,0.0,0.0,0.0,0.0,0.0,0.0,0.0,0.0,0.0,0.0,0.0,0.0,0.0,0.0,0.0,0.0,0.0,0.0,0.0,0.0,2.5724,3.1033,3.5157,3.8452,4.0253,3.7679,3.3741,0.0,0.0,0.0,0.0,0.0,0.0,0.0,0.0,0.0,0.0,0.0,0.0,0.0,0.0,0.0,0.0,0.0,0.0,0.0,0.0,0.0,0.0,0.0,0.0,0.0,0.0,0.0,0.0,0.0,0.0,0.0,0.0,0.0,0.0,0.0,0.0,0.0,0.0,0.0,0.0,0.0,0.0,0.0,0.0,0.0,0.0,0.0,0.0,0.0,0.0,0.0,0.0,0.0,0.0,0.0,0.0,0.0,0.0,0.0,0.0,0.0,0.0,0.0,0.0,0.0,0.0,0.0,0.0,0.0,0.0,0.0,0.0,0.0,0.0,0.0,0.0,0.0,0.0,0.0,0.0,0.0,0.0,0.0,0.0,0.0,0.0,0.0,0.0,0.0,0.0,0.0,0.0,0.0,0.0,0.0,0.0,0.0,0.0,0.0,0.0,0.0,0.0,0.0,0.0,0.0,0.0,0.0,0.0,2.3566,2.9066,3.2628,3.5684,3.7631,3.2723,2.8678,0.0,0.0,0.0,0.0,0.0,0.0,0.0,0.0,0.0,0.0,0.0,0.0,0.0,0.0,0.0,0.0,0.0,0.0,0.0,0.0,0.0,0.0,0.0,0.0,0.0,0.0,0.0,0.0,0.0,0.0,0.0,0.0,0.0,0.0,0.0,0.0,0.0,0.0,0.0,0.0,0.0,0.0,0.0,0.0,0.0,0.0,0.0,0.0,-0.4462,0.0,0.0,0.0,0.0,0.0,0.0,0.0,0.0,0.0,0.0,0.0,0.0,0.0,0.0,0.0,0.0,0.0,0.0,0.0,0.0,0.0,0.0,0.0,0.0,0.0,0.0,0.0,0.0,0.0,0.0,0.0,0.0,0.0,0.0,0.0,0.0,0.0,0.0,0.0,0.0,0.0,0.0,0.0,0.0,0.0,0.0,0.0,0.0,0.0,0.0,0.0,0.0,0.0,0.0,0.0,0.0,0.0,0.0,0.0,2.1309,2.537,3.0297,3.3858,3.508,3.0511,2.5892,0.0,0.0,0.0,0.0,0.0,0.0,0.0,0.0,0.0,0.0,0.0,0.0,0.0,0.0,0.0,0.0,0.0,0.0,0.0,0.0,0.0,0.0,0.0,0.0,0.0,0.0,0.0,0.0,0.0,0.0,0.0,0.0,0.0,0.0,0.0,0.0,0.0,0.0,0.0,0.0,0.0,0.0,0.0,0.0,0.0,0.0,0.0,0.0,0.0,0.0,0.0,0.0,0.0,0.0,0.0,0.0,0.0,0.0,0.0,0.0,0.0,0.0,0.0,0.0,0.0,0.0,0.0,0.0,0.0,0.0,0.0,0.0,0.0,0.0,0.0,0.0,0.0,0.0,0.0,0.0,0.0,0.0,0.0,0.0,0.0,0.0,0.0,0.0,0.0,0.0,0.0,0.0,0.0,0.0,0.0,0.0,0.0,0.0,0.0,0.0,0.0,0.0,0.0,0.0,0.0,0.0,0.0,0.0,1.8315,2.2629,2.7466,2.9185,2.7307,2.4495,2.11,0.0,0.0,0.0,0.0,0.0,0.0,0.0,0.0,0.0,0.0,0.0,0.0,0.0,0.0,0.0,0.0,0.0,0.0,0.0,0.0,0.0,0.0,0.0,0.0,0.0,0.0,0.0,0.0,0.0,0.0,0.0,0.0,0.0,0.0,0.0,0.0,0.0,0.0,0.0,0.0,0.0,0.0,0.0,0.0,0.0,0.0,0.0,0.0,0.0,0.0,0.0,0.0,0.0,0.0,0.0,0.0,0.0,0.0,0.0,0.0,0.0,0.0,0.0,0.0,0.0,0.0,0.0,0.0,0.0,0.0,0.0,0.0,0.0,0.0,0.0,0.0,0.0,0.0,0.0,0.0,0.0,0.0,0.0,0.0,0.0,0.0,0.0,0.0,0.0,0.0,0.0,0.0,0.0,0.0,0.0,0.0,0.0,0.0,0.0,0.0,0.0,0.0,0.0,0.0,0.0,0.0,0.0,0.0,0.0,1.9514,2.2619,2.2846,2.006,1.869,1.7088,0.0,0.0,0.0,0.0,0.0,0.0,0.0,0.0,0.0,0.0,0.0,0.0,0.0,0.0,0.0,0.0,0.0,0.0,0.0,0.0,0.0,0.0,0.0,0.0,0.0,0.0,0.0,0.0,0.0,0.0,0.0,0.0,0.0,0.0,0.0,0.0,0.0,0.0,0.0,0.0,0.0,0.0,0.0,0.0,0.0,0.0,0.0,0.0,0.0,0.0,0.0,0.0,0.0,0.0,0.0,0.0,0.0,0.0,0.0,0.0,0.0,0.0,0.0,0.0,0.0,0.0,0.0,0.0,0.0,0.0,0.0,0.0,0.0,0.0,0.0,0.0,0.0,0.0,0.0,0.0,0.0,0.0,0.0,0.0,0.0,0.0,0.0,0.0,0.0,0.0,0.0,0.0,0.0,0.0,0.0,0.0,0.0,0.0,0.0,0.0,0.0,0.0,0.0,0.0,0.0,0.0,0.0,0.0,0.0,1.5429,1.5053,1.4972,1.4534,1.4892,1.3421,0.0,0.0,0.0,0.0,0.0,0.0,0.0,0.0,0.0,0.0,0.0,0.0,0.0,0.0,0.0,0.0,0.0,0.0,0.0,0.0,0.0,0.0,0.0,0.0,0.0,0.0,0.0,0.0,0.0,0.0,0.0,0.0,0.0,0.0,0.0,0.0,0.0,0.0,0.0,0.0,0.0,0.0,0.0,0.0,0.0,0.0,0.0,0.0,0.0,0.0,0.0,0.0,0.0,0.0,0.0,0.0,0.0,0.0,0.0,0.0,0.0,0.0,0.0,0.0,0.0,0.0,0.0,0.0,0.0,0.0,0.0,0.0,0.0,0.0,0.0,0.0,0.0,0.0,0.0,0.0,0.0,0.0,0.0,0.0,0.0,0.0,0.0,0.0,0.0,0.0,0.0,0.0,0.0,0.0,0.0,0.0,0.0,0.0,0.0,0.0,0.0,0.0,0.0,0.0,0.0,0.0,0.0,0.0,0.0,1.0179,0.9815,0.9715,1.0119,1.0026,0.9109,0.7346,0.0,0.0,0.0,0.0,0.0,0.0,0.0,0.0,0.0,0.0,0.0,0.0,0.0,0.0,0.0,0.0,0.0,0.0,0.0,0.0,0.0,0.0,0.0,0.0,0.0,0.0,0.0,0.0,0.0,0.0,0.0,0.0,0.0,0.0,0.0,0.0,0.0,0.0,0.0,0.0,0.0,0.0,0.0,0.0,0.0,0.0,0.0,0.0,0.0,0.0,0.0,0.0,0.0,0.0,0.0,0.0,0.0,0.0,0.0,0.0,0.0,0.0,0.0,0.0,0.0,0.0,0.0,0.0,0.0,0.0,0.0,0.0,0.0,0.0,0.0,0.0,0.0,0.0,0.0,0.0,0.0,0.0,0.0,0.0,0.0,0.0,0.0,0.0,0.0,0.0,0.0,0.0,0.0,0.0,0.0,0.0,0.0,0.0,0.0,0.0,0.0,0.0,0.0,0.0,0.0,0.0,0.0,0.0,0.6272,0.5932,0.6044,0.66,0.6282,0.5766,0.0,0.0,0.0,0.0,0.0,0.0,0.0,0.0,0.0,0.0,0.0,0.0,0.0,0.0,0.0,0.0,0.0,0.0,0.0,0.0,0.0,0.0,0.0,0.0,0.0,0.0,0.0,0.0,0.0,0.0,0.0,0.0,0.0,0.0,0.0,0.0,0.0,0.0,0.0,0.0,0.0,0.0,0.0,0.0,0.0,0.0,0.0,0.0,0.0,0.0,0.0,0.0,0.0,0.0,0.0,0.0,0.0,0.0,0.0,0.0,0.0,0.0,0.0,0.0,0.0,0.0,0.0,0.0,0.0,0.0,0.0,0.0,0.0,0.0,0.0,0.0,0.0,0.0,0.0,0.0,0.0,0.0,0.0,0.0,0.0,0.0,0.0,0.0,0.0,0.0,0.0,0.0,0.0,0.0,0.0,0.0,0.0,0.0,0.0,0.0,0.0,0.0,0.0,0.0,0.0,0.0,0.0,0.0,-0.0191,0.3587,0.3663,0.3825,0.3845,0.3968,0.3512,0.0,0.0,0.0,0.0,0.0,0.0,0.0,0.0,0.0,0.0,0.0,0.0,0.0,0.0,0.0,0.0,0.0,0.0,0.0,0.0,0.0,0.0,0.0,0.0,0.0,0.0,0.0,0.0,0.0,0.0,0.0,0.0,0.0,0.0,0.0,0.0,0.0,0.0,0.0,0.0,0.0,0.0,0.0,0.0,0.0,0.0,0.0,0.0,0.0,0.0,0.0,0.0,0.0,0.0,0.0,0.0,0.0,0.0,0.0,0.0,0.0,0.0,0.0,0.0,0.0,0.0,0.0,0.0,0.0,0.0,0.0,0.0,0.0,0.0,0.0,0.0,0.0,0.0,0.0,0.0,0.0,0.0,0.0,0.0,0.0,0.0,0.0,0.0,0.0,0.0,0.0,0.0,0.0,0.0,0.0,0.0,0.0,0.0,0.0,0.0,0.0,0.0,0.0,0.0,0.0,0.0,0.0,0.0,0.0,0.1118,0.0,0.3303,0.0,0.3184,0.2502,0.0,0.0,0.0,0.0,0.0,0.0,0.0,0.0,0.0,0.0,0.0,0.0,0.0,0.0,0.0,0.0,0.0,0.0,0.0,0.0,0.0,0.0,0.0,0.0,0.0,0.0,0.0,0.0,0.0,0.0,0.0,0.0,0.0,0.0,0.0,0.0,0.0,0.0,0.0,0.0,0.0,0.0,0.0,0.0,0.0,0.0,0.0,0.0,0.0,0.0,0.0,0.0,0.0,0.0,0.0,0.0,0.0,0.0,0.0,0.0,0.0,0.0,0.0,0.0,0.0,0.0,0.0,0.0,0.0,0.0,0.0,0.0,0.0,0.0,0.0,0.0,0.0,0.0,0.0,0.0,0.0,0.0,0.0,0.0,0.0,0.0,0.0,0.0,0.0,0.0,0.0,0.0,0.0,0.0,0.0,0.0,0.0,0.0,0.0,0.0,0.0,0.0,0.0,0.0,0.0,0.0,0.0,0.0,0.0,-0.0178,0.1423,0.2182,0.0,0.1968,0.1383,0.0,0.0,0.0,0.0,0.0,0.0,0.0,0.0,0.0,0.0,0.0,0.0,0.0,0.0,0.0,0.0,0.0,0.0,0.0,0.0,0.0,0.0,0.0,0.0,0.0,0.0,0.0,0.0,0.0,0.0,0.0,0.0,0.0,0.0,0.0,0.0,0.0,0.0,0.0,0.0,0.0,0.0,0.0,0.0,0.0,0.0,0.0,0.0,0.0,0.0,0.0,0.0,0.0,0.0,0.0,0.0,0.0,0.0,0.0,0.0,0.0,0.0,0.0,0.0,0.0,0.0,0.0,0.0,0.0,0.0,0.0,0.0,0.0,0.0,0.0,0.0,0.0,0.0,0.0,0.0,0.0,0.0,0.0,0.0,0.0,0.0,0.0,0.0,0.0,0.0,0.0,0.0,0.0,0.0,0.0,0.0,0.0,0.0,0.0,0.0,0.0,0.0,0.0,0.0,0.0,0.0,0.0,0.0,0.0,0.0,0.0178,0.0703,0.1075,0.0345,0.0,0.0,0.0,0.0,0.0,0.0,0.0,0.0,0.0,0.0,0.0,0.0,0.0,0.0,0.0,0.0,0.0,0.0,0.0,0.0,0.0,0.0,0.0,0.0,0.0,0.0,0.0,0.0,0.0,0.0,0.0,0.0,0.0,0.0,0.0,0.0,0.0,0.0,0.0,0.0,0.0,0.0,0.0,0.0,0.0,0.0,0.0,0.0,0.0,0.0,0.0,0.0,0.0,0.0,0.0,0.0,0.0,0.0,0.0,0.0,0.0,0.0,0.0,0.0,0.0,0.0,0.0,0.0,0.0,0.0,0.0,0.0,0.0,0.0,0.0,0.0,0.0,0.0,0.0,0.0,0.0,0.0,0.0,0.0,0.0,0.0,0.0,0.0,0.0,0.0,0.0,0.0,0.0,0.0,0.0,0.0,0.0,0.0,0.0,0.0,0.0,0.0,0.0,0.0,0.0,0.0,0.0,0.0,0.0,0.0,0.0,-0.2045,0.0,0.0172,0.0168,0.0,0.0,0.0,0.0,0.0,0.0,0.0,0.0,0.0,0.0,0.0,0.0,0.0,0.0,0.0,0.0,0.0,0.0,0.0,0.0,0.0,0.0,0.0,0.0,0.0,0.0,0.0,0.0,0.0,0.0,0.0,0.0,0.0,0.0,0.0,0.0,0.0,0.0,0.0,0.0,0.0,0.0,0.0,0.0,0.0,0.0,0.0,0.0,0.0,0.0,0.0,0.0,0.0,0.0,0.0,0.0,0.0,0.0,0.0,0.0,0.0,0.0,0.0,0.0,0.0,0.0,0.0,0.0,0.0,0.0,0.0,0.0,0.0,0.0,0.0,0.0,0.0,0.0,0.0,0.0,0.0,0.0,0.0,0.0,0.0,0.0,0.0,0.0,0.0,0.0,0.0,0.0,0.0,0.0,0.0,0.0,0.0,0.0,0.0,0.0,0.0,0.0,0.0,0.0,0.0,0.0,0.0,0.0,0.0,0.0,0.0,0.0,0.0,-0.0487,-0.0321,-0.0475,0.0,0.0,0.0,0.0,0.0,0.0,0.0,0.0,0.0,0.0,0.0,0.0,0.0,0.0,0.0,0.0,0.0,0.0,0.0,0.0,0.0,0.0,0.0,0.0,0.0,0.0,0.0,0.0,0.0,0.0,0.0,0.0,0.0,0.0,0.0,0.0,0.0,0.0,0.0,0.0,0.0,0.0,0.0,0.0,0.0,0.0,0.0,0.0,0.0,0.0,0.0,0.0,0.0,0.0,0.0,0.0,0.0,0.0,0.0,0.0,0.0,0.0,0.0,0.0,0.0,0.0,0.0,0.0,0.0,0.0,0.0,0.0,0.0,0.0,0.0,0.0,0.0,0.0,0.0,0.0,0.0,0.0,0.0,0.0,0.0,0.0,0.0,0.0,0.0,0.0,0.0,0.0,0.0,0.0,0.0,0.0,0.0,0.0,0.0,0.0,0.0,0.0,0.0,0.0,0.0,0.0,0.0,0.0,0.0,0.0,0.0,-0.2464,-0.1211,-0.1214,0.0,-0.1059,0.0,0.0,0.0,0.0,0.0,0.0,0.0,0.0,0.0,0.0,0.0,0.0,0.0,0.0,0.0,0.0,0.0,0.0,0.0,0.0,0.0,0.0,0.0,0.0,0.0,0.0,0.0,0.0,0.0,0.0,0.0,0.0,0.0,0.0,0.0,0.0,0.0,0.0,0.0,0.0,0.0,0.0,0.0,0.0,0.0,0.0,0.0,0.0,0.0,0.0,0.0,0.0,0.0,0.0,0.0,0.0,0.0,0.0,0.0,0.0,0.0,0.0,0.0,0.0,0.0,0.0,0.0,0.0,0.0,0.0,0.0,0.0,0.0,0.0,0.0,0.0,0.0,0.0,0.0,0.0,0.0,0.0,0.0,0.0,0.0,0.0,0.0,0.0,0.0,0.0,0.0,0.0,0.0,0.0,0.0,0.0,0.0,0.0,0.0,0.0,0.0,0.0,0.0,0.0,0.0,0.0,0.0,0.0,0.0,0.0,0.0,0.0,-0.2596,-0.2452,-0.1873,0.0,0.0,0.0,0.0,0.0,0.0,0.0,0.0,0.0,0.0,0.0,0.0,0.0,0.0,0.0,0.0,0.0,0.0,0.0,0.0,0.0,0.0,0.0,0.0,0.0,0.0,0.0,0.0,0.0,0.0,0.0,0.0,0.0,0.0,0.0,0.0,0.0,0.0,0.0,0.0,0.0,0.0,0.0,0.0,0.0,0.0,0.0,0.0,0.0,0.0,0.0,0.0,0.0,0.0,0.0,0.0,0.0,0.0,0.0,0.0,0.0,0.0,0.0,0.0,0.0,0.0,0.0,0.0,0.0,0.0,0.0,0.0,0.0,0.0,0.0,0.0,0.0,0.0,0.0,0.0,0.0,0.0,0.0,0.0,0.0,0.0,0.0,0.0,0.0,0.0,0.0,0.0,0.0,0.0,0.0,0.0,0.0,0.0,0.0,0.0,0.0,0.0,0.0,0.0,0.0,0.0,0.0,0.0,0.0,0.0,-0.3692,-0.3146,-0.2869,-0.2719,-0.2283,0.0,0.0,0.0,0.0,0.0,0.0,0.0,0.0,0.0,0.0,0.0,0.0,0.0,0.0,0.0,0.0,0.0,0.0,0.0,0.0,0.0,0.0,0.0,0.0,0.0,0.0,0.0,0.0,0.0,0.0,0.0,0.0,0.0,0.0,0.0,0.0,0.0,0.0,0.0,0.0,0.0,0.0,0.0,0.0,0.0,0.0,0.0,0.0,0.0,0.0,0.0,0.0,0.0,0.0,0.0,0.0,0.0,0.0,0.0,0.0,0.0,0.0,0.0,0.0,0.0,0.0,0.0,0.0,0.0,0.0,0.0,0.0,0.0,0.0,0.0,0.0,0.0,0.0,0.0,0.0,0.0,0.0,0.0,0.0,0.0,0.0,0.0,0.0,0.0,0.0,0.0,0.0,0.0,0.0,0.0,0.0,0.0,0.0,0.0,0.0,0.0,0.0,0.0,0.0,0.0,0.0,0.0,0.0,0.0,0.0,0.0,0.0,0.0,0.0,-0.2494,0.0,0.0,0.0,0.0,0.0,0.0,0.0,0.0,0.0,0.0,0.0,0.0,0.0,0.0,0.0,0.0,0.0,0.0,0.0,0.0,0.0,0.0,0.0,0.0,0.0,0.0,0.0,0.0,0.0,0.0,0.0,0.0,0.0,0.0,0.0,0.0,0.0,0.0,0.0,0.0,0.0,0.0,0.0,0.0,0.0,0.0,0.0,0.0,0.0,0.0,0.0,0.0,0.0,0.0,0.0,0.0,0.0,0.0,0.0,0.0,0.0,0.0,0.0,0.0,0.0,0.0,0.0,0.0,0.0,0.0,0.0,0.0,0.0,0.0,0.0,0.0,0.0,0.0,0.0,0.0,0.0,0.0,0.0,0.0,0.0,0.0,0.0,0.0,0.0,0.0,0.0,0.0,0.0,0.0,0.0,0.0,0.0,0.0,0.0,0.0,0.0,0.0,0.0,0.0,0.0,0.0,0.0,0.0,0.0,0.0,0.0,0.0,0.0,0.0,0.0,0.0,0.0,0.0,0.0,0.0,0.0,0.0,0.0,0.0,0.0,0.0,0.0,0.0,0.0,0.0,0.0,0.0,0.0,0.0,0.0,0.0,0.0,0.0,0.0,0.0,0.0,0.0,0.0,0.0,0.0,0.0,0.0,0.0,0.0,0.0,0.0,0.0,0.0,0.0,0.0,0.0,0.0,0.0,0.0,0.0,0.0,0.0,0.0,0.0,0.0,0.0,0.0,0.0,0.0,0.0,0.0,0.0,0.0,0.0,0.0,0.0,0.0,0.0,0.0,0.0,0.0,0.0,0.0,0.0,0.0,0.0,0.0,0.0,0.0,0.0,0.0,0.0,0.0,0.0,0.0,0.0,0.0,0.0,0.0,0.0,0.0,0.0,0.0,0.0,0.0,0.0,0.0,0.0,0.0,0.0,0.0,0.0,0.0,0.0,0.0,0.0,0.0,0.0,0.0,0.0,0.0,0.0,0.0,0.0,0.0,0.0,0.0,0.0,0.0,0.0,0.0,0.0,0.0,0.0,0.0,0.0,0.0,0.0,0.0,0.0,0.0,0.0,0.0,0.0,0.0,0.0,0.0,0.0,0.0,0.0,0.0,0.0,0.0,0.0,0.0,0.0,0.0,0.0,0.0,0.0,0.0,0.0,0.0,0.0,0.0,0.0,0.0,0.0,0.0,0.0,0.0,0.0,0.0,0.0,0.0,0.0,0.0,0.0,0.0,0.0,0.0,0.0,0.0,0.0,0.0,0.0,0.0,0.0,0.0,0.0,0.0,0.0,0.0,0.0,0.0,0.0,0.0,0.0,0.0,0.0,0.0,0.0,0.0,0.0,0.0,0.0,0.0,0.0,0.0,0.0,0.0,0.0,0.0,0.0,0.0,0.0,0.0,0.0,0.0,0.0,0.0,0.0,0.0,0.0,0.0,0.0,0.0,0.0,0.0,0.0,0.0,0.0,0.0,0.0,0.0,0.0,0.0,0.0,0.0,0.0,0.0,0.0,0.0,0.0,0.0,0.0,0.0,0.0,0.0,0.0,0.0,0.0,0.0,0.0,0.0,0.0,0.0,0.0,0.0,0.0,0.0,0.0,0.0,0.0,0.0,0.0,0.0,0.0,0.0,0.0,0.0,0.0,0.0,0.0,0.0,0.0,0.0,0.0,0.0,0.0,0.0,0.0,0.0,0.0,0.0,0.0,0.0,0.0,0.0,0.0,0.0,0.0,0.0,0.0,0.0,0.0,0.0,0.0,0.0,0.0,0.0,0.0,0.0,0.0,0.0,0.0,0.0,0.0,0.0,0.0,0.0,0.0,0.0,0.0,0.0,0.0,0.0,0.0,0.0,0.0,0.0,0.0,0.0,0.0,0.0,0.0,0.0,0.0,0.0,0.0,0.0,0.0,0.0,0.0,0.0,0.0,0.0,0.0,0.0,0.0,0.0,0.0,0.0,0.0,0.0,0.0,0.0,0.0,0.0,0.0,0.0,0.0,0.0,0.0,0.0,0.0,0.0,0.0,0.0,0.0,0.0,0.0,0.0,0.0,0.0,0.0,0.0,0.0,0.0,0.0,0.0,0.0,0.0,0.0,0.0,0.0,0.0,0.0,0.0,0.0,0.0,0.0,0.0,0.0,0.0,0.0,0.0,0.0,0.0,0.0,0.0,0.0,0.0,0.0,0.0,0.0,0.0,0.0,0.0,0.0,0.0,0.0,0.0,0.0,0.0,0.0,0.0,0.0,0.0,0.0,0.0,0.0,0.0,0.0,0.0,0.0,0.0,0.0,0.0,0.0,0.0,0.0,0.0,0.0,0.0,0.0,0.0,0.0,0.0,0.0,0.0,0.0,0.0,0.0,0.0,0.0,0.0,0.0,0.0,0.0,0.0,0.0,0.0,0.0,0.0,0.0,0.0,0.0,0.0,0.0,0.0,0.0,0.0,0.0,0.0,0.0,0.0,0.0,0.0,0.0,0.0,0.0,0.0,0.0,0.0,0.0,0.0,0.0,0.0,0.0,0.0,0.0,0.0,0.0,0.0,0.0,0.0,0.0,0.0,0.0,0.0,0.0,0.0,0.0,0.0,0.0,0.0,0.0,0.0,0.0,0.0,0.0,0.0,0.0,0.0,0.0,0.0,0.0,0.0,0.0,0.0,0.0,0.0,0.0,0.0,0.0,0.0,0.0,0.0,0.0,0.0,0.0,0.0,0.0,0.0,0.0,0.0,0.0,0.0,0.0,0.0,0.0,0.0,0.0,0.0,0.0,0.0,0.0,0.0,0.0,0.0,0.0,0.0,0.0,0.0,0.0,0.0,0.0,0.0,0.0,0.0,0.0,0.0,0.0,0.0,0.0,0.0,0.0,0.0,0.0,0.0,0.0,0.0,0.0,0.0,0.0,0.0,0.0,0.0,0.0,0.0,0.0,0.0,0.0,0.0,0.0,0.0,0.0,0.0,0.0,0.0,0.0,0.0,0.0,0.0,0.0,0.0,0.0,0.0,0.0,0.0,0.0,0.0,0.0,0.0,0.0,0.0,0.0,0.0,0.0,0.0,0.0,0.0,0.0,0.0,0.0,0.0,0.0,0.0,0.0,0.0,0.0,0.0,0.0,0.0,0.0,0.0,0.0,0.0,0.0,0.0,0.0,0.0,0.0,0.0,0.0,0.0,0.0,0.0,0.0,0.0,0.0,0.0,0.0,0.0,0.0,0.0,0.0,0.0,0.0,0.0,0.0,0.0,0.0,0.0,0.0,0.0,0.0,0.0,0.0,0.0,0.0,0.0,0.0,0.0,0.0,0.0,0.0,0.0,0.0,0.0,0.0,0.0,0.0,0.0,0.0,0.0,0.0,0.0,0.0,0.0,0.0,0.0,0.0,0.0,0.0,0.0,0.0,0.0,0.0,0.0,0.0,0.0,0.0,0.0,0.0,0.0,0.0,0.0,0.0,0.0,0.0,0.0,0.0,0.0,0.0,0.0,0.0,0.0,0.0,0.0,0.0,0.0,0.0,0.0,0.0,0.0,0.0,0.0,0.0,0.0,0.0,0.0,0.0,0.0,0.0,0.0,0.0,0.0,0.0,0.0,0.0,0.0,0.0,0.0,0.0,0.0,0.0,0.0,0.0,0.0,0.0,0.0,0.0,0.0,0.0,0.0,0.0,0.0,0.0,0.0,0.0,0.0,0.0,0.0,0.0,0.0,0.0,0.0,0.0,0.0,0.0,0.0,0.0,0.0,0.0,0.0,0.0,0.0,0.0,0.0,0.0,0.0,0.0,0.0,0.0,0.0,0.0,0.0,0.0,0.0,0.0,0.0,0.0,0.0,0.0,0.0,0.0,0.0,0.0,0.0,0.0,0.0,0.0,0.0,0.0,0.0,0.0,0.0,0.0,0.0,0.0,0.0,0.0,0.0,0.0,0.0,0.0,0.0,0.0,0.0,0.0,0.0,0.0,0.0,0.0,0.0,0.0,0.0,0.0,0.0,0.0,0.0,0.0,0.0,0.0,0.0,0.0,0.0,0.0,0.0,0.0,0.0,0.0,0.0,0.0,0.0,0.0,0.0,0.0,0.0,0.0,0.0,0.0,0.0,0.0,0.0,0.0,0.0,0.0,0.0,0.0,0.0,0.0,0.0,0.0,0.0,0.0,0.0,0.0,0.0,0.0,0.0,0.0,0.0,0.0,0.0,0.0,0.0,0.0,0.0,0.0,0.0,0.0,0.0,0.0,0.0,0.0,0.0,0.0,0.0,0.0,0.0,0.0,0.0,0.0,0.0,0.0,0.0,0.0,0.0,0.0,0.0,0.0,0.0,0.0,0.0,0.0,0.0,0.0,0.0,0.0,0.0,0.0,0.0,0.0,0.0,0.0]}]]]